<?xml version="1.0" encoding="UTF-8" standalone="no" ?>
<gpx xmlns="http://www.topografix.com/GPX/1/1" xmlns:xsi="http://www.w3.org/2001/XMLSchema-instance" xsi:schemaLocation="http://www.topografix.com/GPX/1/1 http://www.topografix.com/GPX/1/1/gpx.xsd" version="1.1" creator="VisuGPX - https://www.visugpx.com">
  <metadata>
    <name>Ceüse : Lac de Correo &gt; Lac de Pelleautier</name>
    <desc><![CDATA[Ceüse : Lac de Correo > Lac de Pelleautier]]></desc>
  </metadata>
  <trk>
    <name><![CDATA[000001-R-R-R]]></name>
    <trkseg>
      <trkpt lat="44.48959" lon="6.02638">
        <ele>666.1</ele>
        <time>2007-07-19T16:55:30Z</time>
      </trkpt>
      <trkpt lat="44.48968" lon="6.02614">
        <ele>668.1</ele>
        <time>2007-07-19T16:55:30Z</time>
      </trkpt>
      <trkpt lat="44.48978" lon="6.02589">
        <ele>670.6</ele>
        <time>2007-07-19T16:55:30Z</time>
      </trkpt>
      <trkpt lat="44.48986" lon="6.02558">
        <ele>673.3</ele>
        <time>2007-07-19T16:55:30Z</time>
      </trkpt>
      <trkpt lat="44.4898" lon="6.0253">
        <ele>678</ele>
        <time>2007-07-19T16:55:30Z</time>
      </trkpt>
      <trkpt lat="44.48953" lon="6.02528">
        <ele>682</ele>
        <time>2007-07-19T16:55:30Z</time>
      </trkpt>
      <trkpt lat="44.48926" lon="6.02526">
        <ele>684.5</ele>
        <time>2007-07-19T16:55:30Z</time>
      </trkpt>
      <trkpt lat="44.48911" lon="6.0251">
        <ele>686.4</ele>
        <time>2007-07-19T16:55:30Z</time>
      </trkpt>
      <trkpt lat="44.48908" lon="6.02475">
        <ele>687.9</ele>
        <time>2007-07-19T16:55:30Z</time>
      </trkpt>
      <trkpt lat="44.48907" lon="6.02443">
        <ele>689.7</ele>
        <time>2007-07-19T16:55:30Z</time>
      </trkpt>
      <trkpt lat="44.4891" lon="6.02406">
        <ele>689.4</ele>
        <time>2007-07-19T16:55:30Z</time>
      </trkpt>
      <trkpt lat="44.48931" lon="6.02398">
        <ele>689.8</ele>
        <time>2007-07-19T16:55:30Z</time>
      </trkpt>
      <trkpt lat="44.48953" lon="6.02393">
        <ele>691.1</ele>
        <time>2007-07-19T16:55:30Z</time>
      </trkpt>
      <trkpt lat="44.48974" lon="6.02385">
        <ele>693</ele>
        <time>2007-07-19T16:55:30Z</time>
      </trkpt>
      <trkpt lat="44.48994" lon="6.02377">
        <ele>696.1</ele>
        <time>2007-07-19T16:55:30Z</time>
      </trkpt>
      <trkpt lat="44.49013" lon="6.02365">
        <ele>697.7</ele>
        <time>2007-07-19T16:55:30Z</time>
      </trkpt>
      <trkpt lat="44.49036" lon="6.02354">
        <ele>699.1</ele>
        <time>2007-07-19T16:55:30Z</time>
      </trkpt>
      <trkpt lat="44.49056" lon="6.02343">
        <ele>700.1</ele>
        <time>2007-07-19T16:55:30Z</time>
      </trkpt>
      <trkpt lat="44.49075" lon="6.02332">
        <ele>701</ele>
        <time>2007-07-19T16:55:30Z</time>
      </trkpt>
      <trkpt lat="44.49095" lon="6.0232">
        <ele>702.1</ele>
        <time>2007-07-19T16:55:30Z</time>
      </trkpt>
      <trkpt lat="44.49114" lon="6.02309">
        <ele>703.5</ele>
        <time>2007-07-19T16:55:30Z</time>
      </trkpt>
      <trkpt lat="44.49136" lon="6.02301">
        <ele>706.4</ele>
        <time>2007-07-19T16:55:30Z</time>
      </trkpt>
      <trkpt lat="44.49161" lon="6.023">
        <ele>707.8</ele>
        <time>2007-07-19T16:55:30Z</time>
      </trkpt>
      <trkpt lat="44.49188" lon="6.02301">
        <ele>707.5</ele>
        <time>2007-07-19T16:55:30Z</time>
      </trkpt>
      <trkpt lat="44.49215" lon="6.02303">
        <ele>705.8</ele>
        <time>2007-07-19T16:55:30Z</time>
      </trkpt>
      <trkpt lat="44.49242" lon="6.02305">
        <ele>704.4</ele>
        <time>2007-07-19T16:55:30Z</time>
      </trkpt>
      <trkpt lat="44.49263" lon="6.02297">
        <ele>704.7</ele>
        <time>2007-07-19T16:55:30Z</time>
      </trkpt>
      <trkpt lat="44.49281" lon="6.02285">
        <ele>706.3</ele>
        <time>2007-07-19T16:55:30Z</time>
      </trkpt>
      <trkpt lat="44.49297" lon="6.02268">
        <ele>708.5</ele>
        <time>2007-07-19T16:55:30Z</time>
      </trkpt>
      <trkpt lat="44.4932" lon="6.0226">
        <ele>710.4</ele>
        <time>2007-07-19T16:55:30Z</time>
      </trkpt>
      <trkpt lat="44.49349" lon="6.02262">
        <ele>710.4</ele>
        <time>2007-07-19T16:55:30Z</time>
      </trkpt>
      <trkpt lat="44.49376" lon="6.02263">
        <ele>711.3</ele>
        <time>2007-07-19T16:55:30Z</time>
      </trkpt>
      <trkpt lat="44.49403" lon="6.02265">
        <ele>712.8</ele>
        <time>2007-07-19T16:55:30Z</time>
      </trkpt>
      <trkpt lat="44.4943" lon="6.02267">
        <ele>713.2</ele>
        <time>2007-07-19T16:55:30Z</time>
      </trkpt>
      <trkpt lat="44.49452" lon="6.02275">
        <ele>713.1</ele>
        <time>2007-07-19T16:55:30Z</time>
      </trkpt>
      <trkpt lat="44.49474" lon="6.02289">
        <ele>712.9</ele>
        <time>2007-07-19T16:55:30Z</time>
      </trkpt>
      <trkpt lat="44.49497" lon="6.02303">
        <ele>714</ele>
        <time>2007-07-19T16:55:30Z</time>
      </trkpt>
      <trkpt lat="44.49514" lon="6.02316">
        <ele>712.7</ele>
        <time>2007-07-19T16:55:30Z</time>
      </trkpt>
      <trkpt lat="44.49532" lon="6.0233">
        <ele>710.5</ele>
        <time>2007-07-19T16:55:30Z</time>
      </trkpt>
      <trkpt lat="44.49549" lon="6.02344">
        <ele>709.2</ele>
        <time>2007-07-19T16:55:30Z</time>
      </trkpt>
      <trkpt lat="44.49567" lon="6.02358">
        <ele>707</ele>
        <time>2007-07-19T16:55:30Z</time>
      </trkpt>
      <trkpt lat="44.49584" lon="6.02371">
        <ele>705.5</ele>
        <time>2007-07-19T16:55:30Z</time>
      </trkpt>
      <trkpt lat="44.49602" lon="6.02388">
        <ele>703.2</ele>
        <time>2007-07-19T16:55:30Z</time>
      </trkpt>
      <trkpt lat="44.49619" lon="6.02402">
        <ele>701.1</ele>
        <time>2007-07-19T16:55:30Z</time>
      </trkpt>
      <trkpt lat="44.49641" lon="6.02416">
        <ele>699.2</ele>
        <time>2007-07-19T16:55:30Z</time>
      </trkpt>
      <trkpt lat="44.49666" lon="6.02427">
        <ele>698.1</ele>
        <time>2007-07-19T16:55:30Z</time>
      </trkpt>
      <trkpt lat="44.49688" lon="6.02435">
        <ele>695.7</ele>
        <time>2007-07-19T16:55:30Z</time>
      </trkpt>
      <trkpt lat="44.49712" lon="6.02439">
        <ele>694.3</ele>
        <time>2007-07-19T16:55:30Z</time>
      </trkpt>
      <trkpt lat="44.49737" lon="6.02444">
        <ele>693.1</ele>
        <time>2007-07-19T16:55:30Z</time>
      </trkpt>
      <trkpt lat="44.49764" lon="6.02446">
        <ele>691.3</ele>
        <time>2007-07-19T16:55:30Z</time>
      </trkpt>
      <trkpt lat="44.49787" lon="6.02438">
        <ele>688.1</ele>
        <time>2007-07-19T16:55:30Z</time>
      </trkpt>
      <trkpt lat="44.49792" lon="6.02407">
        <ele>689.3</ele>
        <time>2007-07-19T16:55:30Z</time>
      </trkpt>
      <trkpt lat="44.49794" lon="6.02369">
        <ele>690.8</ele>
        <time>2007-07-19T16:55:30Z</time>
      </trkpt>
      <trkpt lat="44.49802" lon="6.02335">
        <ele>692.6</ele>
        <time>2007-07-19T16:55:30Z</time>
      </trkpt>
      <trkpt lat="44.49805" lon="6.02301">
        <ele>696.4</ele>
        <time>2007-07-19T16:55:30Z</time>
      </trkpt>
      <trkpt lat="44.49821" lon="6.02283">
        <ele>695.6</ele>
        <time>2007-07-19T16:55:30Z</time>
      </trkpt>
      <trkpt lat="44.49844" lon="6.02269">
        <ele>696</ele>
        <time>2007-07-19T16:55:30Z</time>
      </trkpt>
      <trkpt lat="44.49865" lon="6.02258">
        <ele>696.4</ele>
        <time>2007-07-19T16:55:30Z</time>
      </trkpt>
      <trkpt lat="44.4989" lon="6.02256">
        <ele>695.7</ele>
        <time>2007-07-19T16:55:30Z</time>
      </trkpt>
      <trkpt lat="44.49912" lon="6.02264">
        <ele>694</ele>
        <time>2007-07-19T16:55:30Z</time>
      </trkpt>
      <trkpt lat="44.49934" lon="6.02272">
        <ele>695</ele>
        <time>2007-07-19T16:55:30Z</time>
      </trkpt>
      <trkpt lat="44.49947" lon="6.02294">
        <ele>697.3</ele>
        <time>2007-07-19T16:55:30Z</time>
      </trkpt>
      <trkpt lat="44.4995" lon="6.02326">
        <ele>701.6</ele>
        <time>2007-07-19T16:55:30Z</time>
      </trkpt>
      <trkpt lat="44.49956" lon="6.02358">
        <ele>704.4</ele>
        <time>2007-07-19T16:55:30Z</time>
      </trkpt>
      <trkpt lat="44.49962" lon="6.02387">
        <ele>703</ele>
        <time>2007-07-19T16:55:30Z</time>
      </trkpt>
      <trkpt lat="44.49977" lon="6.02403">
        <ele>702.8</ele>
        <time>2007-07-19T16:55:30Z</time>
      </trkpt>
      <trkpt lat="44.50002" lon="6.02408">
        <ele>703.5</ele>
        <time>2007-07-19T16:55:30Z</time>
      </trkpt>
      <trkpt lat="44.50029" lon="6.0241">
        <ele>701.8</ele>
        <time>2007-07-19T16:55:30Z</time>
      </trkpt>
      <trkpt lat="44.50047" lon="6.02392">
        <ele>707.1</ele>
        <time>2007-07-19T16:55:30Z</time>
      </trkpt>
      <trkpt lat="44.50063" lon="6.02378">
        <ele>711.1</ele>
        <time>2007-07-19T16:55:30Z</time>
      </trkpt>
      <trkpt lat="44.50084" lon="6.02369">
        <ele>714.7</ele>
        <time>2007-07-19T16:55:30Z</time>
      </trkpt>
      <trkpt lat="44.50104" lon="6.02361">
        <ele>716.3</ele>
        <time>2007-07-19T16:55:30Z</time>
      </trkpt>
      <trkpt lat="44.50123" lon="6.0235">
        <ele>718.6</ele>
        <time>2007-07-19T16:55:30Z</time>
      </trkpt>
      <trkpt lat="44.50146" lon="6.02345">
        <ele>719.8</ele>
        <time>2007-07-19T16:55:30Z</time>
      </trkpt>
      <trkpt lat="44.5017" lon="6.02341">
        <ele>721.9</ele>
        <time>2007-07-19T16:55:30Z</time>
      </trkpt>
      <trkpt lat="44.50197" lon="6.02342">
        <ele>724.4</ele>
        <time>2007-07-19T16:55:30Z</time>
      </trkpt>
      <trkpt lat="44.50224" lon="6.02347">
        <ele>727.1</ele>
        <time>2007-07-19T16:55:30Z</time>
      </trkpt>
      <trkpt lat="44.50246" lon="6.02358">
        <ele>727.8</ele>
        <time>2007-07-19T16:55:30Z</time>
      </trkpt>
      <trkpt lat="44.50262" lon="6.02375">
        <ele>728.3</ele>
        <time>2007-07-19T16:55:30Z</time>
      </trkpt>
      <trkpt lat="44.50279" lon="6.02389">
        <ele>729.1</ele>
        <time>2007-07-19T16:55:30Z</time>
      </trkpt>
      <trkpt lat="44.50297" lon="6.02405">
        <ele>728.9</ele>
        <time>2007-07-19T16:55:30Z</time>
      </trkpt>
      <trkpt lat="44.50314" lon="6.02416">
        <ele>730</ele>
        <time>2007-07-19T16:55:30Z</time>
      </trkpt>
      <trkpt lat="44.50332" lon="6.0243">
        <ele>729.9</ele>
        <time>2007-07-19T16:55:30Z</time>
      </trkpt>
      <trkpt lat="44.50349" lon="6.02447">
        <ele>731.1</ele>
        <time>2007-07-19T16:55:30Z</time>
      </trkpt>
      <trkpt lat="44.50367" lon="6.02463">
        <ele>732.7</ele>
        <time>2007-07-19T16:55:30Z</time>
      </trkpt>
      <trkpt lat="44.50384" lon="6.02477">
        <ele>733.9</ele>
        <time>2007-07-19T16:55:30Z</time>
      </trkpt>
      <trkpt lat="44.50404" lon="6.02488">
        <ele>736</ele>
        <time>2007-07-19T16:55:30Z</time>
      </trkpt>
      <trkpt lat="44.50424" lon="6.02502">
        <ele>736.8</ele>
        <time>2007-07-19T16:55:30Z</time>
      </trkpt>
      <trkpt lat="44.50446" lon="6.02516">
        <ele>737.8</ele>
        <time>2007-07-19T16:55:30Z</time>
      </trkpt>
      <trkpt lat="44.50466" lon="6.0253">
        <ele>737</ele>
        <time>2007-07-19T16:55:30Z</time>
      </trkpt>
      <trkpt lat="44.50486" lon="6.0254">
        <ele>736.8</ele>
        <time>2007-07-19T16:55:30Z</time>
      </trkpt>
      <trkpt lat="44.50505" lon="6.02554">
        <ele>736.4</ele>
        <time>2007-07-19T16:55:30Z</time>
      </trkpt>
      <trkpt lat="44.50532" lon="6.02559">
        <ele>736.6</ele>
        <time>2007-07-19T16:55:30Z</time>
      </trkpt>
      <trkpt lat="44.50557" lon="6.02564">
        <ele>738.3</ele>
        <time>2007-07-19T16:55:30Z</time>
      </trkpt>
      <trkpt lat="44.50574" lon="6.02581">
        <ele>737</ele>
        <time>2007-07-19T16:55:30Z</time>
      </trkpt>
      <trkpt lat="44.50592" lon="6.02598">
        <ele>738.2</ele>
        <time>2007-07-19T16:55:30Z</time>
      </trkpt>
      <trkpt lat="44.50614" lon="6.02606">
        <ele>739</ele>
        <time>2007-07-19T16:55:30Z</time>
      </trkpt>
      <trkpt lat="44.50638" lon="6.02613">
        <ele>740.6</ele>
        <time>2007-07-19T16:55:30Z</time>
      </trkpt>
      <trkpt lat="44.50658" lon="6.02624">
        <ele>740.8</ele>
        <time>2007-07-19T16:55:30Z</time>
      </trkpt>
      <trkpt lat="44.50673" lon="6.0265">
        <ele>738.7</ele>
        <time>2007-07-19T16:55:30Z</time>
      </trkpt>
      <trkpt lat="44.50686" lon="6.0267">
        <ele>738</ele>
        <time>2007-07-19T16:55:30Z</time>
      </trkpt>
      <trkpt lat="44.50701" lon="6.02699">
        <ele>738.2</ele>
        <time>2007-07-19T16:55:30Z</time>
      </trkpt>
      <trkpt lat="44.50718" lon="6.02722">
        <ele>738.8</ele>
        <time>2007-07-19T16:55:30Z</time>
      </trkpt>
      <trkpt lat="44.50733" lon="6.02749">
        <ele>739.6</ele>
        <time>2007-07-19T16:55:30Z</time>
      </trkpt>
      <trkpt lat="44.50748" lon="6.02768">
        <ele>740.4</ele>
        <time>2007-07-19T16:55:30Z</time>
      </trkpt>
      <trkpt lat="44.50763" lon="6.02788">
        <ele>740.6</ele>
        <time>2007-07-19T16:55:30Z</time>
      </trkpt>
      <trkpt lat="44.50778" lon="6.02814">
        <ele>739.1</ele>
        <time>2007-07-19T16:55:30Z</time>
      </trkpt>
      <trkpt lat="44.50793" lon="6.02837">
        <ele>737.9</ele>
        <time>2007-07-19T16:55:30Z</time>
      </trkpt>
      <trkpt lat="44.50812" lon="6.02864">
        <ele>734.9</ele>
        <time>2007-07-19T16:55:30Z</time>
      </trkpt>
      <trkpt lat="44.50827" lon="6.02884">
        <ele>733.1</ele>
        <time>2007-07-19T16:55:30Z</time>
      </trkpt>
      <trkpt lat="44.50845" lon="6.02901">
        <ele>731.1</ele>
        <time>2007-07-19T16:55:30Z</time>
      </trkpt>
      <trkpt lat="44.50862" lon="6.02924">
        <ele>729.7</ele>
        <time>2007-07-19T16:55:30Z</time>
      </trkpt>
      <trkpt lat="44.50875" lon="6.0295">
        <ele>727.7</ele>
        <time>2007-07-19T16:55:30Z</time>
      </trkpt>
      <trkpt lat="44.50885" lon="6.02979">
        <ele>726.3</ele>
        <time>2007-07-19T16:55:30Z</time>
      </trkpt>
      <trkpt lat="44.50895" lon="6.03005">
        <ele>726.6</ele>
        <time>2007-07-19T16:55:30Z</time>
      </trkpt>
      <trkpt lat="44.50906" lon="6.0303">
        <ele>726</ele>
        <time>2007-07-19T16:55:30Z</time>
      </trkpt>
      <trkpt lat="44.50914" lon="6.03059">
        <ele>725.9</ele>
        <time>2007-07-19T16:55:30Z</time>
      </trkpt>
      <trkpt lat="44.50924" lon="6.03085">
        <ele>725.2</ele>
        <time>2007-07-19T16:55:30Z</time>
      </trkpt>
      <trkpt lat="44.50941" lon="6.03108">
        <ele>725</ele>
        <time>2007-07-19T16:55:30Z</time>
      </trkpt>
      <trkpt lat="44.50961" lon="6.03125">
        <ele>725.6</ele>
        <time>2007-07-19T16:55:30Z</time>
      </trkpt>
      <trkpt lat="44.50981" lon="6.03139">
        <ele>726.6</ele>
        <time>2007-07-19T16:55:30Z</time>
      </trkpt>
      <trkpt lat="44.51001" lon="6.0315">
        <ele>728</ele>
        <time>2007-07-19T16:55:30Z</time>
      </trkpt>
      <trkpt lat="44.51018" lon="6.03167">
        <ele>728.7</ele>
        <time>2007-07-19T16:55:30Z</time>
      </trkpt>
      <trkpt lat="44.51033" lon="6.03184">
        <ele>729.9</ele>
        <time>2007-07-19T16:55:30Z</time>
      </trkpt>
      <trkpt lat="44.51051" lon="6.032">
        <ele>731</ele>
        <time>2007-07-19T16:55:30Z</time>
      </trkpt>
      <trkpt lat="44.51071" lon="6.03211">
        <ele>732.7</ele>
        <time>2007-07-19T16:55:30Z</time>
      </trkpt>
      <trkpt lat="44.51091" lon="6.03225">
        <ele>734.5</ele>
        <time>2007-07-19T16:55:30Z</time>
      </trkpt>
      <trkpt lat="44.51103" lon="6.03245">
        <ele>734.3</ele>
        <time>2007-07-19T16:55:30Z</time>
      </trkpt>
      <trkpt lat="44.51121" lon="6.03265">
        <ele>733.8</ele>
        <time>2007-07-19T16:55:30Z</time>
      </trkpt>
      <trkpt lat="44.51143" lon="6.03279">
        <ele>734.2</ele>
        <time>2007-07-19T16:55:30Z</time>
      </trkpt>
      <trkpt lat="44.51165" lon="6.03287">
        <ele>734.6</ele>
        <time>2007-07-19T16:55:30Z</time>
      </trkpt>
      <trkpt lat="44.51185" lon="6.03297">
        <ele>734.3</ele>
        <time>2007-07-19T16:55:30Z</time>
      </trkpt>
      <trkpt lat="44.51202" lon="6.03311">
        <ele>732.6</ele>
        <time>2007-07-19T16:55:30Z</time>
      </trkpt>
      <trkpt lat="44.5122" lon="6.03328">
        <ele>730.8</ele>
        <time>2007-07-19T16:55:30Z</time>
      </trkpt>
      <trkpt lat="44.51242" lon="6.03336">
        <ele>729</ele>
        <time>2007-07-19T16:55:30Z</time>
      </trkpt>
      <trkpt lat="44.51264" lon="6.03343">
        <ele>727.5</ele>
        <time>2007-07-19T16:55:30Z</time>
      </trkpt>
      <trkpt lat="44.51284" lon="6.03354">
        <ele>725.5</ele>
        <time>2007-07-19T16:55:30Z</time>
      </trkpt>
      <trkpt lat="44.51304" lon="6.03368">
        <ele>723.3</ele>
        <time>2007-07-19T16:55:30Z</time>
      </trkpt>
      <trkpt lat="44.51326" lon="6.03379">
        <ele>722.1</ele>
        <time>2007-07-19T16:55:30Z</time>
      </trkpt>
      <trkpt lat="44.51346" lon="6.0339">
        <ele>720.9</ele>
        <time>2007-07-19T16:55:30Z</time>
      </trkpt>
      <trkpt lat="44.51364" lon="6.03407">
        <ele>719.7</ele>
        <time>2007-07-19T16:55:30Z</time>
      </trkpt>
      <trkpt lat="44.51381" lon="6.0343">
        <ele>718.4</ele>
        <time>2007-07-19T16:55:30Z</time>
      </trkpt>
      <trkpt lat="44.51398" lon="6.03447">
        <ele>717.8</ele>
        <time>2007-07-19T16:55:30Z</time>
      </trkpt>
      <trkpt lat="44.51418" lon="6.03464">
        <ele>717.3</ele>
        <time>2007-07-19T16:55:30Z</time>
      </trkpt>
      <trkpt lat="44.51442" lon="6.03475">
        <ele>717.7</ele>
        <time>2007-07-19T16:55:30Z</time>
      </trkpt>
      <trkpt lat="44.51467" lon="6.03486">
        <ele>716.6</ele>
        <time>2007-07-19T16:55:30Z</time>
      </trkpt>
      <trkpt lat="44.51491" lon="6.0349">
        <ele>716.4</ele>
        <time>2007-07-19T16:55:30Z</time>
      </trkpt>
      <trkpt lat="44.51516" lon="6.03495">
        <ele>716.3</ele>
        <time>2007-07-19T16:55:30Z</time>
      </trkpt>
      <trkpt lat="44.5154" lon="6.035">
        <ele>716</ele>
        <time>2007-07-19T16:55:30Z</time>
      </trkpt>
      <trkpt lat="44.51565" lon="6.03508">
        <ele>715.4</ele>
        <time>2007-07-19T16:55:30Z</time>
      </trkpt>
      <trkpt lat="44.5159" lon="6.03513">
        <ele>715.3</ele>
        <time>2007-07-19T16:55:30Z</time>
      </trkpt>
      <trkpt lat="44.51614" lon="6.03524">
        <ele>715.4</ele>
        <time>2007-07-19T16:55:30Z</time>
      </trkpt>
      <trkpt lat="44.51638" lon="6.03532">
        <ele>715.4</ele>
        <time>2007-07-19T16:55:30Z</time>
      </trkpt>
      <trkpt lat="44.51663" lon="6.03536">
        <ele>715.7</ele>
        <time>2007-07-19T16:55:30Z</time>
      </trkpt>
      <trkpt lat="44.51683" lon="6.03547">
        <ele>715</ele>
        <time>2007-07-19T16:55:30Z</time>
      </trkpt>
      <trkpt lat="44.51707" lon="6.03555">
        <ele>715</ele>
        <time>2007-07-19T16:55:30Z</time>
      </trkpt>
      <trkpt lat="44.51732" lon="6.0356">
        <ele>715.2</ele>
        <time>2007-07-19T16:55:30Z</time>
      </trkpt>
      <trkpt lat="44.51759" lon="6.03562">
        <ele>715.8</ele>
        <time>2007-07-19T16:55:30Z</time>
      </trkpt>
      <trkpt lat="44.51784" lon="6.03557">
        <ele>716.2</ele>
        <time>2007-07-19T16:55:30Z</time>
      </trkpt>
      <trkpt lat="44.51802" lon="6.03545">
        <ele>717.3</ele>
        <time>2007-07-19T16:55:30Z</time>
      </trkpt>
      <trkpt lat="44.51829" lon="6.0355">
        <ele>717.5</ele>
        <time>2007-07-19T16:55:30Z</time>
      </trkpt>
      <trkpt lat="44.51847" lon="6.03564">
        <ele>717.2</ele>
        <time>2007-07-19T16:55:30Z</time>
      </trkpt>
      <trkpt lat="44.51864" lon="6.03578">
        <ele>717.3</ele>
        <time>2007-07-19T16:55:30Z</time>
      </trkpt>
      <trkpt lat="44.51884" lon="6.03592">
        <ele>717.3</ele>
        <time>2007-07-19T16:55:30Z</time>
      </trkpt>
      <trkpt lat="44.51906" lon="6.036">
        <ele>717.2</ele>
        <time>2007-07-19T16:55:30Z</time>
      </trkpt>
      <trkpt lat="44.51924" lon="6.03607">
        <ele>717.2</ele>
        <time>2007-07-19T16:55:30Z</time>
      </trkpt>
      <trkpt lat="44.51944" lon="6.03618">
        <ele>716.5</ele>
        <time>2007-07-19T16:55:30Z</time>
      </trkpt>
      <trkpt lat="44.51971" lon="6.03623">
        <ele>717.1</ele>
        <time>2007-07-19T16:55:30Z</time>
      </trkpt>
      <trkpt lat="44.51991" lon="6.03627">
        <ele>716.9</ele>
        <time>2007-07-19T16:55:30Z</time>
      </trkpt>
      <trkpt lat="44.52018" lon="6.03632">
        <ele>717.1</ele>
        <time>2007-07-19T16:55:30Z</time>
      </trkpt>
      <trkpt lat="44.52047" lon="6.03637">
        <ele>717.8</ele>
        <time>2007-07-19T16:55:30Z</time>
      </trkpt>
      <trkpt lat="44.52071" lon="6.03642">
        <ele>717.8</ele>
        <time>2007-07-19T16:55:30Z</time>
      </trkpt>
      <trkpt lat="44.52091" lon="6.03653">
        <ele>717.8</ele>
        <time>2007-07-19T16:55:30Z</time>
      </trkpt>
      <trkpt lat="44.52113" lon="6.03663">
        <ele>717.5</ele>
        <time>2007-07-19T16:55:30Z</time>
      </trkpt>
      <trkpt lat="44.52133" lon="6.03681">
        <ele>717.8</ele>
        <time>2007-07-19T16:55:30Z</time>
      </trkpt>
      <trkpt lat="44.52151" lon="6.03694">
        <ele>717.9</ele>
        <time>2007-07-19T16:55:30Z</time>
      </trkpt>
      <trkpt lat="44.52175" lon="6.03708">
        <ele>719.2</ele>
        <time>2007-07-19T16:55:30Z</time>
      </trkpt>
      <trkpt lat="44.52199" lon="6.03719">
        <ele>719.4</ele>
        <time>2007-07-19T16:55:30Z</time>
      </trkpt>
      <trkpt lat="44.52217" lon="6.03733">
        <ele>719.9</ele>
        <time>2007-07-19T16:55:30Z</time>
      </trkpt>
      <trkpt lat="44.52237" lon="6.03744">
        <ele>720.4</ele>
        <time>2007-07-19T16:55:30Z</time>
      </trkpt>
      <trkpt lat="44.52254" lon="6.03758">
        <ele>720.9</ele>
        <time>2007-07-19T16:55:30Z</time>
      </trkpt>
      <trkpt lat="44.52274" lon="6.03775">
        <ele>721.7</ele>
        <time>2007-07-19T16:55:30Z</time>
      </trkpt>
      <trkpt lat="44.52294" lon="6.03789">
        <ele>722</ele>
        <time>2007-07-19T16:55:30Z</time>
      </trkpt>
      <trkpt lat="44.52318" lon="6.038">
        <ele>723</ele>
        <time>2007-07-19T16:55:30Z</time>
      </trkpt>
      <trkpt lat="44.5234" lon="6.03807">
        <ele>724.1</ele>
        <time>2007-07-19T16:55:30Z</time>
      </trkpt>
      <trkpt lat="44.52365" lon="6.03815">
        <ele>724.4</ele>
        <time>2007-07-19T16:55:30Z</time>
      </trkpt>
      <trkpt lat="44.52389" lon="6.0383">
        <ele>724.1</ele>
        <time>2007-07-19T16:55:30Z</time>
      </trkpt>
      <trkpt lat="44.52407" lon="6.03843">
        <ele>723.8</ele>
        <time>2007-07-19T16:55:30Z</time>
      </trkpt>
      <trkpt lat="44.52426" lon="6.03857">
        <ele>723.6</ele>
        <time>2007-07-19T16:55:30Z</time>
      </trkpt>
      <trkpt lat="44.52444" lon="6.03871">
        <ele>723.3</ele>
        <time>2007-07-19T16:55:30Z</time>
      </trkpt>
      <trkpt lat="44.52466" lon="6.03885">
        <ele>723.6</ele>
        <time>2007-07-19T16:55:30Z</time>
      </trkpt>
      <trkpt lat="44.52484" lon="6.03899">
        <ele>723.4</ele>
        <time>2007-07-19T16:55:30Z</time>
      </trkpt>
      <trkpt lat="44.52503" lon="6.03922">
        <ele>723.9</ele>
        <time>2007-07-19T16:55:30Z</time>
      </trkpt>
      <trkpt lat="44.52516" lon="6.03945">
        <ele>723.6</ele>
        <time>2007-07-19T16:55:30Z</time>
      </trkpt>
      <trkpt lat="44.52533" lon="6.03959">
        <ele>723.8</ele>
        <time>2007-07-19T16:55:30Z</time>
      </trkpt>
      <trkpt lat="44.52551" lon="6.03972">
        <ele>724.7</ele>
        <time>2007-07-19T16:55:30Z</time>
      </trkpt>
      <trkpt lat="44.52571" lon="6.03989">
        <ele>724.7</ele>
        <time>2007-07-19T16:55:30Z</time>
      </trkpt>
      <trkpt lat="44.52588" lon="6.04003">
        <ele>724.9</ele>
        <time>2007-07-19T16:55:30Z</time>
      </trkpt>
      <trkpt lat="44.52601" lon="6.04026">
        <ele>725.3</ele>
        <time>2007-07-19T16:55:30Z</time>
      </trkpt>
      <trkpt lat="44.52609" lon="6.04052">
        <ele>725</ele>
        <time>2007-07-19T16:55:30Z</time>
      </trkpt>
      <trkpt lat="44.52634" lon="6.04056">
        <ele>726.6</ele>
        <time>2007-07-19T16:55:30Z</time>
      </trkpt>
      <trkpt lat="44.52656" lon="6.04052">
        <ele>726.3</ele>
        <time>2007-07-19T16:55:30Z</time>
      </trkpt>
      <trkpt lat="44.52679" lon="6.04047">
        <ele>726.4</ele>
        <time>2007-07-19T16:55:30Z</time>
      </trkpt>
      <trkpt lat="44.52697" lon="6.04035">
        <ele>727.1</ele>
        <time>2007-07-19T16:55:30Z</time>
      </trkpt>
      <trkpt lat="44.52711" lon="6.04018">
        <ele>727.7</ele>
        <time>2007-07-19T16:55:30Z</time>
      </trkpt>
      <trkpt lat="44.52719" lon="6.0399">
        <ele>728.3</ele>
        <time>2007-07-19T16:55:30Z</time>
      </trkpt>
      <trkpt lat="44.52729" lon="6.03962">
        <ele>729.2</ele>
        <time>2007-07-19T16:55:30Z</time>
      </trkpt>
      <trkpt lat="44.52739" lon="6.03928">
        <ele>730.2</ele>
        <time>2007-07-19T16:55:30Z</time>
      </trkpt>
      <trkpt lat="44.52749" lon="6.03904">
        <ele>731.4</ele>
        <time>2007-07-19T16:55:30Z</time>
      </trkpt>
      <trkpt lat="44.52759" lon="6.03879">
        <ele>733.6</ele>
        <time>2007-07-19T16:55:30Z</time>
      </trkpt>
      <trkpt lat="44.52771" lon="6.03855">
        <ele>736.4</ele>
        <time>2007-07-19T16:55:30Z</time>
      </trkpt>
      <trkpt lat="44.52785" lon="6.03834">
        <ele>739.4</ele>
        <time>2007-07-19T16:55:30Z</time>
      </trkpt>
      <trkpt lat="44.52795" lon="6.03806">
        <ele>744.4</ele>
        <time>2007-07-19T16:55:30Z</time>
      </trkpt>
      <trkpt lat="44.52807" lon="6.03785">
        <ele>748.4</ele>
        <time>2007-07-19T16:55:30Z</time>
      </trkpt>
      <trkpt lat="44.52823" lon="6.0377">
        <ele>752.1</ele>
        <time>2007-07-19T16:55:30Z</time>
      </trkpt>
      <trkpt lat="44.52842" lon="6.03759">
        <ele>756</ele>
        <time>2007-07-19T16:55:30Z</time>
      </trkpt>
      <trkpt lat="44.52856" lon="6.03741">
        <ele>761.6</ele>
        <time>2007-07-19T16:55:30Z</time>
      </trkpt>
      <trkpt lat="44.52868" lon="6.03719">
        <ele>769.3</ele>
        <time>2007-07-19T16:55:30Z</time>
      </trkpt>
      <trkpt lat="44.52871" lon="6.03685">
        <ele>774.3</ele>
        <time>2007-07-19T16:55:30Z</time>
      </trkpt>
      <trkpt lat="44.52881" lon="6.03661">
        <ele>776.3</ele>
        <time>2007-07-19T16:55:30Z</time>
      </trkpt>
      <trkpt lat="44.52893" lon="6.03636">
        <ele>778.8</ele>
        <time>2007-07-19T16:55:30Z</time>
      </trkpt>
      <trkpt lat="44.52905" lon="6.03615">
        <ele>780.6</ele>
        <time>2007-07-19T16:55:30Z</time>
      </trkpt>
      <trkpt lat="44.52902" lon="6.03583">
        <ele>780.9</ele>
        <time>2007-07-19T16:55:30Z</time>
      </trkpt>
      <trkpt lat="44.52896" lon="6.03551">
        <ele>783.9</ele>
        <time>2007-07-19T16:55:30Z</time>
      </trkpt>
      <trkpt lat="44.52888" lon="6.03526">
        <ele>786.2</ele>
        <time>2007-07-19T16:55:30Z</time>
      </trkpt>
      <trkpt lat="44.5288" lon="6.03494">
        <ele>789</ele>
        <time>2007-07-19T16:55:30Z</time>
      </trkpt>
      <trkpt lat="44.52879" lon="6.03459">
        <ele>791.3</ele>
        <time>2007-07-19T16:55:30Z</time>
      </trkpt>
      <trkpt lat="44.52889" lon="6.03431">
        <ele>792</ele>
        <time>2007-07-19T16:55:30Z</time>
      </trkpt>
      <trkpt lat="44.52905" lon="6.0341">
        <ele>793.3</ele>
        <time>2007-07-19T16:55:30Z</time>
      </trkpt>
      <trkpt lat="44.52924" lon="6.03396">
        <ele>795.1</ele>
        <time>2007-07-19T16:55:30Z</time>
      </trkpt>
      <trkpt lat="44.52949" lon="6.03391">
        <ele>799.1</ele>
        <time>2007-07-19T16:55:30Z</time>
      </trkpt>
      <trkpt lat="44.52973" lon="6.03387">
        <ele>801</ele>
        <time>2007-07-19T16:55:30Z</time>
      </trkpt>
      <trkpt lat="44.52998" lon="6.03385">
        <ele>802.1</ele>
        <time>2007-07-19T16:55:30Z</time>
      </trkpt>
      <trkpt lat="44.53025" lon="6.03387">
        <ele>804.7</ele>
        <time>2007-07-19T16:55:30Z</time>
      </trkpt>
      <trkpt lat="44.53052" lon="6.03389">
        <ele>808.5</ele>
        <time>2007-07-19T16:55:30Z</time>
      </trkpt>
      <trkpt lat="44.53077" lon="6.03393">
        <ele>811.5</ele>
        <time>2007-07-19T16:55:30Z</time>
      </trkpt>
      <trkpt lat="44.53101" lon="6.03398">
        <ele>813.6</ele>
        <time>2007-07-19T16:55:30Z</time>
      </trkpt>
      <trkpt lat="44.53122" lon="6.03387">
        <ele>816.6</ele>
        <time>2007-07-19T16:55:30Z</time>
      </trkpt>
      <trkpt lat="44.53141" lon="6.03369">
        <ele>820.2</ele>
        <time>2007-07-19T16:55:30Z</time>
      </trkpt>
      <trkpt lat="44.53163" lon="6.03377">
        <ele>825.6</ele>
        <time>2007-07-19T16:55:30Z</time>
      </trkpt>
      <trkpt lat="44.53185" lon="6.03388">
        <ele>828.3</ele>
        <time>2007-07-19T16:55:30Z</time>
      </trkpt>
      <trkpt lat="44.53207" lon="6.03402">
        <ele>828.7</ele>
        <time>2007-07-19T16:55:30Z</time>
      </trkpt>
      <trkpt lat="44.53227" lon="6.03413">
        <ele>830.5</ele>
        <time>2007-07-19T16:55:30Z</time>
      </trkpt>
      <trkpt lat="44.53247" lon="6.03423">
        <ele>829.3</ele>
        <time>2007-07-19T16:55:30Z</time>
      </trkpt>
      <trkpt lat="44.53269" lon="6.03434">
        <ele>830.5</ele>
        <time>2007-07-19T16:55:30Z</time>
      </trkpt>
      <trkpt lat="44.53287" lon="6.03448">
        <ele>831.9</ele>
        <time>2007-07-19T16:55:30Z</time>
      </trkpt>
      <trkpt lat="44.53309" lon="6.03462">
        <ele>832.7</ele>
        <time>2007-07-19T16:55:30Z</time>
      </trkpt>
      <trkpt lat="44.53331" lon="6.03473">
        <ele>836.3</ele>
        <time>2007-07-19T16:55:30Z</time>
      </trkpt>
      <trkpt lat="44.53348" lon="6.03487">
        <ele>835.2</ele>
        <time>2007-07-19T16:55:30Z</time>
      </trkpt>
      <trkpt lat="44.53366" lon="6.03497">
        <ele>836.6</ele>
        <time>2007-07-19T16:55:30Z</time>
      </trkpt>
      <trkpt lat="44.53393" lon="6.03505">
        <ele>841.2</ele>
        <time>2007-07-19T16:55:30Z</time>
      </trkpt>
      <trkpt lat="44.53415" lon="6.03507">
        <ele>844.9</ele>
        <time>2007-07-19T16:55:30Z</time>
      </trkpt>
      <trkpt lat="44.5344" lon="6.03512">
        <ele>849.4</ele>
        <time>2007-07-19T16:55:30Z</time>
      </trkpt>
      <trkpt lat="44.53464" lon="6.03516">
        <ele>852.3</ele>
        <time>2007-07-19T16:55:30Z</time>
      </trkpt>
      <trkpt lat="44.53487" lon="6.03524">
        <ele>854.7</ele>
        <time>2007-07-19T16:55:30Z</time>
      </trkpt>
      <trkpt lat="44.53509" lon="6.03532">
        <ele>856.1</ele>
        <time>2007-07-19T16:55:30Z</time>
      </trkpt>
      <trkpt lat="44.53538" lon="6.03537">
        <ele>860.4</ele>
        <time>2007-07-19T16:55:30Z</time>
      </trkpt>
      <trkpt lat="44.53565" lon="6.03539">
        <ele>865.7</ele>
        <time>2007-07-19T16:55:30Z</time>
      </trkpt>
      <trkpt lat="44.53594" lon="6.03541">
        <ele>871.1</ele>
        <time>2007-07-19T16:55:30Z</time>
      </trkpt>
      <trkpt lat="44.53621" lon="6.03542">
        <ele>874.8</ele>
        <time>2007-07-19T16:55:30Z</time>
      </trkpt>
      <trkpt lat="44.53648" lon="6.03544">
        <ele>875.5</ele>
        <time>2007-07-19T16:55:30Z</time>
      </trkpt>
      <trkpt lat="44.5366" lon="6.0352">
        <ele>880.7</ele>
        <time>2007-07-19T16:55:30Z</time>
      </trkpt>
      <trkpt lat="44.53661" lon="6.03482">
        <ele>882.4</ele>
        <time>2007-07-19T16:55:30Z</time>
      </trkpt>
      <trkpt lat="44.53653" lon="6.03457">
        <ele>882.4</ele>
        <time>2007-07-19T16:55:30Z</time>
      </trkpt>
      <trkpt lat="44.53661" lon="6.03435">
        <ele>880</ele>
        <time>2007-07-19T16:55:30Z</time>
      </trkpt>
      <trkpt lat="44.53677" lon="6.0342">
        <ele>884.1</ele>
        <time>2007-07-19T16:55:30Z</time>
      </trkpt>
      <trkpt lat="44.53697" lon="6.03412">
        <ele>889.5</ele>
        <time>2007-07-19T16:55:30Z</time>
      </trkpt>
      <trkpt lat="44.53716" lon="6.03401">
        <ele>890.2</ele>
        <time>2007-07-19T16:55:30Z</time>
      </trkpt>
      <trkpt lat="44.53736" lon="6.03393">
        <ele>892.8</ele>
        <time>2007-07-19T16:55:30Z</time>
      </trkpt>
      <trkpt lat="44.53753" lon="6.03378">
        <ele>895.6</ele>
        <time>2007-07-19T16:55:30Z</time>
      </trkpt>
      <trkpt lat="44.53769" lon="6.03363">
        <ele>897.8</ele>
        <time>2007-07-19T16:55:30Z</time>
      </trkpt>
      <trkpt lat="44.53785" lon="6.03352">
        <ele>900</ele>
        <time>2007-07-19T16:55:30Z</time>
      </trkpt>
      <trkpt lat="44.53808" lon="6.03347">
        <ele>902.1</ele>
        <time>2007-07-19T16:55:30Z</time>
      </trkpt>
      <trkpt lat="44.53822" lon="6.03329">
        <ele>901.9</ele>
        <time>2007-07-19T16:55:30Z</time>
      </trkpt>
      <trkpt lat="44.53823" lon="6.03291">
        <ele>905.7</ele>
        <time>2007-07-19T16:55:30Z</time>
      </trkpt>
      <trkpt lat="44.53812" lon="6.03269">
        <ele>907.9</ele>
        <time>2007-07-19T16:55:30Z</time>
      </trkpt>
      <trkpt lat="44.53797" lon="6.03252">
        <ele>910.1</ele>
        <time>2007-07-19T16:55:30Z</time>
      </trkpt>
      <trkpt lat="44.5378" lon="6.03238">
        <ele>913.1</ele>
        <time>2007-07-19T16:55:30Z</time>
      </trkpt>
      <trkpt lat="44.53765" lon="6.03222">
        <ele>915.1</ele>
        <time>2007-07-19T16:55:30Z</time>
      </trkpt>
      <trkpt lat="44.53772" lon="6.03197">
        <ele>920.8</ele>
        <time>2007-07-19T16:55:30Z</time>
      </trkpt>
      <trkpt lat="44.53793" lon="6.03189">
        <ele>921.8</ele>
        <time>2007-07-19T16:55:30Z</time>
      </trkpt>
      <trkpt lat="44.53809" lon="6.03174">
        <ele>924.1</ele>
        <time>2007-07-19T16:55:30Z</time>
      </trkpt>
      <trkpt lat="44.53823" lon="6.03156">
        <ele>926.6</ele>
        <time>2007-07-19T16:55:30Z</time>
      </trkpt>
      <trkpt lat="44.53831" lon="6.03128">
        <ele>928.6</ele>
        <time>2007-07-19T16:55:30Z</time>
      </trkpt>
      <trkpt lat="44.53836" lon="6.03094">
        <ele>930.7</ele>
        <time>2007-07-19T16:55:30Z</time>
      </trkpt>
      <trkpt lat="44.53842" lon="6.03063">
        <ele>933.5</ele>
        <time>2007-07-19T16:55:30Z</time>
      </trkpt>
      <trkpt lat="44.53854" lon="6.03035">
        <ele>937.5</ele>
        <time>2007-07-19T16:55:30Z</time>
      </trkpt>
      <trkpt lat="44.53868" lon="6.03017">
        <ele>940</ele>
        <time>2007-07-19T16:55:30Z</time>
      </trkpt>
      <trkpt lat="44.53887" lon="6.02997">
        <ele>942.1</ele>
        <time>2007-07-19T16:55:30Z</time>
      </trkpt>
      <trkpt lat="44.53901" lon="6.02979">
        <ele>942.5</ele>
        <time>2007-07-19T16:55:30Z</time>
      </trkpt>
      <trkpt lat="44.53909" lon="6.02948">
        <ele>945.1</ele>
        <time>2007-07-19T16:55:30Z</time>
      </trkpt>
      <trkpt lat="44.53914" lon="6.0292">
        <ele>947.6</ele>
        <time>2007-07-19T16:55:30Z</time>
      </trkpt>
      <trkpt lat="44.53918" lon="6.02885">
        <ele>949.4</ele>
        <time>2007-07-19T16:55:30Z</time>
      </trkpt>
      <trkpt lat="44.53921" lon="6.02851">
        <ele>951.4</ele>
        <time>2007-07-19T16:55:30Z</time>
      </trkpt>
      <trkpt lat="44.53922" lon="6.0282">
        <ele>951.6</ele>
        <time>2007-07-19T16:55:30Z</time>
      </trkpt>
      <trkpt lat="44.53926" lon="6.02782">
        <ele>951.7</ele>
        <time>2007-07-19T16:55:30Z</time>
      </trkpt>
      <trkpt lat="44.53934" lon="6.02748">
        <ele>953.7</ele>
        <time>2007-07-19T16:55:30Z</time>
      </trkpt>
      <trkpt lat="44.53943" lon="6.02723">
        <ele>955.6</ele>
        <time>2007-07-19T16:55:30Z</time>
      </trkpt>
      <trkpt lat="44.53958" lon="6.02702">
        <ele>956.4</ele>
        <time>2007-07-19T16:55:30Z</time>
      </trkpt>
      <trkpt lat="44.53972" lon="6.02684">
        <ele>957.6</ele>
        <time>2007-07-19T16:55:30Z</time>
      </trkpt>
      <trkpt lat="44.53988" lon="6.0267">
        <ele>959.9</ele>
        <time>2007-07-19T16:55:30Z</time>
      </trkpt>
      <trkpt lat="44.54006" lon="6.02655">
        <ele>962.9</ele>
        <time>2007-07-19T16:55:30Z</time>
      </trkpt>
      <trkpt lat="44.54023" lon="6.02634">
        <ele>965.8</ele>
        <time>2007-07-19T16:55:30Z</time>
      </trkpt>
      <trkpt lat="44.54043" lon="6.02629">
        <ele>967.8</ele>
        <time>2007-07-19T16:55:30Z</time>
      </trkpt>
      <trkpt lat="44.54061" lon="6.02631">
        <ele>967.5</ele>
        <time>2007-07-19T16:55:30Z</time>
      </trkpt>
      <trkpt lat="44.54079" lon="6.02625">
        <ele>967.8</ele>
        <time>2007-07-19T16:55:30Z</time>
      </trkpt>
      <trkpt lat="44.541" lon="6.02614">
        <ele>967.7</ele>
        <time>2007-07-19T16:55:30Z</time>
      </trkpt>
      <trkpt lat="44.54116" lon="6.026">
        <ele>968.7</ele>
        <time>2007-07-19T16:55:30Z</time>
      </trkpt>
      <trkpt lat="44.54133" lon="6.02572">
        <ele>972.6</ele>
        <time>2007-07-19T16:55:30Z</time>
      </trkpt>
      <trkpt lat="44.54145" lon="6.02548">
        <ele>974.7</ele>
        <time>2007-07-19T16:55:30Z</time>
      </trkpt>
      <trkpt lat="44.54166" lon="6.02524">
        <ele>975.7</ele>
        <time>2007-07-19T16:55:30Z</time>
      </trkpt>
      <trkpt lat="44.54185" lon="6.02506">
        <ele>977.5</ele>
        <time>2007-07-19T16:55:30Z</time>
      </trkpt>
      <trkpt lat="44.54203" lon="6.02495">
        <ele>977.9</ele>
        <time>2007-07-19T16:55:30Z</time>
      </trkpt>
      <trkpt lat="44.54226" lon="6.02481">
        <ele>978.1</ele>
        <time>2007-07-19T16:55:30Z</time>
      </trkpt>
      <trkpt lat="44.54245" lon="6.02466">
        <ele>979.3</ele>
        <time>2007-07-19T16:55:30Z</time>
      </trkpt>
      <trkpt lat="44.54265" lon="6.02452">
        <ele>978.8</ele>
        <time>2007-07-19T16:55:30Z</time>
      </trkpt>
      <trkpt lat="44.54284" lon="6.02444">
        <ele>977.1</ele>
        <time>2007-07-19T16:55:30Z</time>
      </trkpt>
      <trkpt lat="44.54298" lon="6.02423">
        <ele>977.2</ele>
        <time>2007-07-19T16:55:30Z</time>
      </trkpt>
      <trkpt lat="44.54301" lon="6.02394">
        <ele>979.8</ele>
        <time>2007-07-19T16:55:30Z</time>
      </trkpt>
      <trkpt lat="44.54317" lon="6.02374">
        <ele>980.2</ele>
        <time>2007-07-19T16:55:30Z</time>
      </trkpt>
      <trkpt lat="44.54336" lon="6.02356">
        <ele>981.6</ele>
        <time>2007-07-19T16:55:30Z</time>
      </trkpt>
      <trkpt lat="44.54354" lon="6.02344">
        <ele>982.8</ele>
        <time>2007-07-19T16:55:30Z</time>
      </trkpt>
      <trkpt lat="44.54373" lon="6.02333">
        <ele>984</ele>
        <time>2007-07-19T16:55:30Z</time>
      </trkpt>
      <trkpt lat="44.54387" lon="6.02309">
        <ele>986.6</ele>
        <time>2007-07-19T16:55:30Z</time>
      </trkpt>
      <trkpt lat="44.54402" lon="6.02285">
        <ele>990</ele>
        <time>2007-07-19T16:55:30Z</time>
      </trkpt>
      <trkpt lat="44.54413" lon="6.02263">
        <ele>993.1</ele>
        <time>2007-07-19T16:55:30Z</time>
      </trkpt>
      <trkpt lat="44.54417" lon="6.02238">
        <ele>996.8</ele>
        <time>2007-07-19T16:55:30Z</time>
      </trkpt>
      <trkpt lat="44.54401" lon="6.02222">
        <ele>997.9</ele>
        <time>2007-07-19T16:55:30Z</time>
      </trkpt>
      <trkpt lat="44.54379" lon="6.02214">
        <ele>997.2</ele>
        <time>2007-07-19T16:55:30Z</time>
      </trkpt>
      <trkpt lat="44.54355" lon="6.02203">
        <ele>996.9</ele>
        <time>2007-07-19T16:55:30Z</time>
      </trkpt>
      <trkpt lat="44.54337" lon="6.02189">
        <ele>997.7</ele>
        <time>2007-07-19T16:55:30Z</time>
      </trkpt>
      <trkpt lat="44.5432" lon="6.02175">
        <ele>998.5</ele>
        <time>2007-07-19T16:55:30Z</time>
      </trkpt>
      <trkpt lat="44.54302" lon="6.02165">
        <ele>999</ele>
        <time>2007-07-19T16:55:30Z</time>
      </trkpt>
      <trkpt lat="44.54289" lon="6.02148">
        <ele>1000.5</ele>
        <time>2007-07-19T16:55:30Z</time>
      </trkpt>
      <trkpt lat="44.54276" lon="6.02135">
        <ele>1001.3</ele>
        <time>2007-07-19T16:55:30Z</time>
      </trkpt>
      <trkpt lat="44.54263" lon="6.02115">
        <ele>1002.1</ele>
        <time>2007-07-19T16:55:30Z</time>
      </trkpt>
      <trkpt lat="44.54283" lon="6.02113">
        <ele>1004.3</ele>
        <time>2007-07-19T16:55:30Z</time>
      </trkpt>
      <trkpt lat="44.54301" lon="6.02114">
        <ele>1006.1</ele>
        <time>2007-07-19T16:55:30Z</time>
      </trkpt>
      <trkpt lat="44.54319" lon="6.02116">
        <ele>1007.3</ele>
        <time>2007-07-19T16:55:30Z</time>
      </trkpt>
      <trkpt lat="44.54337" lon="6.02117">
        <ele>1008.5</ele>
        <time>2007-07-19T16:55:30Z</time>
      </trkpt>
      <trkpt lat="44.54355" lon="6.02121">
        <ele>1009.6</ele>
        <time>2007-07-19T16:55:30Z</time>
      </trkpt>
      <trkpt lat="44.54373" lon="6.02122">
        <ele>1010.9</ele>
        <time>2007-07-19T16:55:30Z</time>
      </trkpt>
      <trkpt lat="44.54388" lon="6.02136">
        <ele>1009.5</ele>
        <time>2007-07-19T16:55:30Z</time>
      </trkpt>
      <trkpt lat="44.54404" lon="6.02156">
        <ele>1008.1</ele>
        <time>2007-07-19T16:55:30Z</time>
      </trkpt>
      <trkpt lat="44.54417" lon="6.02172">
        <ele>1007.3</ele>
        <time>2007-07-19T16:55:30Z</time>
      </trkpt>
      <trkpt lat="44.54432" lon="6.02186">
        <ele>1007.8</ele>
        <time>2007-07-19T16:55:30Z</time>
      </trkpt>
      <trkpt lat="44.54454" lon="6.02194">
        <ele>1009.8</ele>
        <time>2007-07-19T16:55:30Z</time>
      </trkpt>
      <trkpt lat="44.54472" lon="6.02195">
        <ele>1012.8</ele>
        <time>2007-07-19T16:55:30Z</time>
      </trkpt>
      <trkpt lat="44.5449" lon="6.02196">
        <ele>1014.5</ele>
        <time>2007-07-19T16:55:30Z</time>
      </trkpt>
      <trkpt lat="44.54508" lon="6.02197">
        <ele>1015.8</ele>
        <time>2007-07-19T16:55:30Z</time>
      </trkpt>
      <trkpt lat="44.54526" lon="6.02198">
        <ele>1016.7</ele>
        <time>2007-07-19T16:55:30Z</time>
      </trkpt>
      <trkpt lat="44.54544" lon="6.022">
        <ele>1016.3</ele>
        <time>2007-07-19T16:55:30Z</time>
      </trkpt>
      <trkpt lat="44.54562" lon="6.02201">
        <ele>1016.3</ele>
        <time>2007-07-19T16:55:30Z</time>
      </trkpt>
      <trkpt lat="44.5458" lon="6.02192">
        <ele>1019.5</ele>
        <time>2007-07-19T16:55:30Z</time>
      </trkpt>
      <trkpt lat="44.54599" lon="6.02181">
        <ele>1023</ele>
        <time>2007-07-19T16:55:30Z</time>
      </trkpt>
      <trkpt lat="44.54621" lon="6.02173">
        <ele>1025.5</ele>
        <time>2007-07-19T16:55:30Z</time>
      </trkpt>
      <trkpt lat="44.5464" lon="6.02165">
        <ele>1027.3</ele>
        <time>2007-07-19T16:55:30Z</time>
      </trkpt>
      <trkpt lat="44.54662" lon="6.0216">
        <ele>1029</ele>
        <time>2007-07-19T16:55:30Z</time>
      </trkpt>
      <trkpt lat="44.54683" lon="6.02158">
        <ele>1030.6</ele>
        <time>2007-07-19T16:55:30Z</time>
      </trkpt>
      <trkpt lat="44.54703" lon="6.0216">
        <ele>1031.3</ele>
        <time>2007-07-19T16:55:30Z</time>
      </trkpt>
      <trkpt lat="44.54721" lon="6.02161">
        <ele>1031.8</ele>
        <time>2007-07-19T16:55:30Z</time>
      </trkpt>
      <trkpt lat="44.54739" lon="6.02162">
        <ele>1032.3</ele>
        <time>2007-07-19T16:55:30Z</time>
      </trkpt>
      <trkpt lat="44.54757" lon="6.02163">
        <ele>1032.5</ele>
        <time>2007-07-19T16:55:30Z</time>
      </trkpt>
      <trkpt lat="44.54777" lon="6.02164">
        <ele>1032.4</ele>
        <time>2007-07-19T16:55:30Z</time>
      </trkpt>
      <trkpt lat="44.54791" lon="6.02147">
        <ele>1035</ele>
        <time>2007-07-19T16:55:30Z</time>
      </trkpt>
      <trkpt lat="44.54799" lon="6.02125">
        <ele>1036.5</ele>
        <time>2007-07-19T16:55:30Z</time>
      </trkpt>
      <trkpt lat="44.54804" lon="6.021">
        <ele>1037.4</ele>
        <time>2007-07-19T16:55:30Z</time>
      </trkpt>
      <trkpt lat="44.54814" lon="6.02072">
        <ele>1038.5</ele>
        <time>2007-07-19T16:55:30Z</time>
      </trkpt>
      <trkpt lat="44.54819" lon="6.02048">
        <ele>1040</ele>
        <time>2007-07-19T16:55:30Z</time>
      </trkpt>
      <trkpt lat="44.54827" lon="6.02023">
        <ele>1042.2</ele>
        <time>2007-07-19T16:55:30Z</time>
      </trkpt>
      <trkpt lat="44.54836" lon="6.02005">
        <ele>1043.7</ele>
        <time>2007-07-19T16:55:30Z</time>
      </trkpt>
      <trkpt lat="44.54846" lon="6.01986">
        <ele>1045.2</ele>
        <time>2007-07-19T16:55:30Z</time>
      </trkpt>
      <trkpt lat="44.54858" lon="6.01965">
        <ele>1046.3</ele>
        <time>2007-07-19T16:55:30Z</time>
      </trkpt>
      <trkpt lat="44.54865" lon="6.01941">
        <ele>1047.4</ele>
        <time>2007-07-19T16:55:30Z</time>
      </trkpt>
      <trkpt lat="44.54873" lon="6.01916">
        <ele>1048.4</ele>
        <time>2007-07-19T16:55:30Z</time>
      </trkpt>
      <trkpt lat="44.54883" lon="6.01891">
        <ele>1049</ele>
        <time>2007-07-19T16:55:30Z</time>
      </trkpt>
      <trkpt lat="44.54893" lon="6.0187">
        <ele>1049.8</ele>
        <time>2007-07-19T16:55:30Z</time>
      </trkpt>
      <trkpt lat="44.54902" lon="6.01845">
        <ele>1052.2</ele>
        <time>2007-07-19T16:55:30Z</time>
      </trkpt>
      <trkpt lat="44.54914" lon="6.01827">
        <ele>1054</ele>
        <time>2007-07-19T16:55:30Z</time>
      </trkpt>
      <trkpt lat="44.54931" lon="6.01809">
        <ele>1056.1</ele>
        <time>2007-07-19T16:55:30Z</time>
      </trkpt>
      <trkpt lat="44.54947" lon="6.01795">
        <ele>1057</ele>
        <time>2007-07-19T16:55:30Z</time>
      </trkpt>
      <trkpt lat="44.54961" lon="6.01783">
        <ele>1057.2</ele>
        <time>2007-07-19T16:55:30Z</time>
      </trkpt>
      <trkpt lat="44.54973" lon="6.01768">
        <ele>1058.4</ele>
        <time>2007-07-19T16:55:30Z</time>
      </trkpt>
      <trkpt lat="44.54984" lon="6.01747">
        <ele>1061</ele>
        <time>2007-07-19T16:55:30Z</time>
      </trkpt>
      <trkpt lat="44.54996" lon="6.01726">
        <ele>1063.6</ele>
        <time>2007-07-19T16:55:30Z</time>
      </trkpt>
      <trkpt lat="44.55013" lon="6.01714">
        <ele>1065.2</ele>
        <time>2007-07-19T16:55:30Z</time>
      </trkpt>
      <trkpt lat="44.55035" lon="6.01709">
        <ele>1065.6</ele>
        <time>2007-07-19T16:55:30Z</time>
      </trkpt>
      <trkpt lat="44.55056" lon="6.01704">
        <ele>1065.6</ele>
        <time>2007-07-19T16:55:30Z</time>
      </trkpt>
      <trkpt lat="44.55074" lon="6.01699">
        <ele>1067</ele>
        <time>2007-07-19T16:55:30Z</time>
      </trkpt>
      <trkpt lat="44.55072" lon="6.0168">
        <ele>1069.4</ele>
        <time>2007-07-19T16:55:30Z</time>
      </trkpt>
      <trkpt lat="44.55052" lon="6.01676">
        <ele>1069.7</ele>
        <time>2007-07-19T16:55:30Z</time>
      </trkpt>
      <trkpt lat="44.55034" lon="6.01675">
        <ele>1070</ele>
        <time>2007-07-19T16:55:30Z</time>
      </trkpt>
      <trkpt lat="44.55019" lon="6.01664">
        <ele>1071.2</ele>
        <time>2007-07-19T16:55:30Z</time>
      </trkpt>
      <trkpt lat="44.5502" lon="6.01639">
        <ele>1073.3</ele>
        <time>2007-07-19T16:55:30Z</time>
      </trkpt>
      <trkpt lat="44.55018" lon="6.01611">
        <ele>1074.4</ele>
        <time>2007-07-19T16:55:30Z</time>
      </trkpt>
      <trkpt lat="44.55019" lon="6.01582">
        <ele>1075</ele>
        <time>2007-07-19T16:55:30Z</time>
      </trkpt>
      <trkpt lat="44.5502" lon="6.01557">
        <ele>1075.3</ele>
        <time>2007-07-19T16:55:30Z</time>
      </trkpt>
      <trkpt lat="44.55021" lon="6.01532">
        <ele>1076.7</ele>
        <time>2007-07-19T16:55:30Z</time>
      </trkpt>
      <trkpt lat="44.55031" lon="6.01508">
        <ele>1077.6</ele>
        <time>2007-07-19T16:55:30Z</time>
      </trkpt>
      <trkpt lat="44.55041" lon="6.0148">
        <ele>1078.6</ele>
        <time>2007-07-19T16:55:30Z</time>
      </trkpt>
      <trkpt lat="44.5505" lon="6.01458">
        <ele>1078.3</ele>
        <time>2007-07-19T16:55:30Z</time>
      </trkpt>
      <trkpt lat="44.55054" lon="6.01433">
        <ele>1078</ele>
        <time>2007-07-19T16:55:30Z</time>
      </trkpt>
      <trkpt lat="44.55059" lon="6.01402">
        <ele>1078.5</ele>
        <time>2007-07-19T16:55:30Z</time>
      </trkpt>
      <trkpt lat="44.55067" lon="6.01375">
        <ele>1079.2</ele>
        <time>2007-07-19T16:55:30Z</time>
      </trkpt>
      <trkpt lat="44.55072" lon="6.01347">
        <ele>1079.9</ele>
        <time>2007-07-19T16:55:30Z</time>
      </trkpt>
      <trkpt lat="44.55073" lon="6.01318">
        <ele>1080.8</ele>
        <time>2007-07-19T16:55:30Z</time>
      </trkpt>
      <trkpt lat="44.55085" lon="6.013">
        <ele>1082.1</ele>
        <time>2007-07-19T16:55:30Z</time>
      </trkpt>
      <trkpt lat="44.55103" lon="6.01301">
        <ele>1083.4</ele>
        <time>2007-07-19T16:55:30Z</time>
      </trkpt>
      <trkpt lat="44.55121" lon="6.01306">
        <ele>1084.7</ele>
        <time>2007-07-19T16:55:30Z</time>
      </trkpt>
      <trkpt lat="44.55139" lon="6.0131">
        <ele>1085.8</ele>
        <time>2007-07-19T16:55:30Z</time>
      </trkpt>
      <trkpt lat="44.55159" lon="6.01314">
        <ele>1087.1</ele>
        <time>2007-07-19T16:55:30Z</time>
      </trkpt>
      <trkpt lat="44.55177" lon="6.01319">
        <ele>1088.3</ele>
        <time>2007-07-19T16:55:30Z</time>
      </trkpt>
      <trkpt lat="44.55197" lon="6.0133">
        <ele>1089.3</ele>
        <time>2007-07-19T16:55:30Z</time>
      </trkpt>
      <trkpt lat="44.55212" lon="6.01343">
        <ele>1089.9</ele>
        <time>2007-07-19T16:55:30Z</time>
      </trkpt>
      <trkpt lat="44.55232" lon="6.01351">
        <ele>1090.7</ele>
        <time>2007-07-19T16:55:30Z</time>
      </trkpt>
      <trkpt lat="44.55252" lon="6.01355">
        <ele>1091.3</ele>
        <time>2007-07-19T16:55:30Z</time>
      </trkpt>
      <trkpt lat="44.55272" lon="6.01363">
        <ele>1091.8</ele>
        <time>2007-07-19T16:55:30Z</time>
      </trkpt>
      <trkpt lat="44.5529" lon="6.0137">
        <ele>1092.4</ele>
        <time>2007-07-19T16:55:30Z</time>
      </trkpt>
      <trkpt lat="44.55308" lon="6.01371">
        <ele>1093.1</ele>
        <time>2007-07-19T16:55:30Z</time>
      </trkpt>
      <trkpt lat="44.55326" lon="6.01373">
        <ele>1093.7</ele>
        <time>2007-07-19T16:55:30Z</time>
      </trkpt>
      <trkpt lat="44.55344" lon="6.01374">
        <ele>1094.6</ele>
        <time>2007-07-19T16:55:30Z</time>
      </trkpt>
      <trkpt lat="44.55361" lon="6.01378">
        <ele>1095.6</ele>
        <time>2007-07-19T16:55:30Z</time>
      </trkpt>
      <trkpt lat="44.55381" lon="6.01386">
        <ele>1096.6</ele>
        <time>2007-07-19T16:55:30Z</time>
      </trkpt>
      <trkpt lat="44.55399" lon="6.01396">
        <ele>1097.7</ele>
        <time>2007-07-19T16:55:30Z</time>
      </trkpt>
      <trkpt lat="44.55419" lon="6.01401">
        <ele>1099.1</ele>
        <time>2007-07-19T16:55:30Z</time>
      </trkpt>
      <trkpt lat="44.55437" lon="6.01405">
        <ele>1099.7</ele>
        <time>2007-07-19T16:55:30Z</time>
      </trkpt>
      <trkpt lat="44.55455" lon="6.01406">
        <ele>1100.4</ele>
        <time>2007-07-19T16:55:30Z</time>
      </trkpt>
      <trkpt lat="44.55473" lon="6.01407">
        <ele>1101</ele>
        <time>2007-07-19T16:55:30Z</time>
      </trkpt>
      <trkpt lat="44.55491" lon="6.01409">
        <ele>1101.7</ele>
        <time>2007-07-19T16:55:30Z</time>
      </trkpt>
      <trkpt lat="44.55511" lon="6.01407">
        <ele>1102.4</ele>
        <time>2007-07-19T16:55:30Z</time>
      </trkpt>
      <trkpt lat="44.55536" lon="6.01402">
        <ele>1103</ele>
        <time>2007-07-19T16:55:30Z</time>
      </trkpt>
      <trkpt lat="44.55552" lon="6.01391">
        <ele>1103</ele>
        <time>2007-07-19T16:55:30Z</time>
      </trkpt>
      <trkpt lat="44.55571" lon="6.01382">
        <ele>1104.1</ele>
        <time>2007-07-19T16:55:30Z</time>
      </trkpt>
      <trkpt lat="44.55589" lon="6.01374">
        <ele>1105.3</ele>
        <time>2007-07-19T16:55:30Z</time>
      </trkpt>
      <trkpt lat="44.55609" lon="6.01369">
        <ele>1106.6</ele>
        <time>2007-07-19T16:55:30Z</time>
      </trkpt>
      <trkpt lat="44.55628" lon="6.01361">
        <ele>1108.2</ele>
        <time>2007-07-19T16:55:30Z</time>
      </trkpt>
      <trkpt lat="44.55648" lon="6.01356">
        <ele>1109.8</ele>
        <time>2007-07-19T16:55:30Z</time>
      </trkpt>
      <trkpt lat="44.55671" lon="6.01348">
        <ele>1111.8</ele>
        <time>2007-07-19T16:55:30Z</time>
      </trkpt>
      <trkpt lat="44.55689" lon="6.01346">
        <ele>1113.2</ele>
        <time>2007-07-19T16:55:30Z</time>
      </trkpt>
      <trkpt lat="44.55709" lon="6.01347">
        <ele>1114.8</ele>
        <time>2007-07-19T16:55:30Z</time>
      </trkpt>
      <trkpt lat="44.55729" lon="6.01349">
        <ele>1116.6</ele>
        <time>2007-07-19T16:55:30Z</time>
      </trkpt>
      <trkpt lat="44.5575" lon="6.01347">
        <ele>1118.5</ele>
        <time>2007-07-19T16:55:30Z</time>
      </trkpt>
      <trkpt lat="44.5577" lon="6.01348">
        <ele>1119.9</ele>
        <time>2007-07-19T16:55:30Z</time>
      </trkpt>
      <trkpt lat="44.55788" lon="6.01346">
        <ele>1121.6</ele>
        <time>2007-07-19T16:55:30Z</time>
      </trkpt>
      <trkpt lat="44.55808" lon="6.01348">
        <ele>1123.7</ele>
        <time>2007-07-19T16:55:30Z</time>
      </trkpt>
      <trkpt lat="44.55826" lon="6.01349">
        <ele>1125.6</ele>
        <time>2007-07-19T16:55:30Z</time>
      </trkpt>
      <trkpt lat="44.55846" lon="6.01347">
        <ele>1127.9</ele>
        <time>2007-07-19T16:55:30Z</time>
      </trkpt>
      <trkpt lat="44.55864" lon="6.01345">
        <ele>1130</ele>
        <time>2007-07-19T16:55:30Z</time>
      </trkpt>
      <trkpt lat="44.55883" lon="6.0134">
        <ele>1132.7</ele>
        <time>2007-07-19T16:55:30Z</time>
      </trkpt>
      <trkpt lat="44.55899" lon="6.01331">
        <ele>1135.2</ele>
        <time>2007-07-19T16:55:30Z</time>
      </trkpt>
      <trkpt lat="44.55904" lon="6.01307">
        <ele>1137.1</ele>
        <time>2007-07-19T16:55:30Z</time>
      </trkpt>
      <trkpt lat="44.55907" lon="6.01282">
        <ele>1138.5</ele>
        <time>2007-07-19T16:55:30Z</time>
      </trkpt>
      <trkpt lat="44.55908" lon="6.01256">
        <ele>1139.5</ele>
        <time>2007-07-19T16:55:30Z</time>
      </trkpt>
      <trkpt lat="44.55909" lon="6.01231">
        <ele>1139.9</ele>
        <time>2007-07-19T16:55:30Z</time>
      </trkpt>
      <trkpt lat="44.55908" lon="6.01203">
        <ele>1140.2</ele>
        <time>2007-07-19T16:55:30Z</time>
      </trkpt>
      <trkpt lat="44.55908" lon="6.01175">
        <ele>1140.4</ele>
        <time>2007-07-19T16:55:30Z</time>
      </trkpt>
      <trkpt lat="44.55907" lon="6.01149">
        <ele>1140.7</ele>
        <time>2007-07-19T16:55:30Z</time>
      </trkpt>
      <trkpt lat="44.55908" lon="6.01124">
        <ele>1141.7</ele>
        <time>2007-07-19T16:55:30Z</time>
      </trkpt>
      <trkpt lat="44.55906" lon="6.01099">
        <ele>1142.1</ele>
        <time>2007-07-19T16:55:30Z</time>
      </trkpt>
      <trkpt lat="44.55896" lon="6.01076">
        <ele>1141</ele>
        <time>2007-07-19T16:55:30Z</time>
      </trkpt>
      <trkpt lat="44.55888" lon="6.01054">
        <ele>1140.8</ele>
        <time>2007-07-19T16:55:30Z</time>
      </trkpt>
      <trkpt lat="44.55877" lon="6.01034">
        <ele>1139.1</ele>
        <time>2007-07-19T16:55:30Z</time>
      </trkpt>
      <trkpt lat="44.55871" lon="6.01009">
        <ele>1139.2</ele>
        <time>2007-07-19T16:55:30Z</time>
      </trkpt>
      <trkpt lat="44.55865" lon="6.0098">
        <ele>1139.4</ele>
        <time>2007-07-19T16:55:30Z</time>
      </trkpt>
      <trkpt lat="44.55864" lon="6.00951">
        <ele>1140.3</ele>
        <time>2007-07-19T16:55:30Z</time>
      </trkpt>
      <trkpt lat="44.55863" lon="6.00926">
        <ele>1141</ele>
        <time>2007-07-19T16:55:30Z</time>
      </trkpt>
      <trkpt lat="44.55857" lon="6.00897">
        <ele>1140.8</ele>
        <time>2007-07-19T16:55:30Z</time>
      </trkpt>
      <trkpt lat="44.55849" lon="6.00872">
        <ele>1140</ele>
        <time>2007-07-19T16:55:30Z</time>
      </trkpt>
      <trkpt lat="44.55843" lon="6.00849">
        <ele>1139.8</ele>
        <time>2007-07-19T16:55:30Z</time>
      </trkpt>
      <trkpt lat="44.55835" lon="6.00827">
        <ele>1139.7</ele>
        <time>2007-07-19T16:55:30Z</time>
      </trkpt>
      <trkpt lat="44.55829" lon="6.00804">
        <ele>1140.1</ele>
        <time>2007-07-19T16:55:30Z</time>
      </trkpt>
      <trkpt lat="44.5582" lon="6.00782">
        <ele>1139.4</ele>
        <time>2007-07-19T16:55:30Z</time>
      </trkpt>
      <trkpt lat="44.55812" lon="6.00753">
        <ele>1139.7</ele>
        <time>2007-07-19T16:55:30Z</time>
      </trkpt>
      <trkpt lat="44.55804" lon="6.00721">
        <ele>1139.7</ele>
        <time>2007-07-19T16:55:30Z</time>
      </trkpt>
      <trkpt lat="44.55798" lon="6.00698">
        <ele>1139.5</ele>
        <time>2007-07-19T16:55:30Z</time>
      </trkpt>
      <trkpt lat="44.55797" lon="6.0067">
        <ele>1140.3</ele>
        <time>2007-07-19T16:55:30Z</time>
      </trkpt>
      <trkpt lat="44.55798" lon="6.00642">
        <ele>1140.9</ele>
        <time>2007-07-19T16:55:30Z</time>
      </trkpt>
      <trkpt lat="44.55799" lon="6.00617">
        <ele>1141.8</ele>
        <time>2007-07-19T16:55:30Z</time>
      </trkpt>
      <trkpt lat="44.55795" lon="6.00588">
        <ele>1141.5</ele>
        <time>2007-07-19T16:55:30Z</time>
      </trkpt>
      <trkpt lat="44.55785" lon="6.00568">
        <ele>1140.4</ele>
        <time>2007-07-19T16:55:30Z</time>
      </trkpt>
      <trkpt lat="44.5577" lon="6.00549">
        <ele>1138.9</ele>
        <time>2007-07-19T16:55:30Z</time>
      </trkpt>
      <trkpt lat="44.55752" lon="6.00535">
        <ele>1136.3</ele>
        <time>2007-07-19T16:55:30Z</time>
      </trkpt>
      <trkpt lat="44.55734" lon="6.00534">
        <ele>1133.1</ele>
        <time>2007-07-19T16:55:30Z</time>
      </trkpt>
      <trkpt lat="44.55717" lon="6.00517">
        <ele>1130.1</ele>
        <time>2007-07-19T16:55:30Z</time>
      </trkpt>
      <trkpt lat="44.55704" lon="6.00503">
        <ele>1127.7</ele>
        <time>2007-07-19T16:55:30Z</time>
      </trkpt>
      <trkpt lat="44.55688" lon="6.00483">
        <ele>1124.8</ele>
        <time>2007-07-19T16:55:30Z</time>
      </trkpt>
      <trkpt lat="44.55676" lon="6.00464">
        <ele>1122.6</ele>
        <time>2007-07-19T16:55:30Z</time>
      </trkpt>
      <trkpt lat="44.5567" lon="6.00435">
        <ele>1121.5</ele>
        <time>2007-07-19T16:55:30Z</time>
      </trkpt>
      <trkpt lat="44.55662" lon="6.00406">
        <ele>1120.3</ele>
        <time>2007-07-19T16:55:30Z</time>
      </trkpt>
      <trkpt lat="44.55651" lon="6.0038">
        <ele>1119.1</ele>
        <time>2007-07-19T16:55:30Z</time>
      </trkpt>
      <trkpt lat="44.55643" lon="6.00355">
        <ele>1119</ele>
        <time>2007-07-19T16:55:30Z</time>
      </trkpt>
      <trkpt lat="44.55635" lon="6.00332">
        <ele>1119.2</ele>
        <time>2007-07-19T16:55:30Z</time>
      </trkpt>
      <trkpt lat="44.55629" lon="6.00303">
        <ele>1118.9</ele>
        <time>2007-07-19T16:55:30Z</time>
      </trkpt>
      <trkpt lat="44.55626" lon="6.00275">
        <ele>1118.8</ele>
        <time>2007-07-19T16:55:30Z</time>
      </trkpt>
      <trkpt lat="44.5562" lon="6.00252">
        <ele>1118.9</ele>
        <time>2007-07-19T16:55:30Z</time>
      </trkpt>
      <trkpt lat="44.55611" lon="6.0023">
        <ele>1118.7</ele>
        <time>2007-07-19T16:55:30Z</time>
      </trkpt>
      <trkpt lat="44.55601" lon="6.00207">
        <ele>1117.9</ele>
        <time>2007-07-19T16:55:30Z</time>
      </trkpt>
      <trkpt lat="44.55586" lon="6.00187">
        <ele>1116.4</ele>
        <time>2007-07-19T16:55:30Z</time>
      </trkpt>
      <trkpt lat="44.55575" lon="6.00164">
        <ele>1114.5</ele>
        <time>2007-07-19T16:55:30Z</time>
      </trkpt>
      <trkpt lat="44.55567" lon="6.00139">
        <ele>1113.6</ele>
        <time>2007-07-19T16:55:30Z</time>
      </trkpt>
      <trkpt lat="44.55557" lon="6.00113">
        <ele>1113.1</ele>
        <time>2007-07-19T16:55:30Z</time>
      </trkpt>
      <trkpt lat="44.55549" lon="6.0009">
        <ele>1112.6</ele>
        <time>2007-07-19T16:55:30Z</time>
      </trkpt>
      <trkpt lat="44.55538" lon="6.00071">
        <ele>1111.6</ele>
        <time>2007-07-19T16:55:30Z</time>
      </trkpt>
      <trkpt lat="44.55528" lon="6.00045">
        <ele>1111.4</ele>
        <time>2007-07-19T16:55:30Z</time>
      </trkpt>
      <trkpt lat="44.55522" lon="6.00019">
        <ele>1111.3</ele>
        <time>2007-07-19T16:55:30Z</time>
      </trkpt>
      <trkpt lat="44.55516" lon="5.99994">
        <ele>1111.5</ele>
        <time>2007-07-19T16:55:30Z</time>
      </trkpt>
      <trkpt lat="44.55508" lon="5.99971">
        <ele>1111.2</ele>
        <time>2007-07-19T16:55:30Z</time>
      </trkpt>
      <trkpt lat="44.55499" lon="5.99952">
        <ele>1110.6</ele>
        <time>2007-07-19T16:55:30Z</time>
      </trkpt>
      <trkpt lat="44.55491" lon="5.99929">
        <ele>1109.9</ele>
        <time>2007-07-19T16:55:30Z</time>
      </trkpt>
      <trkpt lat="44.55485" lon="5.999">
        <ele>1110.3</ele>
        <time>2007-07-19T16:55:30Z</time>
      </trkpt>
      <trkpt lat="44.55484" lon="5.99875">
        <ele>1111.3</ele>
        <time>2007-07-19T16:55:30Z</time>
      </trkpt>
      <trkpt lat="44.55485" lon="5.9985">
        <ele>1111.7</ele>
        <time>2007-07-19T16:55:30Z</time>
      </trkpt>
      <trkpt lat="44.55485" lon="5.99825">
        <ele>1111.3</ele>
        <time>2007-07-19T16:55:30Z</time>
      </trkpt>
      <trkpt lat="44.55486" lon="5.998">
        <ele>1111</ele>
        <time>2007-07-19T16:55:30Z</time>
      </trkpt>
      <trkpt lat="44.55487" lon="5.99775">
        <ele>1111</ele>
        <time>2007-07-19T16:55:30Z</time>
      </trkpt>
      <trkpt lat="44.55488" lon="5.99746">
        <ele>1110.6</ele>
        <time>2007-07-19T16:55:30Z</time>
      </trkpt>
      <trkpt lat="44.55482" lon="5.99721">
        <ele>1110.4</ele>
        <time>2007-07-19T16:55:30Z</time>
      </trkpt>
      <trkpt lat="44.55474" lon="5.99698">
        <ele>1110.1</ele>
        <time>2007-07-19T16:55:30Z</time>
      </trkpt>
      <trkpt lat="44.55461" lon="5.99678">
        <ele>1108.7</ele>
        <time>2007-07-19T16:55:30Z</time>
      </trkpt>
      <trkpt lat="44.55448" lon="5.99662">
        <ele>1108.5</ele>
        <time>2007-07-19T16:55:30Z</time>
      </trkpt>
      <trkpt lat="44.5543" lon="5.99651">
        <ele>1107.4</ele>
        <time>2007-07-19T16:55:30Z</time>
      </trkpt>
      <trkpt lat="44.55415" lon="5.99638">
        <ele>1106.7</ele>
        <time>2007-07-19T16:55:30Z</time>
      </trkpt>
      <trkpt lat="44.55402" lon="5.99621">
        <ele>1104.6</ele>
        <time>2007-07-19T16:55:30Z</time>
      </trkpt>
      <trkpt lat="44.55387" lon="5.99604">
        <ele>1103.6</ele>
        <time>2007-07-19T16:55:30Z</time>
      </trkpt>
      <trkpt lat="44.55367" lon="5.99597">
        <ele>1101.9</ele>
        <time>2007-07-19T16:55:30Z</time>
      </trkpt>
      <trkpt lat="44.55355" lon="5.99609">
        <ele>1101.3</ele>
        <time>2007-07-19T16:55:30Z</time>
      </trkpt>
      <trkpt lat="44.55352" lon="5.99637">
        <ele>1100.4</ele>
        <time>2007-07-19T16:55:30Z</time>
      </trkpt>
      <trkpt lat="44.55351" lon="5.99668">
        <ele>1099.9</ele>
        <time>2007-07-19T16:55:30Z</time>
      </trkpt>
      <trkpt lat="44.5535" lon="5.99693">
        <ele>1098.9</ele>
        <time>2007-07-19T16:55:30Z</time>
      </trkpt>
      <trkpt lat="44.55347" lon="5.99721">
        <ele>1097</ele>
        <time>2007-07-19T16:55:30Z</time>
      </trkpt>
      <trkpt lat="44.55346" lon="5.9975">
        <ele>1095.4</ele>
        <time>2007-07-19T16:55:30Z</time>
      </trkpt>
      <trkpt lat="44.55343" lon="5.99775">
        <ele>1094.7</ele>
        <time>2007-07-19T16:55:30Z</time>
      </trkpt>
      <trkpt lat="44.55342" lon="5.99803">
        <ele>1094.6</ele>
        <time>2007-07-19T16:55:30Z</time>
      </trkpt>
      <trkpt lat="44.55341" lon="5.99828">
        <ele>1094.6</ele>
        <time>2007-07-19T16:55:30Z</time>
      </trkpt>
      <trkpt lat="44.55338" lon="5.99853">
        <ele>1094.3</ele>
        <time>2007-07-19T16:55:30Z</time>
      </trkpt>
      <trkpt lat="44.55333" lon="5.99878">
        <ele>1094.6</ele>
        <time>2007-07-19T16:55:30Z</time>
      </trkpt>
      <trkpt lat="44.55325" lon="5.99903">
        <ele>1094.7</ele>
        <time>2007-07-19T16:55:30Z</time>
      </trkpt>
      <trkpt lat="44.55318" lon="5.99924">
        <ele>1094.7</ele>
        <time>2007-07-19T16:55:30Z</time>
      </trkpt>
      <trkpt lat="44.55312" lon="5.99952">
        <ele>1095.4</ele>
        <time>2007-07-19T16:55:30Z</time>
      </trkpt>
      <trkpt lat="44.55305" lon="5.9998">
        <ele>1096</ele>
        <time>2007-07-19T16:55:30Z</time>
      </trkpt>
      <trkpt lat="44.55297" lon="6.00008">
        <ele>1096.3</ele>
        <time>2007-07-19T16:55:30Z</time>
      </trkpt>
      <trkpt lat="44.55289" lon="6.00032">
        <ele>1097.2</ele>
        <time>2007-07-19T16:55:30Z</time>
      </trkpt>
      <trkpt lat="44.55286" lon="6.00061">
        <ele>1098.2</ele>
        <time>2007-07-19T16:55:30Z</time>
      </trkpt>
      <trkpt lat="44.55281" lon="6.00089">
        <ele>1099.2</ele>
        <time>2007-07-19T16:55:30Z</time>
      </trkpt>
      <trkpt lat="44.55277" lon="6.0012">
        <ele>1100</ele>
        <time>2007-07-19T16:55:30Z</time>
      </trkpt>
      <trkpt lat="44.55277" lon="6.00148">
        <ele>1100.3</ele>
        <time>2007-07-19T16:55:30Z</time>
      </trkpt>
      <trkpt lat="44.55273" lon="6.00179">
        <ele>1101</ele>
        <time>2007-07-19T16:55:30Z</time>
      </trkpt>
      <trkpt lat="44.5527" lon="6.00207">
        <ele>1100.9</ele>
        <time>2007-07-19T16:55:30Z</time>
      </trkpt>
      <trkpt lat="44.55265" lon="6.00232">
        <ele>1100.3</ele>
        <time>2007-07-19T16:55:30Z</time>
      </trkpt>
      <trkpt lat="44.55255" lon="6.00251">
        <ele>1100</ele>
        <time>2007-07-19T16:55:30Z</time>
      </trkpt>
      <trkpt lat="44.55247" lon="6.00278">
        <ele>1099</ele>
        <time>2007-07-19T16:55:30Z</time>
      </trkpt>
      <trkpt lat="44.5524" lon="6.00309">
        <ele>1098.6</ele>
        <time>2007-07-19T16:55:30Z</time>
      </trkpt>
      <trkpt lat="44.55237" lon="6.00334">
        <ele>1098</ele>
        <time>2007-07-19T16:55:30Z</time>
      </trkpt>
      <trkpt lat="44.55233" lon="6.00359">
        <ele>1098</ele>
        <time>2007-07-19T16:55:30Z</time>
      </trkpt>
      <trkpt lat="44.5523" lon="6.00387">
        <ele>1097.3</ele>
        <time>2007-07-19T16:55:30Z</time>
      </trkpt>
      <trkpt lat="44.55229" lon="6.00413">
        <ele>1097</ele>
        <time>2007-07-19T16:55:30Z</time>
      </trkpt>
      <trkpt lat="44.55229" lon="6.00438">
        <ele>1097</ele>
        <time>2007-07-19T16:55:30Z</time>
      </trkpt>
      <trkpt lat="44.55228" lon="6.00463">
        <ele>1096.5</ele>
        <time>2007-07-19T16:55:30Z</time>
      </trkpt>
      <trkpt lat="44.55227" lon="6.00488">
        <ele>1095.5</ele>
        <time>2007-07-19T16:55:30Z</time>
      </trkpt>
      <trkpt lat="44.55226" lon="6.00513">
        <ele>1094.6</ele>
        <time>2007-07-19T16:55:30Z</time>
      </trkpt>
      <trkpt lat="44.55225" lon="6.00538">
        <ele>1093.7</ele>
        <time>2007-07-19T16:55:30Z</time>
      </trkpt>
      <trkpt lat="44.55227" lon="6.00563">
        <ele>1093.2</ele>
        <time>2007-07-19T16:55:30Z</time>
      </trkpt>
      <trkpt lat="44.5523" lon="6.00595">
        <ele>1092.9</ele>
        <time>2007-07-19T16:55:30Z</time>
      </trkpt>
      <trkpt lat="44.55234" lon="6.00627">
        <ele>1092.1</ele>
        <time>2007-07-19T16:55:30Z</time>
      </trkpt>
      <trkpt lat="44.55233" lon="6.00652">
        <ele>1091.6</ele>
        <time>2007-07-19T16:55:30Z</time>
      </trkpt>
      <trkpt lat="44.55225" lon="6.00674">
        <ele>1091.1</ele>
        <time>2007-07-19T16:55:30Z</time>
      </trkpt>
      <trkpt lat="44.55215" lon="6.00698">
        <ele>1090.4</ele>
        <time>2007-07-19T16:55:30Z</time>
      </trkpt>
      <trkpt lat="44.55208" lon="6.0072">
        <ele>1089.5</ele>
        <time>2007-07-19T16:55:30Z</time>
      </trkpt>
      <trkpt lat="44.552" lon="6.00741">
        <ele>1089.2</ele>
        <time>2007-07-19T16:55:30Z</time>
      </trkpt>
      <trkpt lat="44.55193" lon="6.00769">
        <ele>1089</ele>
        <time>2007-07-19T16:55:30Z</time>
      </trkpt>
      <trkpt lat="44.5519" lon="6.00797">
        <ele>1088.9</ele>
        <time>2007-07-19T16:55:30Z</time>
      </trkpt>
      <trkpt lat="44.55189" lon="6.00822">
        <ele>1088.3</ele>
        <time>2007-07-19T16:55:30Z</time>
      </trkpt>
      <trkpt lat="44.55188" lon="6.00847">
        <ele>1088</ele>
        <time>2007-07-19T16:55:30Z</time>
      </trkpt>
      <trkpt lat="44.55183" lon="6.00872">
        <ele>1088.2</ele>
        <time>2007-07-19T16:55:30Z</time>
      </trkpt>
      <trkpt lat="44.55173" lon="6.00897">
        <ele>1088.2</ele>
        <time>2007-07-19T16:55:30Z</time>
      </trkpt>
      <trkpt lat="44.55161" lon="6.00918">
        <ele>1087.8</ele>
        <time>2007-07-19T16:55:30Z</time>
      </trkpt>
      <trkpt lat="44.55151" lon="6.00943">
        <ele>1088</ele>
        <time>2007-07-19T16:55:30Z</time>
      </trkpt>
      <trkpt lat="44.55155" lon="6.00968">
        <ele>1088.5</ele>
        <time>2007-07-19T16:55:30Z</time>
      </trkpt>
      <trkpt lat="44.55175" lon="6.00972">
        <ele>1089.3</ele>
        <time>2007-07-19T16:55:30Z</time>
      </trkpt>
      <trkpt lat="44.55195" lon="6.00977">
        <ele>1090.6</ele>
        <time>2007-07-19T16:55:30Z</time>
      </trkpt>
      <trkpt lat="44.55213" lon="6.00978">
        <ele>1092</ele>
        <time>2007-07-19T16:55:30Z</time>
      </trkpt>
      <trkpt lat="44.55233" lon="6.00983">
        <ele>1093.8</ele>
        <time>2007-07-19T16:55:30Z</time>
      </trkpt>
      <trkpt lat="44.55255" lon="6.00993">
        <ele>1095.5</ele>
        <time>2007-07-19T16:55:30Z</time>
      </trkpt>
      <trkpt lat="44.55273" lon="6.01007">
        <ele>1096.5</ele>
        <time>2007-07-19T16:55:30Z</time>
      </trkpt>
      <trkpt lat="44.5529" lon="6.01018">
        <ele>1097.7</ele>
        <time>2007-07-19T16:55:30Z</time>
      </trkpt>
      <trkpt lat="44.55306" lon="6.01025">
        <ele>1098.8</ele>
        <time>2007-07-19T16:55:30Z</time>
      </trkpt>
      <trkpt lat="44.55326" lon="6.0103">
        <ele>1099.7</ele>
        <time>2007-07-19T16:55:30Z</time>
      </trkpt>
      <trkpt lat="44.55344" lon="6.01031">
        <ele>1100.2</ele>
        <time>2007-07-19T16:55:30Z</time>
      </trkpt>
      <trkpt lat="44.55364" lon="6.01029">
        <ele>1100.9</ele>
        <time>2007-07-19T16:55:30Z</time>
      </trkpt>
      <trkpt lat="44.5538" lon="6.01024">
        <ele>1101</ele>
        <time>2007-07-19T16:55:30Z</time>
      </trkpt>
      <trkpt lat="44.55396" lon="6.01021">
        <ele>1101.1</ele>
        <time>2007-07-19T16:55:30Z</time>
      </trkpt>
      <trkpt lat="44.55414" lon="6.01016">
        <ele>1101.4</ele>
        <time>2007-07-19T16:55:30Z</time>
      </trkpt>
      <trkpt lat="44.5543" lon="6.01014">
        <ele>1102.2</ele>
        <time>2007-07-19T16:55:30Z</time>
      </trkpt>
      <trkpt lat="44.55448" lon="6.01009">
        <ele>1103.3</ele>
        <time>2007-07-19T16:55:30Z</time>
      </trkpt>
      <trkpt lat="44.55469" lon="6.01001">
        <ele>1105.6</ele>
        <time>2007-07-19T16:55:30Z</time>
      </trkpt>
      <trkpt lat="44.55484" lon="6.00999">
        <ele>1106.4</ele>
        <time>2007-07-19T16:55:30Z</time>
      </trkpt>
      <trkpt lat="44.55502" lon="6.01">
        <ele>1107</ele>
        <time>2007-07-19T16:55:30Z</time>
      </trkpt>
      <trkpt lat="44.5552" lon="6.01001">
        <ele>1107</ele>
        <time>2007-07-19T16:55:30Z</time>
      </trkpt>
      <trkpt lat="44.55536" lon="6.01005">
        <ele>1107.1</ele>
        <time>2007-07-19T16:55:30Z</time>
      </trkpt>
      <trkpt lat="44.55549" lon="6.01019">
        <ele>1107.5</ele>
        <time>2007-07-19T16:55:30Z</time>
      </trkpt>
      <trkpt lat="44.55562" lon="6.01042">
        <ele>1108.1</ele>
        <time>2007-07-19T16:55:30Z</time>
      </trkpt>
      <trkpt lat="44.55567" lon="6.01074">
        <ele>1108.4</ele>
        <time>2007-07-19T16:55:30Z</time>
      </trkpt>
      <trkpt lat="44.55571" lon="6.01096">
        <ele>1108.4</ele>
        <time>2007-07-19T16:55:30Z</time>
      </trkpt>
      <trkpt lat="44.55577" lon="6.01118">
        <ele>1108.5</ele>
        <time>2007-07-19T16:55:30Z</time>
      </trkpt>
      <trkpt lat="44.55583" lon="6.01141">
        <ele>1109</ele>
        <time>2007-07-19T16:55:30Z</time>
      </trkpt>
      <trkpt lat="44.55598" lon="6.01158">
        <ele>1110.1</ele>
        <time>2007-07-19T16:55:30Z</time>
      </trkpt>
      <trkpt lat="44.55614" lon="6.01165">
        <ele>1111.1</ele>
        <time>2007-07-19T16:55:30Z</time>
      </trkpt>
      <trkpt lat="44.55632" lon="6.01166">
        <ele>1111.8</ele>
        <time>2007-07-19T16:55:30Z</time>
      </trkpt>
      <trkpt lat="44.55652" lon="6.01167">
        <ele>1112.9</ele>
        <time>2007-07-19T16:55:30Z</time>
      </trkpt>
      <trkpt lat="44.5567" lon="6.01168">
        <ele>1114.4</ele>
        <time>2007-07-19T16:55:30Z</time>
      </trkpt>
      <trkpt lat="44.55688" lon="6.0117">
        <ele>1116.3</ele>
        <time>2007-07-19T16:55:30Z</time>
      </trkpt>
      <trkpt lat="44.55706" lon="6.01171">
        <ele>1117.8</ele>
        <time>2007-07-19T16:55:30Z</time>
      </trkpt>
      <trkpt lat="44.55726" lon="6.01172">
        <ele>1119.3</ele>
        <time>2007-07-19T16:55:30Z</time>
      </trkpt>
      <trkpt lat="44.55742" lon="6.0117">
        <ele>1120.4</ele>
        <time>2007-07-19T16:55:30Z</time>
      </trkpt>
      <trkpt lat="44.55762" lon="6.01171">
        <ele>1121.9</ele>
        <time>2007-07-19T16:55:30Z</time>
      </trkpt>
      <trkpt lat="44.55785" lon="6.01163">
        <ele>1123.7</ele>
        <time>2007-07-19T16:55:30Z</time>
      </trkpt>
      <trkpt lat="44.55803" lon="6.01161">
        <ele>1125.5</ele>
        <time>2007-07-19T16:55:30Z</time>
      </trkpt>
      <trkpt lat="44.55821" lon="6.01159">
        <ele>1127</ele>
        <time>2007-07-19T16:55:30Z</time>
      </trkpt>
      <trkpt lat="44.55839" lon="6.01158">
        <ele>1128.8</ele>
        <time>2007-07-19T16:55:30Z</time>
      </trkpt>
      <trkpt lat="44.55859" lon="6.01159">
        <ele>1131.7</ele>
        <time>2007-07-19T16:55:30Z</time>
      </trkpt>
      <trkpt lat="44.55875" lon="6.01157">
        <ele>1134.5</ele>
        <time>2007-07-19T16:55:30Z</time>
      </trkpt>
      <trkpt lat="44.55893" lon="6.01158">
        <ele>1137.8</ele>
        <time>2007-07-19T16:55:30Z</time>
      </trkpt>
      <trkpt lat="44.55904" lon="6.01174">
        <ele>1139.7</ele>
        <time>2007-07-19T16:55:30Z</time>
      </trkpt>
      <trkpt lat="44.55903" lon="6.01199">
        <ele>1139.5</ele>
        <time>2007-07-19T16:55:30Z</time>
      </trkpt>
      <trkpt lat="44.55902" lon="6.01225">
        <ele>1138.9</ele>
        <time>2007-07-19T16:55:30Z</time>
      </trkpt>
      <trkpt lat="44.55906" lon="6.01247">
        <ele>1139.5</ele>
        <time>2007-07-19T16:55:30Z</time>
      </trkpt>
      <trkpt lat="44.55905" lon="6.01272">
        <ele>1138.5</ele>
        <time>2007-07-19T16:55:30Z</time>
      </trkpt>
      <trkpt lat="44.55904" lon="6.01297">
        <ele>1137.5</ele>
        <time>2007-07-19T16:55:30Z</time>
      </trkpt>
      <trkpt lat="44.55895" lon="6.01315">
        <ele>1135.5</ele>
        <time>2007-07-19T16:55:30Z</time>
      </trkpt>
      <trkpt lat="44.55879" lon="6.01327">
        <ele>1132.8</ele>
        <time>2007-07-19T16:55:30Z</time>
      </trkpt>
      <trkpt lat="44.55865" lon="6.01335">
        <ele>1130.5</ele>
        <time>2007-07-19T16:55:30Z</time>
      </trkpt>
      <trkpt lat="44.55847" lon="6.01334">
        <ele>1128.5</ele>
        <time>2007-07-19T16:55:30Z</time>
      </trkpt>
      <trkpt lat="44.55829" lon="6.01336">
        <ele>1126.4</ele>
        <time>2007-07-19T16:55:30Z</time>
      </trkpt>
      <trkpt lat="44.55813" lon="6.01338">
        <ele>1124.6</ele>
        <time>2007-07-19T16:55:30Z</time>
      </trkpt>
      <trkpt lat="44.55797" lon="6.01341">
        <ele>1122.8</ele>
        <time>2007-07-19T16:55:30Z</time>
      </trkpt>
      <trkpt lat="44.55781" lon="6.01343">
        <ele>1121</ele>
        <time>2007-07-19T16:55:30Z</time>
      </trkpt>
      <trkpt lat="44.55765" lon="6.01345">
        <ele>1119.7</ele>
        <time>2007-07-19T16:55:30Z</time>
      </trkpt>
      <trkpt lat="44.55747" lon="6.0135">
        <ele>1118.1</ele>
        <time>2007-07-19T16:55:30Z</time>
      </trkpt>
      <trkpt lat="44.55729" lon="6.01352">
        <ele>1116.6</ele>
        <time>2007-07-19T16:55:30Z</time>
      </trkpt>
      <trkpt lat="44.55711" lon="6.01351">
        <ele>1114.9</ele>
        <time>2007-07-19T16:55:30Z</time>
      </trkpt>
      <trkpt lat="44.55693" lon="6.01349">
        <ele>1113.3</ele>
        <time>2007-07-19T16:55:30Z</time>
      </trkpt>
      <trkpt lat="44.55677" lon="6.01352">
        <ele>1112.1</ele>
        <time>2007-07-19T16:55:30Z</time>
      </trkpt>
      <trkpt lat="44.55659" lon="6.0135">
        <ele>1110.8</ele>
        <time>2007-07-19T16:55:30Z</time>
      </trkpt>
      <trkpt lat="44.55641" lon="6.01352">
        <ele>1109.5</ele>
        <time>2007-07-19T16:55:30Z</time>
      </trkpt>
      <trkpt lat="44.55626" lon="6.01354">
        <ele>1108.2</ele>
        <time>2007-07-19T16:55:30Z</time>
      </trkpt>
      <trkpt lat="44.55607" lon="6.01363">
        <ele>1106.6</ele>
        <time>2007-07-19T16:55:30Z</time>
      </trkpt>
      <trkpt lat="44.55584" lon="6.01374">
        <ele>1105</ele>
        <time>2007-07-19T16:55:30Z</time>
      </trkpt>
      <trkpt lat="44.55564" lon="6.01385">
        <ele>1103.6</ele>
        <time>2007-07-19T16:55:30Z</time>
      </trkpt>
      <trkpt lat="44.55546" lon="6.0139">
        <ele>1103</ele>
        <time>2007-07-19T16:55:30Z</time>
      </trkpt>
      <trkpt lat="44.5553" lon="6.01399">
        <ele>1103</ele>
        <time>2007-07-19T16:55:30Z</time>
      </trkpt>
      <trkpt lat="44.55514" lon="6.01404">
        <ele>1102.5</ele>
        <time>2007-07-19T16:55:30Z</time>
      </trkpt>
      <trkpt lat="44.55496" lon="6.01406">
        <ele>1101.9</ele>
        <time>2007-07-19T16:55:30Z</time>
      </trkpt>
      <trkpt lat="44.55478" lon="6.01405">
        <ele>1101.2</ele>
        <time>2007-07-19T16:55:30Z</time>
      </trkpt>
      <trkpt lat="44.5546" lon="6.01403">
        <ele>1100.6</ele>
        <time>2007-07-19T16:55:30Z</time>
      </trkpt>
      <trkpt lat="44.55442" lon="6.01402">
        <ele>1099.9</ele>
        <time>2007-07-19T16:55:30Z</time>
      </trkpt>
      <trkpt lat="44.55424" lon="6.01401">
        <ele>1099.3</ele>
        <time>2007-07-19T16:55:30Z</time>
      </trkpt>
      <trkpt lat="44.55406" lon="6.014">
        <ele>1098.2</ele>
        <time>2007-07-19T16:55:30Z</time>
      </trkpt>
      <trkpt lat="44.55388" lon="6.01399">
        <ele>1097</ele>
        <time>2007-07-19T16:55:30Z</time>
      </trkpt>
      <trkpt lat="44.5537" lon="6.01398">
        <ele>1096.3</ele>
        <time>2007-07-19T16:55:30Z</time>
      </trkpt>
      <trkpt lat="44.55354" lon="6.0139">
        <ele>1095.5</ele>
        <time>2007-07-19T16:55:30Z</time>
      </trkpt>
      <trkpt lat="44.55339" lon="6.01383">
        <ele>1094.4</ele>
        <time>2007-07-19T16:55:30Z</time>
      </trkpt>
      <trkpt lat="44.55323" lon="6.01376">
        <ele>1093.6</ele>
        <time>2007-07-19T16:55:30Z</time>
      </trkpt>
      <trkpt lat="44.55301" lon="6.01368">
        <ele>1092.8</ele>
        <time>2007-07-19T16:55:30Z</time>
      </trkpt>
      <trkpt lat="44.55285" lon="6.01364">
        <ele>1092.3</ele>
        <time>2007-07-19T16:55:30Z</time>
      </trkpt>
      <trkpt lat="44.55268" lon="6.01359">
        <ele>1091.7</ele>
        <time>2007-07-19T16:55:30Z</time>
      </trkpt>
      <trkpt lat="44.55245" lon="6.01352">
        <ele>1091.1</ele>
        <time>2007-07-19T16:55:30Z</time>
      </trkpt>
      <trkpt lat="44.55223" lon="6.01341">
        <ele>1090.8</ele>
        <time>2007-07-19T16:55:30Z</time>
      </trkpt>
      <trkpt lat="44.55208" lon="6.01333">
        <ele>1090</ele>
        <time>2007-07-19T16:55:30Z</time>
      </trkpt>
      <trkpt lat="44.5519" lon="6.01332">
        <ele>1088.7</ele>
        <time>2007-07-19T16:55:30Z</time>
      </trkpt>
      <trkpt lat="44.55174" lon="6.01325">
        <ele>1087.8</ele>
        <time>2007-07-19T16:55:30Z</time>
      </trkpt>
      <trkpt lat="44.55156" lon="6.01321">
        <ele>1086.7</ele>
        <time>2007-07-19T16:55:30Z</time>
      </trkpt>
      <trkpt lat="44.55138" lon="6.01319">
        <ele>1085.5</ele>
        <time>2007-07-19T16:55:30Z</time>
      </trkpt>
      <trkpt lat="44.55123" lon="6.01315">
        <ele>1084.5</ele>
        <time>2007-07-19T16:55:30Z</time>
      </trkpt>
      <trkpt lat="44.55107" lon="6.01311">
        <ele>1083.5</ele>
        <time>2007-07-19T16:55:30Z</time>
      </trkpt>
      <trkpt lat="44.55092" lon="6.01307">
        <ele>1082.6</ele>
        <time>2007-07-19T16:55:30Z</time>
      </trkpt>
      <trkpt lat="44.55074" lon="6.01299">
        <ele>1081.4</ele>
        <time>2007-07-19T16:55:30Z</time>
      </trkpt>
      <trkpt lat="44.55056" lon="6.01295">
        <ele>1080.4</ele>
        <time>2007-07-19T16:55:30Z</time>
      </trkpt>
      <trkpt lat="44.55038" lon="6.01294">
        <ele>1079.2</ele>
        <time>2007-07-19T16:55:30Z</time>
      </trkpt>
      <trkpt lat="44.5502" lon="6.01293">
        <ele>1077.6</ele>
        <time>2007-07-19T16:55:30Z</time>
      </trkpt>
      <trkpt lat="44.55004" lon="6.01289">
        <ele>1076</ele>
        <time>2007-07-19T16:55:30Z</time>
      </trkpt>
      <trkpt lat="44.54989" lon="6.01281">
        <ele>1074.7</ele>
        <time>2007-07-19T16:55:30Z</time>
      </trkpt>
      <trkpt lat="44.54969" lon="6.01267">
        <ele>1072.7</ele>
        <time>2007-07-19T16:55:30Z</time>
      </trkpt>
      <trkpt lat="44.54954" lon="6.01257">
        <ele>1071</ele>
        <time>2007-07-19T16:55:30Z</time>
      </trkpt>
      <trkpt lat="44.54936" lon="6.01253">
        <ele>1068.5</ele>
        <time>2007-07-19T16:55:30Z</time>
      </trkpt>
      <trkpt lat="44.54918" lon="6.01248">
        <ele>1065.2</ele>
        <time>2007-07-19T16:55:30Z</time>
      </trkpt>
      <trkpt lat="44.549" lon="6.01247">
        <ele>1061.3</ele>
        <time>2007-07-19T16:55:30Z</time>
      </trkpt>
      <trkpt lat="44.54884" lon="6.01252">
        <ele>1058.2</ele>
        <time>2007-07-19T16:55:30Z</time>
      </trkpt>
      <trkpt lat="44.54863" lon="6.01261">
        <ele>1054.7</ele>
        <time>2007-07-19T16:55:30Z</time>
      </trkpt>
      <trkpt lat="44.5485" lon="6.01263">
        <ele>1052.5</ele>
        <time>2007-07-19T16:55:30Z</time>
      </trkpt>
      <trkpt lat="44.54834" lon="6.01271">
        <ele>1049.9</ele>
        <time>2007-07-19T16:55:30Z</time>
      </trkpt>
      <trkpt lat="44.5482" lon="6.01283">
        <ele>1048.3</ele>
        <time>2007-07-19T16:55:30Z</time>
      </trkpt>
      <trkpt lat="44.54806" lon="6.01291">
        <ele>1046.5</ele>
        <time>2007-07-19T16:55:30Z</time>
      </trkpt>
      <trkpt lat="44.5479" lon="6.013">
        <ele>1044.6</ele>
        <time>2007-07-19T16:55:30Z</time>
      </trkpt>
      <trkpt lat="44.54772" lon="6.01308">
        <ele>1042.5</ele>
        <time>2007-07-19T16:55:30Z</time>
      </trkpt>
      <trkpt lat="44.54754" lon="6.01316">
        <ele>1040.8</ele>
        <time>2007-07-19T16:55:30Z</time>
      </trkpt>
      <trkpt lat="44.54735" lon="6.01325">
        <ele>1039.8</ele>
        <time>2007-07-19T16:55:30Z</time>
      </trkpt>
      <trkpt lat="44.54717" lon="6.01333">
        <ele>1039.8</ele>
        <time>2007-07-19T16:55:30Z</time>
      </trkpt>
      <trkpt lat="44.54699" lon="6.01335">
        <ele>1039.4</ele>
        <time>2007-07-19T16:55:30Z</time>
      </trkpt>
      <trkpt lat="44.54681" lon="6.01334">
        <ele>1038.6</ele>
        <time>2007-07-19T16:55:30Z</time>
      </trkpt>
      <trkpt lat="44.54665" lon="6.01336">
        <ele>1038.4</ele>
        <time>2007-07-19T16:55:30Z</time>
      </trkpt>
      <trkpt lat="44.54645" lon="6.01334">
        <ele>1037.3</ele>
        <time>2007-07-19T16:55:30Z</time>
      </trkpt>
      <trkpt lat="44.54627" lon="6.01333">
        <ele>1036.1</ele>
        <time>2007-07-19T16:55:30Z</time>
      </trkpt>
      <trkpt lat="44.54612" lon="6.01323">
        <ele>1033.9</ele>
        <time>2007-07-19T16:55:30Z</time>
      </trkpt>
      <trkpt lat="44.54601" lon="6.013">
        <ele>1030.2</ele>
        <time>2007-07-19T16:55:30Z</time>
      </trkpt>
      <trkpt lat="44.54595" lon="6.01281">
        <ele>1028.4</ele>
        <time>2007-07-19T16:55:30Z</time>
      </trkpt>
      <trkpt lat="44.54578" lon="6.01261">
        <ele>1026.3</ele>
        <time>2007-07-19T16:55:30Z</time>
      </trkpt>
      <trkpt lat="44.54562" lon="6.01257">
        <ele>1024.5</ele>
        <time>2007-07-19T16:55:30Z</time>
      </trkpt>
      <trkpt lat="44.54544" lon="6.01252">
        <ele>1021.8</ele>
        <time>2007-07-19T16:55:30Z</time>
      </trkpt>
      <trkpt lat="44.54526" lon="6.01248">
        <ele>1018.9</ele>
        <time>2007-07-19T16:55:30Z</time>
      </trkpt>
      <trkpt lat="44.54508" lon="6.01244">
        <ele>1016.1</ele>
        <time>2007-07-19T16:55:30Z</time>
      </trkpt>
      <trkpt lat="44.54493" lon="6.01224">
        <ele>1015.3</ele>
        <time>2007-07-19T16:55:30Z</time>
      </trkpt>
      <trkpt lat="44.5448" lon="6.01204">
        <ele>1014.2</ele>
        <time>2007-07-19T16:55:30Z</time>
      </trkpt>
      <trkpt lat="44.5447" lon="6.01181">
        <ele>1013.4</ele>
        <time>2007-07-19T16:55:30Z</time>
      </trkpt>
      <trkpt lat="44.54464" lon="6.01159">
        <ele>1012.9</ele>
        <time>2007-07-19T16:55:30Z</time>
      </trkpt>
      <trkpt lat="44.54463" lon="6.01134">
        <ele>1012.6</ele>
        <time>2007-07-19T16:55:30Z</time>
      </trkpt>
      <trkpt lat="44.54463" lon="6.01108">
        <ele>1012</ele>
        <time>2007-07-19T16:55:30Z</time>
      </trkpt>
      <trkpt lat="44.54464" lon="6.01083">
        <ele>1009.9</ele>
        <time>2007-07-19T16:55:30Z</time>
      </trkpt>
      <trkpt lat="44.54451" lon="6.01086">
        <ele>1006.9</ele>
        <time>2007-07-19T16:55:30Z</time>
      </trkpt>
      <trkpt lat="44.54439" lon="6.01101">
        <ele>1005</ele>
        <time>2007-07-19T16:55:30Z</time>
      </trkpt>
      <trkpt lat="44.54423" lon="6.01115">
        <ele>1001.7</ele>
        <time>2007-07-19T16:55:30Z</time>
      </trkpt>
      <trkpt lat="44.54405" lon="6.01117">
        <ele>998.1</ele>
        <time>2007-07-19T16:55:30Z</time>
      </trkpt>
      <trkpt lat="44.54387" lon="6.01113">
        <ele>994.7</ele>
        <time>2007-07-19T16:55:30Z</time>
      </trkpt>
      <trkpt lat="44.54376" lon="6.01093">
        <ele>992</ele>
        <time>2007-07-19T16:55:30Z</time>
      </trkpt>
      <trkpt lat="44.54375" lon="6.01071">
        <ele>990.8</ele>
        <time>2007-07-19T16:55:30Z</time>
      </trkpt>
      <trkpt lat="44.54373" lon="6.01046">
        <ele>989.2</ele>
        <time>2007-07-19T16:55:30Z</time>
      </trkpt>
      <trkpt lat="44.54376" lon="6.01024">
        <ele>988.4</ele>
        <time>2007-07-19T16:55:30Z</time>
      </trkpt>
      <trkpt lat="44.54384" lon="6.00999">
        <ele>988</ele>
        <time>2007-07-19T16:55:30Z</time>
      </trkpt>
      <trkpt lat="44.54391" lon="6.00981">
        <ele>987.9</ele>
        <time>2007-07-19T16:55:30Z</time>
      </trkpt>
      <trkpt lat="44.54396" lon="6.00959">
        <ele>987.2</ele>
        <time>2007-07-19T16:55:30Z</time>
      </trkpt>
      <trkpt lat="44.54399" lon="6.00934">
        <ele>986.2</ele>
        <time>2007-07-19T16:55:30Z</time>
      </trkpt>
      <trkpt lat="44.54389" lon="6.00918">
        <ele>983.1</ele>
        <time>2007-07-19T16:55:30Z</time>
      </trkpt>
      <trkpt lat="44.54371" lon="6.00917">
        <ele>979.8</ele>
        <time>2007-07-19T16:55:30Z</time>
      </trkpt>
      <trkpt lat="44.54353" lon="6.009">
        <ele>976.2</ele>
        <time>2007-07-19T16:55:30Z</time>
      </trkpt>
      <trkpt lat="44.54341" lon="6.00921">
        <ele>975.4</ele>
        <time>2007-07-19T16:55:30Z</time>
      </trkpt>
      <trkpt lat="44.54332" lon="6.00942">
        <ele>975.6</ele>
        <time>2007-07-19T16:55:30Z</time>
      </trkpt>
      <trkpt lat="44.54315" lon="6.0096">
        <ele>973.9</ele>
        <time>2007-07-19T16:55:30Z</time>
      </trkpt>
      <trkpt lat="44.54303" lon="6.00982">
        <ele>973</ele>
        <time>2007-07-19T16:55:30Z</time>
      </trkpt>
      <trkpt lat="44.54296" lon="6.01006">
        <ele>973</ele>
        <time>2007-07-19T16:55:30Z</time>
      </trkpt>
      <trkpt lat="44.54286" lon="6.01028">
        <ele>972.5</ele>
        <time>2007-07-19T16:55:30Z</time>
      </trkpt>
      <trkpt lat="44.54276" lon="6.01055">
        <ele>971.8</ele>
        <time>2007-07-19T16:55:30Z</time>
      </trkpt>
      <trkpt lat="44.54266" lon="6.01083">
        <ele>972.3</ele>
        <time>2007-07-19T16:55:30Z</time>
      </trkpt>
      <trkpt lat="44.54259" lon="6.01104">
        <ele>972</ele>
        <time>2007-07-19T16:55:30Z</time>
      </trkpt>
      <trkpt lat="44.54254" lon="6.01126">
        <ele>972.1</ele>
        <time>2007-07-19T16:55:30Z</time>
      </trkpt>
      <trkpt lat="44.54246" lon="6.01145">
        <ele>971.8</ele>
        <time>2007-07-19T16:55:30Z</time>
      </trkpt>
      <trkpt lat="44.54239" lon="6.01169">
        <ele>971.9</ele>
        <time>2007-07-19T16:55:30Z</time>
      </trkpt>
      <trkpt lat="44.54229" lon="6.01194">
        <ele>971</ele>
        <time>2007-07-19T16:55:30Z</time>
      </trkpt>
      <trkpt lat="44.54219" lon="6.01215">
        <ele>971.3</ele>
        <time>2007-07-19T16:55:30Z</time>
      </trkpt>
      <trkpt lat="44.54207" lon="6.01236">
        <ele>971.8</ele>
        <time>2007-07-19T16:55:30Z</time>
      </trkpt>
      <trkpt lat="44.542" lon="6.01255">
        <ele>972.2</ele>
        <time>2007-07-19T16:55:30Z</time>
      </trkpt>
      <trkpt lat="44.5419" lon="6.01273">
        <ele>971.9</ele>
        <time>2007-07-19T16:55:30Z</time>
      </trkpt>
      <trkpt lat="44.54178" lon="6.01291">
        <ele>970.5</ele>
        <time>2007-07-19T16:55:30Z</time>
      </trkpt>
      <trkpt lat="44.54165" lon="6.01297">
        <ele>968.6</ele>
        <time>2007-07-19T16:55:30Z</time>
      </trkpt>
      <trkpt lat="44.54149" lon="6.01299">
        <ele>967.5</ele>
        <time>2007-07-19T16:55:30Z</time>
      </trkpt>
      <trkpt lat="44.54131" lon="6.01298">
        <ele>966.2</ele>
        <time>2007-07-19T16:55:30Z</time>
      </trkpt>
      <trkpt lat="44.54115" lon="6.01293">
        <ele>964.8</ele>
        <time>2007-07-19T16:55:30Z</time>
      </trkpt>
      <trkpt lat="44.54098" lon="6.0128">
        <ele>963.6</ele>
        <time>2007-07-19T16:55:30Z</time>
      </trkpt>
      <trkpt lat="44.54085" lon="6.01266">
        <ele>963.1</ele>
        <time>2007-07-19T16:55:30Z</time>
      </trkpt>
      <trkpt lat="44.54067" lon="6.01252">
        <ele>961.8</ele>
        <time>2007-07-19T16:55:30Z</time>
      </trkpt>
      <trkpt lat="44.5405" lon="6.01236">
        <ele>961.4</ele>
        <time>2007-07-19T16:55:30Z</time>
      </trkpt>
      <trkpt lat="44.54034" lon="6.01219">
        <ele>961.2</ele>
        <time>2007-07-19T16:55:30Z</time>
      </trkpt>
      <trkpt lat="44.54024" lon="6.01199">
        <ele>961</ele>
        <time>2007-07-19T16:55:30Z</time>
      </trkpt>
      <trkpt lat="44.54022" lon="6.01174">
        <ele>961</ele>
        <time>2007-07-19T16:55:30Z</time>
      </trkpt>
      <trkpt lat="44.54021" lon="6.01149">
        <ele>961.5</ele>
        <time>2007-07-19T16:55:30Z</time>
      </trkpt>
      <trkpt lat="44.54022" lon="6.0112">
        <ele>961.8</ele>
        <time>2007-07-19T16:55:30Z</time>
      </trkpt>
      <trkpt lat="44.5402" lon="6.01095">
        <ele>961.7</ele>
        <time>2007-07-19T16:55:30Z</time>
      </trkpt>
      <trkpt lat="44.54021" lon="6.01073">
        <ele>962.1</ele>
        <time>2007-07-19T16:55:30Z</time>
      </trkpt>
      <trkpt lat="44.5402" lon="6.01048">
        <ele>963</ele>
        <time>2007-07-19T16:55:30Z</time>
      </trkpt>
      <trkpt lat="44.54018" lon="6.0102">
        <ele>963.9</ele>
        <time>2007-07-19T16:55:30Z</time>
      </trkpt>
      <trkpt lat="44.54017" lon="6.00997">
        <ele>964.7</ele>
        <time>2007-07-19T16:55:30Z</time>
      </trkpt>
      <trkpt lat="44.54015" lon="6.00975">
        <ele>965</ele>
        <time>2007-07-19T16:55:30Z</time>
      </trkpt>
      <trkpt lat="44.54016" lon="6.0095">
        <ele>965</ele>
        <time>2007-07-19T16:55:30Z</time>
      </trkpt>
      <trkpt lat="44.54015" lon="6.00928">
        <ele>964.4</ele>
        <time>2007-07-19T16:55:30Z</time>
      </trkpt>
      <trkpt lat="44.54004" lon="6.00912">
        <ele>964</ele>
        <time>2007-07-19T16:55:30Z</time>
      </trkpt>
      <trkpt lat="44.53993" lon="6.00895">
        <ele>964.4</ele>
        <time>2007-07-19T16:55:30Z</time>
      </trkpt>
      <trkpt lat="44.53992" lon="6.00873">
        <ele>965.1</ele>
        <time>2007-07-19T16:55:30Z</time>
      </trkpt>
      <trkpt lat="44.53995" lon="6.00851">
        <ele>965.7</ele>
        <time>2007-07-19T16:55:30Z</time>
      </trkpt>
      <trkpt lat="44.53998" lon="6.00829">
        <ele>966.1</ele>
        <time>2007-07-19T16:55:30Z</time>
      </trkpt>
      <trkpt lat="44.53999" lon="6.00804">
        <ele>966</ele>
        <time>2007-07-19T16:55:30Z</time>
      </trkpt>
      <trkpt lat="44.54" lon="6.00779">
        <ele>965</ele>
        <time>2007-07-19T16:55:30Z</time>
      </trkpt>
      <trkpt lat="44.53993" lon="6.0076">
        <ele>965.3</ele>
        <time>2007-07-19T16:55:30Z</time>
      </trkpt>
      <trkpt lat="44.53985" lon="6.0074">
        <ele>965.7</ele>
        <time>2007-07-19T16:55:30Z</time>
      </trkpt>
      <trkpt lat="44.53977" lon="6.00721">
        <ele>966.7</ele>
        <time>2007-07-19T16:55:30Z</time>
      </trkpt>
      <trkpt lat="44.53961" lon="6.00717">
        <ele>967.2</ele>
        <time>2007-07-19T16:55:30Z</time>
      </trkpt>
      <trkpt lat="44.53946" lon="6.0071">
        <ele>967.4</ele>
        <time>2007-07-19T16:55:30Z</time>
      </trkpt>
      <trkpt lat="44.53932" lon="6.00699">
        <ele>967.8</ele>
        <time>2007-07-19T16:55:30Z</time>
      </trkpt>
      <trkpt lat="44.53917" lon="6.00682">
        <ele>968</ele>
        <time>2007-07-19T16:55:30Z</time>
      </trkpt>
      <trkpt lat="44.53902" lon="6.00666">
        <ele>968</ele>
        <time>2007-07-19T16:55:30Z</time>
      </trkpt>
      <trkpt lat="44.53891" lon="6.00649">
        <ele>968</ele>
        <time>2007-07-19T16:55:30Z</time>
      </trkpt>
      <trkpt lat="44.53878" lon="6.00633">
        <ele>968</ele>
        <time>2007-07-19T16:55:30Z</time>
      </trkpt>
      <trkpt lat="44.53863" lon="6.00622">
        <ele>968.3</ele>
        <time>2007-07-19T16:55:30Z</time>
      </trkpt>
      <trkpt lat="44.5385" lon="6.00609">
        <ele>968.3</ele>
        <time>2007-07-19T16:55:30Z</time>
      </trkpt>
      <trkpt lat="44.53835" lon="6.00598">
        <ele>968</ele>
        <time>2007-07-19T16:55:30Z</time>
      </trkpt>
      <trkpt lat="44.53819" lon="6.00582">
        <ele>968.1</ele>
        <time>2007-07-19T16:55:30Z</time>
      </trkpt>
      <trkpt lat="44.53804" lon="6.00565">
        <ele>968.2</ele>
        <time>2007-07-19T16:55:30Z</time>
      </trkpt>
      <trkpt lat="44.53789" lon="6.00545">
        <ele>967.8</ele>
        <time>2007-07-19T16:55:30Z</time>
      </trkpt>
      <trkpt lat="44.53774" lon="6.00528">
        <ele>967.6</ele>
        <time>2007-07-19T16:55:30Z</time>
      </trkpt>
      <trkpt lat="44.53758" lon="6.00518">
        <ele>966.1</ele>
        <time>2007-07-19T16:55:30Z</time>
      </trkpt>
      <trkpt lat="44.53743" lon="6.00507">
        <ele>965.2</ele>
        <time>2007-07-19T16:55:30Z</time>
      </trkpt>
      <trkpt lat="44.53726" lon="6.00491">
        <ele>964.3</ele>
        <time>2007-07-19T16:55:30Z</time>
      </trkpt>
      <trkpt lat="44.53708" lon="6.00483">
        <ele>963.8</ele>
        <time>2007-07-19T16:55:30Z</time>
      </trkpt>
      <trkpt lat="44.53693" lon="6.0047">
        <ele>964.1</ele>
        <time>2007-07-19T16:55:30Z</time>
      </trkpt>
      <trkpt lat="44.53682" lon="6.00453">
        <ele>964.4</ele>
        <time>2007-07-19T16:55:30Z</time>
      </trkpt>
      <trkpt lat="44.53673" lon="6.00434">
        <ele>964.8</ele>
        <time>2007-07-19T16:55:30Z</time>
      </trkpt>
      <trkpt lat="44.53663" lon="6.00414">
        <ele>965.3</ele>
        <time>2007-07-19T16:55:30Z</time>
      </trkpt>
      <trkpt lat="44.53654" lon="6.00395">
        <ele>965.9</ele>
        <time>2007-07-19T16:55:30Z</time>
      </trkpt>
      <trkpt lat="44.53642" lon="6.00375">
        <ele>966.8</ele>
        <time>2007-07-19T16:55:30Z</time>
      </trkpt>
      <trkpt lat="44.53631" lon="6.00352">
        <ele>968.1</ele>
        <time>2007-07-19T16:55:30Z</time>
      </trkpt>
      <trkpt lat="44.53621" lon="6.0033">
        <ele>969.3</ele>
        <time>2007-07-19T16:55:30Z</time>
      </trkpt>
      <trkpt lat="44.5361" lon="6.0031">
        <ele>970.1</ele>
        <time>2007-07-19T16:55:30Z</time>
      </trkpt>
      <trkpt lat="44.53597" lon="6.00287">
        <ele>971.5</ele>
        <time>2007-07-19T16:55:30Z</time>
      </trkpt>
      <trkpt lat="44.53582" lon="6.00277">
        <ele>973.1</ele>
        <time>2007-07-19T16:55:30Z</time>
      </trkpt>
      <trkpt lat="44.53566" lon="6.00269">
        <ele>974.9</ele>
        <time>2007-07-19T16:55:30Z</time>
      </trkpt>
      <trkpt lat="44.53553" lon="6.00262">
        <ele>976.3</ele>
        <time>2007-07-19T16:55:30Z</time>
      </trkpt>
      <trkpt lat="44.53545" lon="6.00243">
        <ele>977.4</ele>
        <time>2007-07-19T16:55:30Z</time>
      </trkpt>
      <trkpt lat="44.53531" lon="6.00245">
        <ele>978.8</ele>
        <time>2007-07-19T16:55:30Z</time>
      </trkpt>
      <trkpt lat="44.53517" lon="6.00263">
        <ele>980.2</ele>
        <time>2007-07-19T16:55:30Z</time>
      </trkpt>
      <trkpt lat="44.53503" lon="6.00278">
        <ele>981.7</ele>
        <time>2007-07-19T16:55:30Z</time>
      </trkpt>
      <trkpt lat="44.53487" lon="6.00296">
        <ele>983.4</ele>
        <time>2007-07-19T16:55:30Z</time>
      </trkpt>
      <trkpt lat="44.53473" lon="6.0031">
        <ele>984.9</ele>
        <time>2007-07-19T16:55:30Z</time>
      </trkpt>
      <trkpt lat="44.53457" lon="6.00322">
        <ele>986.1</ele>
        <time>2007-07-19T16:55:30Z</time>
      </trkpt>
      <trkpt lat="44.5344" lon="6.00334">
        <ele>987.2</ele>
        <time>2007-07-19T16:55:30Z</time>
      </trkpt>
      <trkpt lat="44.5342" lon="6.00338">
        <ele>987.9</ele>
        <time>2007-07-19T16:55:30Z</time>
      </trkpt>
      <trkpt lat="44.53406" lon="6.00347">
        <ele>988.6</ele>
        <time>2007-07-19T16:55:30Z</time>
      </trkpt>
      <trkpt lat="44.5339" lon="6.00355">
        <ele>989.2</ele>
        <time>2007-07-19T16:55:30Z</time>
      </trkpt>
      <trkpt lat="44.53372" lon="6.00361">
        <ele>990.2</ele>
        <time>2007-07-19T16:55:30Z</time>
      </trkpt>
      <trkpt lat="44.53356" lon="6.00363">
        <ele>991.3</ele>
        <time>2007-07-19T16:55:30Z</time>
      </trkpt>
      <trkpt lat="44.53338" lon="6.00361">
        <ele>992.7</ele>
        <time>2007-07-19T16:55:30Z</time>
      </trkpt>
      <trkpt lat="44.53318" lon="6.0036">
        <ele>994.1</ele>
        <time>2007-07-19T16:55:30Z</time>
      </trkpt>
      <trkpt lat="44.533" lon="6.00362">
        <ele>995.4</ele>
        <time>2007-07-19T16:55:30Z</time>
      </trkpt>
      <trkpt lat="44.53284" lon="6.00364">
        <ele>996.4</ele>
        <time>2007-07-19T16:55:30Z</time>
      </trkpt>
      <trkpt lat="44.5327" lon="6.0037">
        <ele>997.2</ele>
        <time>2007-07-19T16:55:30Z</time>
      </trkpt>
      <trkpt lat="44.53257" lon="6.00375">
        <ele>998</ele>
        <time>2007-07-19T16:55:30Z</time>
      </trkpt>
      <trkpt lat="44.53238" lon="6.0039">
        <ele>997.9</ele>
        <time>2007-07-19T16:55:30Z</time>
      </trkpt>
      <trkpt lat="44.53224" lon="6.00398">
        <ele>997.4</ele>
        <time>2007-07-19T16:55:30Z</time>
      </trkpt>
      <trkpt lat="44.53206" lon="6.004">
        <ele>997</ele>
        <time>2007-07-19T16:55:30Z</time>
      </trkpt>
      <trkpt lat="44.53188" lon="6.00399">
        <ele>997</ele>
        <time>2007-07-19T16:55:30Z</time>
      </trkpt>
      <trkpt lat="44.5317" lon="6.00398">
        <ele>997.3</ele>
        <time>2007-07-19T16:55:30Z</time>
      </trkpt>
      <trkpt lat="44.53153" lon="6.00397">
        <ele>998.3</ele>
        <time>2007-07-19T16:55:30Z</time>
      </trkpt>
      <trkpt lat="44.53137" lon="6.00399">
        <ele>999.1</ele>
        <time>2007-07-19T16:55:30Z</time>
      </trkpt>
      <trkpt lat="44.53121" lon="6.00401">
        <ele>1000.3</ele>
        <time>2007-07-19T16:55:30Z</time>
      </trkpt>
      <trkpt lat="44.53105" lon="6.00406">
        <ele>1001.1</ele>
        <time>2007-07-19T16:55:30Z</time>
      </trkpt>
      <trkpt lat="44.53089" lon="6.00414">
        <ele>1001.7</ele>
        <time>2007-07-19T16:55:30Z</time>
      </trkpt>
      <trkpt lat="44.53075" lon="6.00426">
        <ele>1001.7</ele>
        <time>2007-07-19T16:55:30Z</time>
      </trkpt>
      <trkpt lat="44.53059" lon="6.00434">
        <ele>1002.2</ele>
        <time>2007-07-19T16:55:30Z</time>
      </trkpt>
      <trkpt lat="44.53039" lon="6.00433">
        <ele>1003</ele>
        <time>2007-07-19T16:55:30Z</time>
      </trkpt>
      <trkpt lat="44.53025" lon="6.00442">
        <ele>1003.1</ele>
        <time>2007-07-19T16:55:30Z</time>
      </trkpt>
      <trkpt lat="44.53013" lon="6.0046">
        <ele>1002.5</ele>
        <time>2007-07-19T16:55:30Z</time>
      </trkpt>
      <trkpt lat="44.52999" lon="6.00475">
        <ele>1003</ele>
        <time>2007-07-19T16:55:30Z</time>
      </trkpt>
      <trkpt lat="44.52983" lon="6.00489">
        <ele>1003.6</ele>
        <time>2007-07-19T16:55:30Z</time>
      </trkpt>
      <trkpt lat="44.52969" lon="6.00501">
        <ele>1004.2</ele>
        <time>2007-07-19T16:55:30Z</time>
      </trkpt>
      <trkpt lat="44.52953" lon="6.00522">
        <ele>1004.8</ele>
        <time>2007-07-19T16:55:30Z</time>
      </trkpt>
      <trkpt lat="44.52936" lon="6.0054">
        <ele>1004.6</ele>
        <time>2007-07-19T16:55:30Z</time>
      </trkpt>
      <trkpt lat="44.52922" lon="6.00564">
        <ele>1003.9</ele>
        <time>2007-07-19T16:55:30Z</time>
      </trkpt>
      <trkpt lat="44.52906" lon="6.00579">
        <ele>1004.1</ele>
        <time>2007-07-19T16:55:30Z</time>
      </trkpt>
      <trkpt lat="44.52887" lon="6.0059">
        <ele>1003.9</ele>
        <time>2007-07-19T16:55:30Z</time>
      </trkpt>
      <trkpt lat="44.52871" lon="6.00598">
        <ele>1004.4</ele>
        <time>2007-07-19T16:55:30Z</time>
      </trkpt>
      <trkpt lat="44.52855" lon="6.0061">
        <ele>1004.5</ele>
        <time>2007-07-19T16:55:30Z</time>
      </trkpt>
      <trkpt lat="44.52839" lon="6.00622">
        <ele>1004.8</ele>
        <time>2007-07-19T16:55:30Z</time>
      </trkpt>
      <trkpt lat="44.5282" lon="6.00639">
        <ele>1004.5</ele>
        <time>2007-07-19T16:55:30Z</time>
      </trkpt>
      <trkpt lat="44.52811" lon="6.00661">
        <ele>1003.2</ele>
        <time>2007-07-19T16:55:30Z</time>
      </trkpt>
      <trkpt lat="44.52805" lon="6.00679">
        <ele>1001.7</ele>
        <time>2007-07-19T16:55:30Z</time>
      </trkpt>
      <trkpt lat="44.52794" lon="6.007">
        <ele>999.9</ele>
        <time>2007-07-19T16:55:30Z</time>
      </trkpt>
      <trkpt lat="44.5278" lon="6.00712">
        <ele>998.1</ele>
        <time>2007-07-19T16:55:30Z</time>
      </trkpt>
      <trkpt lat="44.52766" lon="6.00721">
        <ele>995.9</ele>
        <time>2007-07-19T16:55:30Z</time>
      </trkpt>
      <trkpt lat="44.5275" lon="6.00729">
        <ele>993</ele>
        <time>2007-07-19T16:55:30Z</time>
      </trkpt>
      <trkpt lat="44.52734" lon="6.00734">
        <ele>990.8</ele>
        <time>2007-07-19T16:55:30Z</time>
      </trkpt>
      <trkpt lat="44.52718" lon="6.00739">
        <ele>988.1</ele>
        <time>2007-07-19T16:55:30Z</time>
      </trkpt>
      <trkpt lat="44.52702" lon="6.00745">
        <ele>984.4</ele>
        <time>2007-07-19T16:55:30Z</time>
      </trkpt>
      <trkpt lat="44.52682" lon="6.00743">
        <ele>982.8</ele>
        <time>2007-07-19T16:55:30Z</time>
      </trkpt>
      <trkpt lat="44.52664" lon="6.00742">
        <ele>980.9</ele>
        <time>2007-07-19T16:55:30Z</time>
      </trkpt>
      <trkpt lat="44.52646" lon="6.00741">
        <ele>978.4</ele>
        <time>2007-07-19T16:55:30Z</time>
      </trkpt>
      <trkpt lat="44.52626" lon="6.0074">
        <ele>975.5</ele>
        <time>2007-07-19T16:55:30Z</time>
      </trkpt>
      <trkpt lat="44.52608" lon="6.00739">
        <ele>973</ele>
        <time>2007-07-19T16:55:30Z</time>
      </trkpt>
      <trkpt lat="44.5259" lon="6.00737">
        <ele>971.2</ele>
        <time>2007-07-19T16:55:30Z</time>
      </trkpt>
      <trkpt lat="44.52572" lon="6.00736">
        <ele>969.3</ele>
        <time>2007-07-19T16:55:30Z</time>
      </trkpt>
      <trkpt lat="44.52554" lon="6.00735">
        <ele>967.6</ele>
        <time>2007-07-19T16:55:30Z</time>
      </trkpt>
      <trkpt lat="44.52536" lon="6.00734">
        <ele>966.1</ele>
        <time>2007-07-19T16:55:30Z</time>
      </trkpt>
      <trkpt lat="44.5252" lon="6.0073">
        <ele>965.4</ele>
        <time>2007-07-19T16:55:30Z</time>
      </trkpt>
      <trkpt lat="44.52505" lon="6.00726">
        <ele>964.9</ele>
        <time>2007-07-19T16:55:30Z</time>
      </trkpt>
      <trkpt lat="44.52487" lon="6.00718">
        <ele>965.5</ele>
        <time>2007-07-19T16:55:30Z</time>
      </trkpt>
      <trkpt lat="44.52469" lon="6.00717">
        <ele>965.7</ele>
        <time>2007-07-19T16:55:30Z</time>
      </trkpt>
      <trkpt lat="44.52451" lon="6.00716">
        <ele>966.3</ele>
        <time>2007-07-19T16:55:30Z</time>
      </trkpt>
      <trkpt lat="44.52433" lon="6.00715">
        <ele>966.8</ele>
        <time>2007-07-19T16:55:30Z</time>
      </trkpt>
      <trkpt lat="44.52417" lon="6.00717">
        <ele>967.2</ele>
        <time>2007-07-19T16:55:30Z</time>
      </trkpt>
      <trkpt lat="44.52401" lon="6.00722">
        <ele>967</ele>
        <time>2007-07-19T16:55:30Z</time>
      </trkpt>
      <trkpt lat="44.5239" lon="6.00734">
        <ele>966.6</ele>
        <time>2007-07-19T16:55:30Z</time>
      </trkpt>
      <trkpt lat="44.52373" lon="6.00745">
        <ele>966.2</ele>
        <time>2007-07-19T16:55:30Z</time>
      </trkpt>
      <trkpt lat="44.52357" lon="6.00757">
        <ele>965.6</ele>
        <time>2007-07-19T16:55:30Z</time>
      </trkpt>
      <trkpt lat="44.52344" lon="6.00762">
        <ele>965.8</ele>
        <time>2007-07-19T16:55:30Z</time>
      </trkpt>
      <trkpt lat="44.5233" lon="6.00771">
        <ele>965.6</ele>
        <time>2007-07-19T16:55:30Z</time>
      </trkpt>
      <trkpt lat="44.52314" lon="6.00773">
        <ele>966.2</ele>
        <time>2007-07-19T16:55:30Z</time>
      </trkpt>
      <trkpt lat="44.52298" lon="6.00775">
        <ele>966.5</ele>
        <time>2007-07-19T16:55:30Z</time>
      </trkpt>
      <trkpt lat="44.52285" lon="6.00768">
        <ele>967.5</ele>
        <time>2007-07-19T16:55:30Z</time>
      </trkpt>
      <trkpt lat="44.52285" lon="6.00749">
        <ele>969</ele>
        <time>2007-07-19T16:55:30Z</time>
      </trkpt>
      <trkpt lat="44.52291" lon="6.00727">
        <ele>969.8</ele>
        <time>2007-07-19T16:55:30Z</time>
      </trkpt>
      <trkpt lat="44.52296" lon="6.00706">
        <ele>970.2</ele>
        <time>2007-07-19T16:55:30Z</time>
      </trkpt>
      <trkpt lat="44.52299" lon="6.00684">
        <ele>970.5</ele>
        <time>2007-07-19T16:55:30Z</time>
      </trkpt>
      <trkpt lat="44.52302" lon="6.00662">
        <ele>970.9</ele>
        <time>2007-07-19T16:55:30Z</time>
      </trkpt>
      <trkpt lat="44.52314" lon="6.00644">
        <ele>972.1</ele>
        <time>2007-07-19T16:55:30Z</time>
      </trkpt>
      <trkpt lat="44.52328" lon="6.00626">
        <ele>973.6</ele>
        <time>2007-07-19T16:55:30Z</time>
      </trkpt>
      <trkpt lat="44.52326" lon="6.00604">
        <ele>974.7</ele>
        <time>2007-07-19T16:55:30Z</time>
      </trkpt>
      <trkpt lat="44.52318" lon="6.00584">
        <ele>974.9</ele>
        <time>2007-07-19T16:55:30Z</time>
      </trkpt>
      <trkpt lat="44.52305" lon="6.00577">
        <ele>973.9</ele>
        <time>2007-07-19T16:55:30Z</time>
      </trkpt>
      <trkpt lat="44.52291" lon="6.0057">
        <ele>972.7</ele>
        <time>2007-07-19T16:55:30Z</time>
      </trkpt>
      <trkpt lat="44.52278" lon="6.00563">
        <ele>971.8</ele>
        <time>2007-07-19T16:55:30Z</time>
      </trkpt>
      <trkpt lat="44.52263" lon="6.00559">
        <ele>971.3</ele>
        <time>2007-07-19T16:55:30Z</time>
      </trkpt>
      <trkpt lat="44.52247" lon="6.00555">
        <ele>970.9</ele>
        <time>2007-07-19T16:55:30Z</time>
      </trkpt>
      <trkpt lat="44.52229" lon="6.00547">
        <ele>970.8</ele>
        <time>2007-07-19T16:55:30Z</time>
      </trkpt>
      <trkpt lat="44.52211" lon="6.00546">
        <ele>970.5</ele>
        <time>2007-07-19T16:55:30Z</time>
      </trkpt>
      <trkpt lat="44.52193" lon="6.00542">
        <ele>970.5</ele>
        <time>2007-07-19T16:55:30Z</time>
      </trkpt>
      <trkpt lat="44.52178" lon="6.00537">
        <ele>970.7</ele>
        <time>2007-07-19T16:55:30Z</time>
      </trkpt>
      <trkpt lat="44.5216" lon="6.0053">
        <ele>970.7</ele>
        <time>2007-07-19T16:55:30Z</time>
      </trkpt>
      <trkpt lat="44.52145" lon="6.0052">
        <ele>970.5</ele>
        <time>2007-07-19T16:55:30Z</time>
      </trkpt>
      <trkpt lat="44.52129" lon="6.00515">
        <ele>970.5</ele>
        <time>2007-07-19T16:55:30Z</time>
      </trkpt>
      <trkpt lat="44.52113" lon="6.00508">
        <ele>970.7</ele>
        <time>2007-07-19T16:55:30Z</time>
      </trkpt>
      <trkpt lat="44.52109" lon="6.00492">
        <ele>971.2</ele>
        <time>2007-07-19T16:55:30Z</time>
      </trkpt>
      <trkpt lat="44.52092" lon="6.00488">
        <ele>970.7</ele>
        <time>2007-07-19T16:55:30Z</time>
      </trkpt>
      <trkpt lat="44.52079" lon="6.00471">
        <ele>971.1</ele>
        <time>2007-07-19T16:55:30Z</time>
      </trkpt>
      <trkpt lat="44.52063" lon="6.00464">
        <ele>971.6</ele>
        <time>2007-07-19T16:55:30Z</time>
      </trkpt>
      <trkpt lat="44.5205" lon="6.00444">
        <ele>973</ele>
        <time>2007-07-19T16:55:30Z</time>
      </trkpt>
      <trkpt lat="44.52037" lon="6.00437">
        <ele>973.8</ele>
        <time>2007-07-19T16:55:30Z</time>
      </trkpt>
      <trkpt lat="44.52019" lon="6.00436">
        <ele>973.9</ele>
        <time>2007-07-19T16:55:30Z</time>
      </trkpt>
      <trkpt lat="44.52001" lon="6.00435">
        <ele>974</ele>
        <time>2007-07-19T16:55:30Z</time>
      </trkpt>
      <trkpt lat="44.51983" lon="6.00433">
        <ele>975.5</ele>
        <time>2007-07-19T16:55:30Z</time>
      </trkpt>
      <trkpt lat="44.51965" lon="6.00429">
        <ele>977.1</ele>
        <time>2007-07-19T16:55:30Z</time>
      </trkpt>
      <trkpt lat="44.51947" lon="6.00428">
        <ele>978.2</ele>
        <time>2007-07-19T16:55:30Z</time>
      </trkpt>
      <trkpt lat="44.51929" lon="6.00427">
        <ele>979.8</ele>
        <time>2007-07-19T16:55:30Z</time>
      </trkpt>
      <trkpt lat="44.51911" lon="6.00426">
        <ele>981.2</ele>
        <time>2007-07-19T16:55:30Z</time>
      </trkpt>
      <trkpt lat="44.51893" lon="6.00424">
        <ele>982.1</ele>
        <time>2007-07-19T16:55:30Z</time>
      </trkpt>
      <trkpt lat="44.51876" lon="6.0042">
        <ele>982.6</ele>
        <time>2007-07-19T16:55:30Z</time>
      </trkpt>
      <trkpt lat="44.51862" lon="6.0041">
        <ele>983.7</ele>
        <time>2007-07-19T16:55:30Z</time>
      </trkpt>
      <trkpt lat="44.51848" lon="6.00384">
        <ele>986.5</ele>
        <time>2007-07-19T16:55:30Z</time>
      </trkpt>
      <trkpt lat="44.51835" lon="6.00367">
        <ele>988.4</ele>
        <time>2007-07-19T16:55:30Z</time>
      </trkpt>
      <trkpt lat="44.51819" lon="6.00363">
        <ele>988.8</ele>
        <time>2007-07-19T16:55:30Z</time>
      </trkpt>
      <trkpt lat="44.51803" lon="6.00365">
        <ele>988.6</ele>
        <time>2007-07-19T16:55:30Z</time>
      </trkpt>
      <trkpt lat="44.51785" lon="6.00364">
        <ele>988.8</ele>
        <time>2007-07-19T16:55:30Z</time>
      </trkpt>
      <trkpt lat="44.51767" lon="6.00366">
        <ele>988.6</ele>
        <time>2007-07-19T16:55:30Z</time>
      </trkpt>
      <trkpt lat="44.51749" lon="6.00365">
        <ele>988.8</ele>
        <time>2007-07-19T16:55:30Z</time>
      </trkpt>
      <trkpt lat="44.51731" lon="6.00364">
        <ele>989.5</ele>
        <time>2007-07-19T16:55:30Z</time>
      </trkpt>
      <trkpt lat="44.51715" lon="6.00369">
        <ele>989.3</ele>
        <time>2007-07-19T16:55:30Z</time>
      </trkpt>
      <trkpt lat="44.51699" lon="6.00374">
        <ele>989</ele>
        <time>2007-07-19T16:55:30Z</time>
      </trkpt>
      <trkpt lat="44.51686" lon="6.00383">
        <ele>988.7</ele>
        <time>2007-07-19T16:55:30Z</time>
      </trkpt>
      <trkpt lat="44.51672" lon="6.00388">
        <ele>988.2</ele>
        <time>2007-07-19T16:55:30Z</time>
      </trkpt>
      <trkpt lat="44.51656" lon="6.0039">
        <ele>987.6</ele>
        <time>2007-07-19T16:55:30Z</time>
      </trkpt>
      <trkpt lat="44.5164" lon="6.00395">
        <ele>987</ele>
        <time>2007-07-19T16:55:30Z</time>
      </trkpt>
      <trkpt lat="44.51624" lon="6.00407">
        <ele>986.3</ele>
        <time>2007-07-19T16:55:30Z</time>
      </trkpt>
      <trkpt lat="44.5161" lon="6.00422">
        <ele>985.9</ele>
        <time>2007-07-19T16:55:30Z</time>
      </trkpt>
      <trkpt lat="44.51596" lon="6.00443">
        <ele>985.4</ele>
        <time>2007-07-19T16:55:30Z</time>
      </trkpt>
      <trkpt lat="44.51584" lon="6.00461">
        <ele>985</ele>
        <time>2007-07-19T16:55:30Z</time>
      </trkpt>
      <trkpt lat="44.51581" lon="6.00483">
        <ele>984.6</ele>
        <time>2007-07-19T16:55:30Z</time>
      </trkpt>
      <trkpt lat="44.5158" lon="6.00505">
        <ele>983.8</ele>
        <time>2007-07-19T16:55:30Z</time>
      </trkpt>
      <trkpt lat="44.51579" lon="6.00533">
        <ele>981.8</ele>
        <time>2007-07-19T16:55:30Z</time>
      </trkpt>
      <trkpt lat="44.51578" lon="6.00558">
        <ele>979.8</ele>
        <time>2007-07-19T16:55:30Z</time>
      </trkpt>
      <trkpt lat="44.51578" lon="6.0058">
        <ele>978.2</ele>
        <time>2007-07-19T16:55:30Z</time>
      </trkpt>
      <trkpt lat="44.51584" lon="6.00606">
        <ele>976.4</ele>
        <time>2007-07-19T16:55:30Z</time>
      </trkpt>
      <trkpt lat="44.51592" lon="6.00628">
        <ele>974.8</ele>
        <time>2007-07-19T16:55:30Z</time>
      </trkpt>
      <trkpt lat="44.51598" lon="6.00654">
        <ele>973.5</ele>
        <time>2007-07-19T16:55:30Z</time>
      </trkpt>
      <trkpt lat="44.51604" lon="6.00679">
        <ele>972.4</ele>
        <time>2007-07-19T16:55:30Z</time>
      </trkpt>
      <trkpt lat="44.51605" lon="6.00701">
        <ele>971.6</ele>
        <time>2007-07-19T16:55:30Z</time>
      </trkpt>
      <trkpt lat="44.51604" lon="6.00726">
        <ele>970.9</ele>
        <time>2007-07-19T16:55:30Z</time>
      </trkpt>
      <trkpt lat="44.51603" lon="6.00752">
        <ele>970.3</ele>
        <time>2007-07-19T16:55:30Z</time>
      </trkpt>
      <trkpt lat="44.516" lon="6.00777">
        <ele>970.8</ele>
        <time>2007-07-19T16:55:30Z</time>
      </trkpt>
      <trkpt lat="44.51595" lon="6.00795">
        <ele>971.2</ele>
        <time>2007-07-19T16:55:30Z</time>
      </trkpt>
      <trkpt lat="44.51588" lon="6.00817">
        <ele>971.7</ele>
        <time>2007-07-19T16:55:30Z</time>
      </trkpt>
      <trkpt lat="44.51583" lon="6.00835">
        <ele>972</ele>
        <time>2007-07-19T16:55:30Z</time>
      </trkpt>
      <trkpt lat="44.51577" lon="6.00857">
        <ele>972.2</ele>
        <time>2007-07-19T16:55:30Z</time>
      </trkpt>
      <trkpt lat="44.51572" lon="6.00875">
        <ele>972.4</ele>
        <time>2007-07-19T16:55:30Z</time>
      </trkpt>
      <trkpt lat="44.51569" lon="6.009">
        <ele>972.7</ele>
        <time>2007-07-19T16:55:30Z</time>
      </trkpt>
      <trkpt lat="44.51564" lon="6.00919">
        <ele>973.4</ele>
        <time>2007-07-19T16:55:30Z</time>
      </trkpt>
      <trkpt lat="44.51559" lon="6.00937">
        <ele>973.7</ele>
        <time>2007-07-19T16:55:30Z</time>
      </trkpt>
      <trkpt lat="44.51554" lon="6.00962">
        <ele>974.1</ele>
        <time>2007-07-19T16:55:30Z</time>
      </trkpt>
      <trkpt lat="44.51548" lon="6.00984">
        <ele>974.5</ele>
        <time>2007-07-19T16:55:30Z</time>
      </trkpt>
      <trkpt lat="44.51543" lon="6.01002">
        <ele>974.8</ele>
        <time>2007-07-19T16:55:30Z</time>
      </trkpt>
      <trkpt lat="44.51534" lon="6.01021">
        <ele>974.8</ele>
        <time>2007-07-19T16:55:30Z</time>
      </trkpt>
      <trkpt lat="44.51528" lon="6.01046">
        <ele>974.3</ele>
        <time>2007-07-19T16:55:30Z</time>
      </trkpt>
      <trkpt lat="44.51523" lon="6.0107">
        <ele>973.5</ele>
        <time>2007-07-19T16:55:30Z</time>
      </trkpt>
      <trkpt lat="44.5152" lon="6.01095">
        <ele>973.1</ele>
        <time>2007-07-19T16:55:30Z</time>
      </trkpt>
      <trkpt lat="44.51519" lon="6.0112">
        <ele>973.5</ele>
        <time>2007-07-19T16:55:30Z</time>
      </trkpt>
      <trkpt lat="44.51518" lon="6.01146">
        <ele>974.1</ele>
        <time>2007-07-19T16:55:30Z</time>
      </trkpt>
      <trkpt lat="44.51529" lon="6.01159">
        <ele>971.9</ele>
        <time>2007-07-19T16:55:30Z</time>
      </trkpt>
      <trkpt lat="44.51542" lon="6.01175">
        <ele>971.4</ele>
        <time>2007-07-19T16:55:30Z</time>
      </trkpt>
      <trkpt lat="44.51548" lon="6.01201">
        <ele>972.4</ele>
        <time>2007-07-19T16:55:30Z</time>
      </trkpt>
      <trkpt lat="44.51547" lon="6.01229">
        <ele>972.5</ele>
        <time>2007-07-19T16:55:30Z</time>
      </trkpt>
      <trkpt lat="44.51546" lon="6.01254">
        <ele>971.7</ele>
        <time>2007-07-19T16:55:30Z</time>
      </trkpt>
      <trkpt lat="44.51548" lon="6.01276">
        <ele>970.5</ele>
        <time>2007-07-19T16:55:30Z</time>
      </trkpt>
      <trkpt lat="44.51547" lon="6.01302">
        <ele>969.1</ele>
        <time>2007-07-19T16:55:30Z</time>
      </trkpt>
      <trkpt lat="44.51551" lon="6.01321">
        <ele>969.2</ele>
        <time>2007-07-19T16:55:30Z</time>
      </trkpt>
      <trkpt lat="44.51556" lon="6.01346">
        <ele>968.8</ele>
        <time>2007-07-19T16:55:30Z</time>
      </trkpt>
      <trkpt lat="44.5156" lon="6.01368">
        <ele>967.4</ele>
        <time>2007-07-19T16:55:30Z</time>
      </trkpt>
      <trkpt lat="44.51564" lon="6.01388">
        <ele>964.9</ele>
        <time>2007-07-19T16:55:30Z</time>
      </trkpt>
      <trkpt lat="44.51581" lon="6.01411">
        <ele>964</ele>
        <time>2007-07-19T16:55:30Z</time>
      </trkpt>
      <trkpt lat="44.51594" lon="6.0143">
        <ele>962.4</ele>
        <time>2007-07-19T16:55:30Z</time>
      </trkpt>
      <trkpt lat="44.51609" lon="6.0145">
        <ele>961.3</ele>
        <time>2007-07-19T16:55:30Z</time>
      </trkpt>
      <trkpt lat="44.51622" lon="6.01473">
        <ele>958.4</ele>
        <time>2007-07-19T16:55:30Z</time>
      </trkpt>
      <trkpt lat="44.51628" lon="6.01496">
        <ele>955.7</ele>
        <time>2007-07-19T16:55:30Z</time>
      </trkpt>
      <trkpt lat="44.51634" lon="6.01518">
        <ele>954.3</ele>
        <time>2007-07-19T16:55:30Z</time>
      </trkpt>
      <trkpt lat="44.51638" lon="6.0154">
        <ele>953.4</ele>
        <time>2007-07-19T16:55:30Z</time>
      </trkpt>
      <trkpt lat="44.51642" lon="6.01559">
        <ele>953.4</ele>
        <time>2007-07-19T16:55:30Z</time>
      </trkpt>
      <trkpt lat="44.51643" lon="6.01582">
        <ele>953.7</ele>
        <time>2007-07-19T16:55:30Z</time>
      </trkpt>
      <trkpt lat="44.51629" lon="6.01593">
        <ele>951.8</ele>
        <time>2007-07-19T16:55:30Z</time>
      </trkpt>
      <trkpt lat="44.51616" lon="6.01599">
        <ele>949.5</ele>
        <time>2007-07-19T16:55:30Z</time>
      </trkpt>
      <trkpt lat="44.51598" lon="6.01597">
        <ele>946.1</ele>
        <time>2007-07-19T16:55:30Z</time>
      </trkpt>
      <trkpt lat="44.5158" lon="6.01599">
        <ele>943</ele>
        <time>2007-07-19T16:55:30Z</time>
      </trkpt>
      <trkpt lat="44.51564" lon="6.01601">
        <ele>940.2</ele>
        <time>2007-07-19T16:55:30Z</time>
      </trkpt>
      <trkpt lat="44.51546" lon="6.016">
        <ele>937.2</ele>
        <time>2007-07-19T16:55:30Z</time>
      </trkpt>
      <trkpt lat="44.51528" lon="6.01599">
        <ele>934.6</ele>
        <time>2007-07-19T16:55:30Z</time>
      </trkpt>
      <trkpt lat="44.5151" lon="6.01598">
        <ele>931.3</ele>
        <time>2007-07-19T16:55:30Z</time>
      </trkpt>
      <trkpt lat="44.51492" lon="6.01597">
        <ele>928.6</ele>
        <time>2007-07-19T16:55:30Z</time>
      </trkpt>
      <trkpt lat="44.51476" lon="6.01599">
        <ele>927</ele>
        <time>2007-07-19T16:55:30Z</time>
      </trkpt>
      <trkpt lat="44.51462" lon="6.0162">
        <ele>925.9</ele>
        <time>2007-07-19T16:55:30Z</time>
      </trkpt>
      <trkpt lat="44.51454" lon="6.01638">
        <ele>925</ele>
        <time>2007-07-19T16:55:30Z</time>
      </trkpt>
      <trkpt lat="44.51443" lon="6.01653">
        <ele>923.3</ele>
        <time>2007-07-19T16:55:30Z</time>
      </trkpt>
      <trkpt lat="44.51424" lon="6.01658">
        <ele>921.1</ele>
        <time>2007-07-19T16:55:30Z</time>
      </trkpt>
      <trkpt lat="44.51404" lon="6.01654">
        <ele>918.4</ele>
        <time>2007-07-19T16:55:30Z</time>
      </trkpt>
      <trkpt lat="44.51387" lon="6.0165">
        <ele>915.9</ele>
        <time>2007-07-19T16:55:30Z</time>
      </trkpt>
      <trkpt lat="44.51369" lon="6.01645">
        <ele>913</ele>
        <time>2007-07-19T16:55:30Z</time>
      </trkpt>
      <trkpt lat="44.51351" lon="6.01644">
        <ele>909.7</ele>
        <time>2007-07-19T16:55:30Z</time>
      </trkpt>
      <trkpt lat="44.51335" lon="6.0164">
        <ele>907.2</ele>
        <time>2007-07-19T16:55:30Z</time>
      </trkpt>
      <trkpt lat="44.51317" lon="6.01636">
        <ele>904.4</ele>
        <time>2007-07-19T16:55:30Z</time>
      </trkpt>
      <trkpt lat="44.51299" lon="6.01631">
        <ele>901.7</ele>
        <time>2007-07-19T16:55:30Z</time>
      </trkpt>
      <trkpt lat="44.51282" lon="6.01627">
        <ele>899</ele>
        <time>2007-07-19T16:55:30Z</time>
      </trkpt>
      <trkpt lat="44.51266" lon="6.01623">
        <ele>897</ele>
        <time>2007-07-19T16:55:30Z</time>
      </trkpt>
      <trkpt lat="44.51253" lon="6.01616">
        <ele>895.9</ele>
        <time>2007-07-19T16:55:30Z</time>
      </trkpt>
      <trkpt lat="44.51237" lon="6.01605">
        <ele>894.8</ele>
        <time>2007-07-19T16:55:30Z</time>
      </trkpt>
      <trkpt lat="44.51224" lon="6.01595">
        <ele>894</ele>
        <time>2007-07-19T16:55:30Z</time>
      </trkpt>
      <trkpt lat="44.51206" lon="6.01588">
        <ele>892.3</ele>
        <time>2007-07-19T16:55:30Z</time>
      </trkpt>
      <trkpt lat="44.51191" lon="6.01583">
        <ele>890.7</ele>
        <time>2007-07-19T16:55:30Z</time>
      </trkpt>
      <trkpt lat="44.51173" lon="6.01582">
        <ele>888.8</ele>
        <time>2007-07-19T16:55:30Z</time>
      </trkpt>
      <trkpt lat="44.5116" lon="6.01572">
        <ele>888.1</ele>
        <time>2007-07-19T16:55:30Z</time>
      </trkpt>
      <trkpt lat="44.51151" lon="6.01556">
        <ele>888.3</ele>
        <time>2007-07-19T16:55:30Z</time>
      </trkpt>
      <trkpt lat="44.51143" lon="6.01533">
        <ele>888.9</ele>
        <time>2007-07-19T16:55:30Z</time>
      </trkpt>
      <trkpt lat="44.51127" lon="6.01523">
        <ele>887.9</ele>
        <time>2007-07-19T16:55:30Z</time>
      </trkpt>
      <trkpt lat="44.5111" lon="6.01518">
        <ele>886.2</ele>
        <time>2007-07-19T16:55:30Z</time>
      </trkpt>
      <trkpt lat="44.51096" lon="6.01511">
        <ele>885</ele>
        <time>2007-07-19T16:55:30Z</time>
      </trkpt>
      <trkpt lat="44.51083" lon="6.01501">
        <ele>883.9</ele>
        <time>2007-07-19T16:55:30Z</time>
      </trkpt>
      <trkpt lat="44.5107" lon="6.01497">
        <ele>883.1</ele>
        <time>2007-07-19T16:55:30Z</time>
      </trkpt>
      <trkpt lat="44.51052" lon="6.01492">
        <ele>881.8</ele>
        <time>2007-07-19T16:55:30Z</time>
      </trkpt>
      <trkpt lat="44.51034" lon="6.01491">
        <ele>880.7</ele>
        <time>2007-07-19T16:55:30Z</time>
      </trkpt>
      <trkpt lat="44.51016" lon="6.0149">
        <ele>879.9</ele>
        <time>2007-07-19T16:55:30Z</time>
      </trkpt>
      <trkpt lat="44.51" lon="6.01486">
        <ele>879.5</ele>
        <time>2007-07-19T16:55:30Z</time>
      </trkpt>
      <trkpt lat="44.50985" lon="6.01479">
        <ele>878.7</ele>
        <time>2007-07-19T16:55:30Z</time>
      </trkpt>
      <trkpt lat="44.50974" lon="6.01465">
        <ele>878.1</ele>
        <time>2007-07-19T16:55:30Z</time>
      </trkpt>
      <trkpt lat="44.50956" lon="6.01455">
        <ele>876.6</ele>
        <time>2007-07-19T16:55:30Z</time>
      </trkpt>
      <trkpt lat="44.50938" lon="6.01454">
        <ele>875</ele>
        <time>2007-07-19T16:55:30Z</time>
      </trkpt>
      <trkpt lat="44.50923" lon="6.01459">
        <ele>873.2</ele>
        <time>2007-07-19T16:55:30Z</time>
      </trkpt>
      <trkpt lat="44.50913" lon="6.01477">
        <ele>871.6</ele>
        <time>2007-07-19T16:55:30Z</time>
      </trkpt>
      <trkpt lat="44.50903" lon="6.01489">
        <ele>870.4</ele>
        <time>2007-07-19T16:55:30Z</time>
      </trkpt>
      <trkpt lat="44.5089" lon="6.01501">
        <ele>869.1</ele>
        <time>2007-07-19T16:55:30Z</time>
      </trkpt>
      <trkpt lat="44.50874" lon="6.01503">
        <ele>867.3</ele>
        <time>2007-07-19T16:55:30Z</time>
      </trkpt>
      <trkpt lat="44.50858" lon="6.01508">
        <ele>865.4</ele>
        <time>2007-07-19T16:55:30Z</time>
      </trkpt>
      <trkpt lat="44.50842" lon="6.01513">
        <ele>863.5</ele>
        <time>2007-07-19T16:55:30Z</time>
      </trkpt>
      <trkpt lat="44.50823" lon="6.01528">
        <ele>859.9</ele>
        <time>2007-07-19T16:55:30Z</time>
      </trkpt>
      <trkpt lat="44.5081" lon="6.0154">
        <ele>857.3</ele>
        <time>2007-07-19T16:55:30Z</time>
      </trkpt>
      <trkpt lat="44.50796" lon="6.01554">
        <ele>852.8</ele>
        <time>2007-07-19T16:55:30Z</time>
      </trkpt>
      <trkpt lat="44.50786" lon="6.01566">
        <ele>849.1</ele>
        <time>2007-07-19T16:55:30Z</time>
      </trkpt>
      <trkpt lat="44.50779" lon="6.01582">
        <ele>845.5</ele>
        <time>2007-07-19T16:55:30Z</time>
      </trkpt>
      <trkpt lat="44.50772" lon="6.01597">
        <ele>843.2</ele>
        <time>2007-07-19T16:55:30Z</time>
      </trkpt>
      <trkpt lat="44.50762" lon="6.01615">
        <ele>840</ele>
        <time>2007-07-19T16:55:30Z</time>
      </trkpt>
      <trkpt lat="44.50752" lon="6.0163">
        <ele>837.9</ele>
        <time>2007-07-19T16:55:30Z</time>
      </trkpt>
      <trkpt lat="44.50743" lon="6.01648">
        <ele>834.7</ele>
        <time>2007-07-19T16:55:30Z</time>
      </trkpt>
      <trkpt lat="44.50735" lon="6.0167">
        <ele>830.9</ele>
        <time>2007-07-19T16:55:30Z</time>
      </trkpt>
      <trkpt lat="44.50728" lon="6.01691">
        <ele>827.4</ele>
        <time>2007-07-19T16:55:30Z</time>
      </trkpt>
      <trkpt lat="44.5072" lon="6.01713">
        <ele>822.1</ele>
        <time>2007-07-19T16:55:30Z</time>
      </trkpt>
      <trkpt lat="44.50709" lon="6.01728">
        <ele>817</ele>
        <time>2007-07-19T16:55:30Z</time>
      </trkpt>
      <trkpt lat="44.50697" lon="6.01746">
        <ele>811.2</ele>
        <time>2007-07-19T16:55:30Z</time>
      </trkpt>
      <trkpt lat="44.50685" lon="6.01758">
        <ele>806.4</ele>
        <time>2007-07-19T16:55:30Z</time>
      </trkpt>
      <trkpt lat="44.50678" lon="6.01773">
        <ele>802.7</ele>
        <time>2007-07-19T16:55:30Z</time>
      </trkpt>
      <trkpt lat="44.50668" lon="6.01788">
        <ele>799.5</ele>
        <time>2007-07-19T16:55:30Z</time>
      </trkpt>
      <trkpt lat="44.50659" lon="6.01806">
        <ele>797.1</ele>
        <time>2007-07-19T16:55:30Z</time>
      </trkpt>
      <trkpt lat="44.50647" lon="6.01825">
        <ele>794.5</ele>
        <time>2007-07-19T16:55:30Z</time>
      </trkpt>
      <trkpt lat="44.50635" lon="6.01843">
        <ele>792.1</ele>
        <time>2007-07-19T16:55:30Z</time>
      </trkpt>
      <trkpt lat="44.50626" lon="6.01858">
        <ele>790.3</ele>
        <time>2007-07-19T16:55:30Z</time>
      </trkpt>
      <trkpt lat="44.50616" lon="6.01873">
        <ele>788.6</ele>
        <time>2007-07-19T16:55:30Z</time>
      </trkpt>
      <trkpt lat="44.50604" lon="6.01882">
        <ele>786.7</ele>
        <time>2007-07-19T16:55:30Z</time>
      </trkpt>
      <trkpt lat="44.50593" lon="6.01893">
        <ele>784.8</ele>
        <time>2007-07-19T16:55:30Z</time>
      </trkpt>
      <trkpt lat="44.50579" lon="6.01908">
        <ele>782.8</ele>
        <time>2007-07-19T16:55:30Z</time>
      </trkpt>
      <trkpt lat="44.50567" lon="6.01926">
        <ele>781.6</ele>
        <time>2007-07-19T16:55:30Z</time>
      </trkpt>
      <trkpt lat="44.50555" lon="6.01944">
        <ele>780.8</ele>
        <time>2007-07-19T16:55:30Z</time>
      </trkpt>
      <trkpt lat="44.50546" lon="6.01959">
        <ele>778.8</ele>
        <time>2007-07-19T16:55:30Z</time>
      </trkpt>
      <trkpt lat="44.5054" lon="6.01981">
        <ele>776.5</ele>
        <time>2007-07-19T16:55:30Z</time>
      </trkpt>
      <trkpt lat="44.50537" lon="6.02006">
        <ele>774.4</ele>
        <time>2007-07-19T16:55:30Z</time>
      </trkpt>
      <trkpt lat="44.50537" lon="6.02028">
        <ele>773.3</ele>
        <time>2007-07-19T16:55:30Z</time>
      </trkpt>
      <trkpt lat="44.50531" lon="6.02053">
        <ele>773.3</ele>
        <time>2007-07-19T16:55:30Z</time>
      </trkpt>
      <trkpt lat="44.50526" lon="6.02075">
        <ele>773.7</ele>
        <time>2007-07-19T16:55:30Z</time>
      </trkpt>
      <trkpt lat="44.50519" lon="6.02093">
        <ele>773.2</ele>
        <time>2007-07-19T16:55:30Z</time>
      </trkpt>
      <trkpt lat="44.50516" lon="6.02118">
        <ele>770.7</ele>
        <time>2007-07-19T16:55:30Z</time>
      </trkpt>
      <trkpt lat="44.5051" lon="6.0214">
        <ele>767.5</ele>
        <time>2007-07-19T16:55:30Z</time>
      </trkpt>
      <trkpt lat="44.50499" lon="6.02148">
        <ele>765.4</ele>
        <time>2007-07-19T16:55:30Z</time>
      </trkpt>
      <trkpt lat="44.50487" lon="6.02157">
        <ele>764.1</ele>
        <time>2007-07-19T16:55:30Z</time>
      </trkpt>
      <trkpt lat="44.50469" lon="6.02162">
        <ele>763.2</ele>
        <time>2007-07-19T16:55:30Z</time>
      </trkpt>
      <trkpt lat="44.50457" lon="6.02174">
        <ele>760.8</ele>
        <time>2007-07-19T16:55:30Z</time>
      </trkpt>
      <trkpt lat="44.50443" lon="6.02189">
        <ele>757.9</ele>
        <time>2007-07-19T16:55:30Z</time>
      </trkpt>
      <trkpt lat="44.50443" lon="6.02214">
        <ele>754.8</ele>
        <time>2007-07-19T16:55:30Z</time>
      </trkpt>
      <trkpt lat="44.50444" lon="6.02236">
        <ele>752.5</ele>
        <time>2007-07-19T16:55:30Z</time>
      </trkpt>
      <trkpt lat="44.50446" lon="6.02258">
        <ele>750.8</ele>
        <time>2007-07-19T16:55:30Z</time>
      </trkpt>
      <trkpt lat="44.50438" lon="6.02279">
        <ele>749.2</ele>
        <time>2007-07-19T16:55:30Z</time>
      </trkpt>
      <trkpt lat="44.50431" lon="6.02301">
        <ele>746.9</ele>
        <time>2007-07-19T16:55:30Z</time>
      </trkpt>
      <trkpt lat="44.50425" lon="6.0232">
        <ele>745.4</ele>
        <time>2007-07-19T16:55:30Z</time>
      </trkpt>
      <trkpt lat="44.50422" lon="6.02344">
        <ele>744</ele>
        <time>2007-07-19T16:55:30Z</time>
      </trkpt>
      <trkpt lat="44.50415" lon="6.02363">
        <ele>742.6</ele>
        <time>2007-07-19T16:55:30Z</time>
      </trkpt>
      <trkpt lat="44.5041" lon="6.02385">
        <ele>740.5</ele>
        <time>2007-07-19T16:55:30Z</time>
      </trkpt>
      <trkpt lat="44.50411" lon="6.02407">
        <ele>739.9</ele>
        <time>2007-07-19T16:55:30Z</time>
      </trkpt>
      <trkpt lat="44.5041" lon="6.02432">
        <ele>739.3</ele>
        <time>2007-07-19T16:55:30Z</time>
      </trkpt>
      <trkpt lat="44.50401" lon="6.0245">
        <ele>737.6</ele>
        <time>2007-07-19T16:55:30Z</time>
      </trkpt>
      <trkpt lat="44.50396" lon="6.02469">
        <ele>736.4</ele>
        <time>2007-07-19T16:55:30Z</time>
      </trkpt>
      <trkpt lat="44.50407" lon="6.02482">
        <ele>737.1</ele>
        <time>2007-07-19T16:55:30Z</time>
      </trkpt>
      <trkpt lat="44.50422" lon="6.02486">
        <ele>738.5</ele>
        <time>2007-07-19T16:55:30Z</time>
      </trkpt>
      <trkpt lat="44.50435" lon="6.02499">
        <ele>738.7</ele>
        <time>2007-07-19T16:55:30Z</time>
      </trkpt>
      <trkpt lat="44.50453" lon="6.0251">
        <ele>739</ele>
        <time>2007-07-19T16:55:30Z</time>
      </trkpt>
      <trkpt lat="44.50466" lon="6.02523">
        <ele>738.1</ele>
        <time>2007-07-19T16:55:30Z</time>
      </trkpt>
      <trkpt lat="44.50468" lon="6.02542">
        <ele>734.5</ele>
        <time>2007-07-19T16:55:30Z</time>
      </trkpt>
      <trkpt lat="44.50454" lon="6.02548">
        <ele>731.4</ele>
        <time>2007-07-19T16:55:30Z</time>
      </trkpt>
      <trkpt lat="44.50436" lon="6.02547">
        <ele>729.6</ele>
        <time>2007-07-19T16:55:30Z</time>
      </trkpt>
      <trkpt lat="44.50418" lon="6.02545">
        <ele>728.2</ele>
        <time>2007-07-19T16:55:30Z</time>
      </trkpt>
      <trkpt lat="44.50405" lon="6.02538">
        <ele>727.1</ele>
        <time>2007-07-19T16:55:30Z</time>
      </trkpt>
      <trkpt lat="44.50394" lon="6.02528">
        <ele>727.2</ele>
        <time>2007-07-19T16:55:30Z</time>
      </trkpt>
      <trkpt lat="44.5038" lon="6.02521">
        <ele>726.3</ele>
        <time>2007-07-19T16:55:30Z</time>
      </trkpt>
      <trkpt lat="44.50377" lon="6.02543">
        <ele>719.7</ele>
        <time>2007-07-19T16:55:30Z</time>
      </trkpt>
      <trkpt lat="44.50391" lon="6.02556">
        <ele>718.4</ele>
        <time>2007-07-19T16:55:30Z</time>
      </trkpt>
      <trkpt lat="44.50406" lon="6.0256">
        <ele>721.1</ele>
        <time>2007-07-19T16:55:30Z</time>
      </trkpt>
      <trkpt lat="44.50419" lon="6.02568">
        <ele>721.3</ele>
        <time>2007-07-19T16:55:30Z</time>
      </trkpt>
      <trkpt lat="44.5043" lon="6.02578">
        <ele>720.3</ele>
        <time>2007-07-19T16:55:30Z</time>
      </trkpt>
      <trkpt lat="44.50439" lon="6.02594">
        <ele>719.1</ele>
        <time>2007-07-19T16:55:30Z</time>
      </trkpt>
      <trkpt lat="44.50438" lon="6.02619">
        <ele>715.6</ele>
        <time>2007-07-19T16:55:30Z</time>
      </trkpt>
      <trkpt lat="44.50433" lon="6.02638">
        <ele>714.2</ele>
        <time>2007-07-19T16:55:30Z</time>
      </trkpt>
      <trkpt lat="44.50426" lon="6.02653">
        <ele>713.5</ele>
        <time>2007-07-19T16:55:30Z</time>
      </trkpt>
      <trkpt lat="44.50412" lon="6.02658">
        <ele>713.1</ele>
        <time>2007-07-19T16:55:30Z</time>
      </trkpt>
      <trkpt lat="44.50394" lon="6.02657">
        <ele>713.2</ele>
        <time>2007-07-19T16:55:30Z</time>
      </trkpt>
      <trkpt lat="44.50376" lon="6.02659">
        <ele>710.5</ele>
        <time>2007-07-19T16:55:30Z</time>
      </trkpt>
      <trkpt lat="44.5036" lon="6.02664">
        <ele>706.7</ele>
        <time>2007-07-19T16:55:30Z</time>
      </trkpt>
      <trkpt lat="44.50344" lon="6.02676">
        <ele>700.5</ele>
        <time>2007-07-19T16:55:30Z</time>
      </trkpt>
      <trkpt lat="44.50332" lon="6.02688">
        <ele>695.1</ele>
        <time>2007-07-19T16:55:30Z</time>
      </trkpt>
      <trkpt lat="44.50331" lon="6.02713">
        <ele>690.5</ele>
        <time>2007-07-19T16:55:30Z</time>
      </trkpt>
      <trkpt lat="44.50335" lon="6.02732">
        <ele>688.8</ele>
        <time>2007-07-19T16:55:30Z</time>
      </trkpt>
      <trkpt lat="44.50326" lon="6.02744">
        <ele>687.7</ele>
        <time>2007-07-19T16:55:30Z</time>
      </trkpt>
      <trkpt lat="44.50314" lon="6.02756">
        <ele>686.4</ele>
        <time>2007-07-19T16:55:30Z</time>
      </trkpt>
      <trkpt lat="44.503" lon="6.02767">
        <ele>684.9</ele>
        <time>2007-07-19T16:55:30Z</time>
      </trkpt>
      <trkpt lat="44.50289" lon="6.02776">
        <ele>683.8</ele>
        <time>2007-07-19T16:55:30Z</time>
      </trkpt>
      <trkpt lat="44.50279" lon="6.02788">
        <ele>683.1</ele>
        <time>2007-07-19T16:55:30Z</time>
      </trkpt>
      <trkpt lat="44.50267" lon="6.02803">
        <ele>682.6</ele>
        <time>2007-07-19T16:55:30Z</time>
      </trkpt>
      <trkpt lat="44.50258" lon="6.02815">
        <ele>682</ele>
        <time>2007-07-19T16:55:30Z</time>
      </trkpt>
      <trkpt lat="44.50246" lon="6.02836">
        <ele>681</ele>
        <time>2007-07-19T16:55:30Z</time>
      </trkpt>
      <trkpt lat="44.50232" lon="6.02851">
        <ele>681.4</ele>
        <time>2007-07-19T16:55:30Z</time>
      </trkpt>
      <trkpt lat="44.50218" lon="6.02869">
        <ele>681.5</ele>
        <time>2007-07-19T16:55:30Z</time>
      </trkpt>
      <trkpt lat="44.50208" lon="6.02887">
        <ele>680.5</ele>
        <time>2007-07-19T16:55:30Z</time>
      </trkpt>
      <trkpt lat="44.50199" lon="6.02905">
        <ele>678.8</ele>
        <time>2007-07-19T16:55:30Z</time>
      </trkpt>
      <trkpt lat="44.50191" lon="6.0293">
        <ele>676.2</ele>
        <time>2007-07-19T16:55:30Z</time>
      </trkpt>
      <trkpt lat="44.50184" lon="6.02955">
        <ele>673.6</ele>
        <time>2007-07-19T16:55:30Z</time>
      </trkpt>
      <trkpt lat="44.50176" lon="6.02976">
        <ele>672.2</ele>
        <time>2007-07-19T16:55:30Z</time>
      </trkpt>
      <trkpt lat="44.50166" lon="6.03001">
        <ele>671</ele>
        <time>2007-07-19T16:55:30Z</time>
      </trkpt>
      <trkpt lat="44.50154" lon="6.03019">
        <ele>670.5</ele>
        <time>2007-07-19T16:55:30Z</time>
      </trkpt>
      <trkpt lat="44.50145" lon="6.03037">
        <ele>670.2</ele>
        <time>2007-07-19T16:55:30Z</time>
      </trkpt>
      <trkpt lat="44.50137" lon="6.03055">
        <ele>669.9</ele>
        <time>2007-07-19T16:55:30Z</time>
      </trkpt>
      <trkpt lat="44.5013" lon="6.03077">
        <ele>669.9</ele>
        <time>2007-07-19T16:55:30Z</time>
      </trkpt>
      <trkpt lat="44.50127" lon="6.03102">
        <ele>670.7</ele>
        <time>2007-07-19T16:55:30Z</time>
      </trkpt>
      <trkpt lat="44.50126" lon="6.03127">
        <ele>671.5</ele>
        <time>2007-07-19T16:55:30Z</time>
      </trkpt>
      <trkpt lat="44.50125" lon="6.03152">
        <ele>673.7</ele>
        <time>2007-07-19T16:55:30Z</time>
      </trkpt>
      <trkpt lat="44.50107" lon="6.03151">
        <ele>674.6</ele>
        <time>2007-07-19T16:55:30Z</time>
      </trkpt>
      <trkpt lat="44.50092" lon="6.03147">
        <ele>675</ele>
        <time>2007-07-19T16:55:30Z</time>
      </trkpt>
      <trkpt lat="44.50072" lon="6.03139">
        <ele>674.8</ele>
        <time>2007-07-19T16:55:30Z</time>
      </trkpt>
      <trkpt lat="44.50061" lon="6.03126">
        <ele>673.8</ele>
        <time>2007-07-19T16:55:30Z</time>
      </trkpt>
      <trkpt lat="44.50043" lon="6.03112">
        <ele>673</ele>
        <time>2007-07-19T16:55:30Z</time>
      </trkpt>
      <trkpt lat="44.50032" lon="6.03102">
        <ele>672.8</ele>
        <time>2007-07-19T16:55:30Z</time>
      </trkpt>
      <trkpt lat="44.50024" lon="6.03086">
        <ele>671.3</ele>
        <time>2007-07-19T16:55:30Z</time>
      </trkpt>
      <trkpt lat="44.50018" lon="6.03063">
        <ele>670</ele>
        <time>2007-07-19T16:55:30Z</time>
      </trkpt>
      <trkpt lat="44.50012" lon="6.03047">
        <ele>669</ele>
        <time>2007-07-19T16:55:30Z</time>
      </trkpt>
      <trkpt lat="44.50003" lon="6.03031">
        <ele>668.1</ele>
        <time>2007-07-19T16:55:30Z</time>
      </trkpt>
      <trkpt lat="44.49993" lon="6.03011">
        <ele>667</ele>
        <time>2007-07-19T16:55:30Z</time>
      </trkpt>
      <trkpt lat="44.49982" lon="6.02995">
        <ele>666.2</ele>
        <time>2007-07-19T16:55:30Z</time>
      </trkpt>
      <trkpt lat="44.49971" lon="6.02982">
        <ele>665.3</ele>
        <time>2007-07-19T16:55:30Z</time>
      </trkpt>
      <trkpt lat="44.49963" lon="6.02968">
        <ele>664.7</ele>
        <time>2007-07-19T16:55:30Z</time>
      </trkpt>
      <trkpt lat="44.49954" lon="6.02955">
        <ele>664.3</ele>
        <time>2007-07-19T16:55:30Z</time>
      </trkpt>
      <trkpt lat="44.49941" lon="6.02948">
        <ele>664</ele>
        <time>2007-07-19T16:55:30Z</time>
      </trkpt>
      <trkpt lat="44.49925" lon="6.02944">
        <ele>664</ele>
        <time>2007-07-19T16:55:30Z</time>
      </trkpt>
      <trkpt lat="44.49914" lon="6.02931">
        <ele>664.4</ele>
        <time>2007-07-19T16:55:30Z</time>
      </trkpt>
      <trkpt lat="44.49906" lon="6.02911">
        <ele>664.7</ele>
        <time>2007-07-19T16:55:30Z</time>
      </trkpt>
      <trkpt lat="44.49902" lon="6.02889">
        <ele>665</ele>
        <time>2007-07-19T16:55:30Z</time>
      </trkpt>
      <trkpt lat="44.499" lon="6.02873">
        <ele>665.6</ele>
        <time>2007-07-19T16:55:30Z</time>
      </trkpt>
      <trkpt lat="44.49897" lon="6.02848">
        <ele>666.5</ele>
        <time>2007-07-19T16:55:30Z</time>
      </trkpt>
      <trkpt lat="44.49891" lon="6.02829">
        <ele>667.2</ele>
        <time>2007-07-19T16:55:30Z</time>
      </trkpt>
      <trkpt lat="44.49885" lon="6.02806">
        <ele>668</ele>
        <time>2007-07-19T16:55:30Z</time>
      </trkpt>
      <trkpt lat="44.49881" lon="6.02793">
        <ele>668.5</ele>
        <time>2007-07-19T16:55:30Z</time>
      </trkpt>
      <trkpt lat="44.49875" lon="6.02771">
        <ele>669.2</ele>
        <time>2007-07-19T16:55:30Z</time>
      </trkpt>
      <trkpt lat="44.49871" lon="6.02758">
        <ele>669.7</ele>
        <time>2007-07-19T16:55:30Z</time>
      </trkpt>
      <trkpt lat="44.49867" lon="6.02745">
        <ele>670.1</ele>
        <time>2007-07-19T16:55:30Z</time>
      </trkpt>
      <trkpt lat="44.49862" lon="6.02732">
        <ele>670.6</ele>
        <time>2007-07-19T16:55:30Z</time>
      </trkpt>
      <trkpt lat="44.49859" lon="6.02713">
        <ele>671.3</ele>
        <time>2007-07-19T16:55:30Z</time>
      </trkpt>
      <trkpt lat="44.4985" lon="6.02691">
        <ele>671.6</ele>
        <time>2007-07-19T16:55:30Z</time>
      </trkpt>
      <trkpt lat="44.49844" lon="6.02675">
        <ele>671.8</ele>
        <time>2007-07-19T16:55:30Z</time>
      </trkpt>
      <trkpt lat="44.49843" lon="6.02652">
        <ele>672.9</ele>
        <time>2007-07-19T16:55:30Z</time>
      </trkpt>
      <trkpt lat="44.49843" lon="6.02627">
        <ele>674.1</ele>
        <time>2007-07-19T16:55:30Z</time>
      </trkpt>
      <trkpt lat="44.4984" lon="6.02611">
        <ele>674.8</ele>
        <time>2007-07-19T16:55:30Z</time>
      </trkpt>
      <trkpt lat="44.49833" lon="6.02595">
        <ele>675.6</ele>
        <time>2007-07-19T16:55:30Z</time>
      </trkpt>
      <trkpt lat="44.49818" lon="6.02588">
        <ele>675.8</ele>
        <time>2007-07-19T16:55:30Z</time>
      </trkpt>
      <trkpt lat="44.4981" lon="6.02609">
        <ele>675.1</ele>
        <time>2007-07-19T16:55:30Z</time>
      </trkpt>
      <trkpt lat="44.49805" lon="6.02622">
        <ele>674.2</ele>
        <time>2007-07-19T16:55:30Z</time>
      </trkpt>
      <trkpt lat="44.498" lon="6.0264">
        <ele>673.2</ele>
        <time>2007-07-19T16:55:30Z</time>
      </trkpt>
      <trkpt lat="44.49795" lon="6.02652">
        <ele>672.9</ele>
        <time>2007-07-19T16:55:30Z</time>
      </trkpt>
      <trkpt lat="44.49788" lon="6.02668">
        <ele>672.6</ele>
        <time>2007-07-19T16:55:30Z</time>
      </trkpt>
      <trkpt lat="44.49779" lon="6.0268">
        <ele>672.5</ele>
        <time>2007-07-19T16:55:30Z</time>
      </trkpt>
      <trkpt lat="44.49769" lon="6.02692">
        <ele>671.8</ele>
        <time>2007-07-19T16:55:30Z</time>
      </trkpt>
      <trkpt lat="44.4976" lon="6.02707">
        <ele>670.7</ele>
        <time>2007-07-19T16:55:30Z</time>
      </trkpt>
      <trkpt lat="44.49748" lon="6.02719">
        <ele>670.1</ele>
        <time>2007-07-19T16:55:30Z</time>
      </trkpt>
      <trkpt lat="44.49736" lon="6.02737">
        <ele>669.2</ele>
        <time>2007-07-19T16:55:30Z</time>
      </trkpt>
      <trkpt lat="44.49727" lon="6.02749">
        <ele>668.2</ele>
        <time>2007-07-19T16:55:30Z</time>
      </trkpt>
      <trkpt lat="44.49717" lon="6.02764">
        <ele>667.5</ele>
        <time>2007-07-19T16:55:30Z</time>
      </trkpt>
      <trkpt lat="44.49708" lon="6.02776">
        <ele>667.1</ele>
        <time>2007-07-19T16:55:30Z</time>
      </trkpt>
      <trkpt lat="44.49705" lon="6.02804">
        <ele>666.1</ele>
        <time>2007-07-19T16:55:30Z</time>
      </trkpt>
      <trkpt lat="44.49709" lon="6.02823">
        <ele>665.4</ele>
        <time>2007-07-19T16:55:30Z</time>
      </trkpt>
      <trkpt lat="44.49713" lon="6.02839">
        <ele>664.8</ele>
        <time>2007-07-19T16:55:30Z</time>
      </trkpt>
      <trkpt lat="44.49719" lon="6.02855">
        <ele>664.2</ele>
        <time>2007-07-19T16:55:30Z</time>
      </trkpt>
      <trkpt lat="44.49725" lon="6.02871">
        <ele>664.1</ele>
        <time>2007-07-19T16:55:30Z</time>
      </trkpt>
      <trkpt lat="44.49726" lon="6.02893">
        <ele>663.9</ele>
        <time>2007-07-19T16:55:30Z</time>
      </trkpt>
      <trkpt lat="44.49728" lon="6.02915">
        <ele>663.3</ele>
        <time>2007-07-19T16:55:30Z</time>
      </trkpt>
      <trkpt lat="44.49727" lon="6.0294">
        <ele>662.3</ele>
        <time>2007-07-19T16:55:30Z</time>
      </trkpt>
      <trkpt lat="44.49722" lon="6.02962">
        <ele>661.4</ele>
        <time>2007-07-19T16:55:30Z</time>
      </trkpt>
      <trkpt lat="44.49704" lon="6.02961">
        <ele>661.1</ele>
        <time>2007-07-19T16:55:30Z</time>
      </trkpt>
      <trkpt lat="44.4969" lon="6.02966">
        <ele>660.9</ele>
        <time>2007-07-19T16:55:30Z</time>
      </trkpt>
      <trkpt lat="44.49676" lon="6.02975">
        <ele>660.2</ele>
        <time>2007-07-19T16:55:30Z</time>
      </trkpt>
      <trkpt lat="44.49663" lon="6.02983">
        <ele>659.6</ele>
        <time>2007-07-19T16:55:30Z</time>
      </trkpt>
      <trkpt lat="44.49647" lon="6.02985">
        <ele>659.5</ele>
        <time>2007-07-19T16:55:30Z</time>
      </trkpt>
      <trkpt lat="44.49633" lon="6.02988">
        <ele>659.4</ele>
        <time>2007-07-19T16:55:30Z</time>
      </trkpt>
      <trkpt lat="44.49624" lon="6.02997">
        <ele>659.1</ele>
        <time>2007-07-19T16:55:30Z</time>
      </trkpt>
      <trkpt lat="44.49617" lon="6.03012">
        <ele>658.7</ele>
        <time>2007-07-19T16:55:30Z</time>
      </trkpt>
      <trkpt lat="44.49607" lon="6.03027">
        <ele>657.9</ele>
        <time>2007-07-19T16:55:30Z</time>
      </trkpt>
      <trkpt lat="44.49598" lon="6.03039">
        <ele>657.3</ele>
        <time>2007-07-19T16:55:30Z</time>
      </trkpt>
      <trkpt lat="44.49586" lon="6.03048">
        <ele>657</ele>
        <time>2007-07-19T16:55:30Z</time>
      </trkpt>
      <trkpt lat="44.49573" lon="6.03053">
        <ele>656.7</ele>
        <time>2007-07-19T16:55:30Z</time>
      </trkpt>
      <trkpt lat="44.49563" lon="6.03068">
        <ele>656.1</ele>
        <time>2007-07-19T16:55:30Z</time>
      </trkpt>
      <trkpt lat="44.49556" lon="6.03086">
        <ele>655.9</ele>
        <time>2007-07-19T16:55:30Z</time>
      </trkpt>
      <trkpt lat="44.49551" lon="6.03102">
        <ele>655.2</ele>
        <time>2007-07-19T16:55:30Z</time>
      </trkpt>
      <trkpt lat="44.49546" lon="6.03114">
        <ele>654.6</ele>
        <time>2007-07-19T16:55:30Z</time>
      </trkpt>
      <trkpt lat="44.49539" lon="6.03126">
        <ele>654.1</ele>
        <time>2007-07-19T16:55:30Z</time>
      </trkpt>
      <trkpt lat="44.49531" lon="6.03141">
        <ele>653.2</ele>
        <time>2007-07-19T16:55:30Z</time>
      </trkpt>
      <trkpt lat="44.49524" lon="6.03157">
        <ele>653</ele>
        <time>2007-07-19T16:55:30Z</time>
      </trkpt>
      <trkpt lat="44.49515" lon="6.03169">
        <ele>653</ele>
        <time>2007-07-19T16:55:30Z</time>
      </trkpt>
      <trkpt lat="44.49503" lon="6.0318">
        <ele>652.6</ele>
        <time>2007-07-19T16:55:30Z</time>
      </trkpt>
      <trkpt lat="44.49491" lon="6.03189">
        <ele>651.6</ele>
        <time>2007-07-19T16:55:30Z</time>
      </trkpt>
      <trkpt lat="44.49476" lon="6.03191">
        <ele>650.5</ele>
        <time>2007-07-19T16:55:30Z</time>
      </trkpt>
      <trkpt lat="44.49467" lon="6.03191">
        <ele>650.4</ele>
        <time>2007-07-19T16:55:30Z</time>
      </trkpt>
      <trkpt lat="44.49458" lon="6.0319">
        <ele>650.7</ele>
        <time>2007-07-19T16:55:30Z</time>
      </trkpt>
      <trkpt lat="44.49449" lon="6.03189">
        <ele>650.9</ele>
        <time>2007-07-19T16:55:30Z</time>
      </trkpt>
      <trkpt lat="44.49435" lon="6.03182">
        <ele>650.7</ele>
        <time>2007-07-19T16:55:30Z</time>
      </trkpt>
      <trkpt lat="44.49426" lon="6.03182">
        <ele>650.3</ele>
        <time>2007-07-19T16:55:30Z</time>
      </trkpt>
      <trkpt lat="44.49415" lon="6.03175">
        <ele>650</ele>
        <time>2007-07-19T16:55:30Z</time>
      </trkpt>
      <trkpt lat="44.49406" lon="6.03174">
        <ele>649.9</ele>
        <time>2007-07-19T16:55:30Z</time>
      </trkpt>
      <trkpt lat="44.49395" lon="6.03167">
        <ele>650</ele>
        <time>2007-07-19T16:55:30Z</time>
      </trkpt>
      <trkpt lat="44.49386" lon="6.03166">
        <ele>649.9</ele>
        <time>2007-07-19T16:55:30Z</time>
      </trkpt>
      <trkpt lat="44.49373" lon="6.03159">
        <ele>649.6</ele>
        <time>2007-07-19T16:55:30Z</time>
      </trkpt>
      <trkpt lat="44.49364" lon="6.03159">
        <ele>649.4</ele>
        <time>2007-07-19T16:55:30Z</time>
      </trkpt>
      <trkpt lat="44.49351" lon="6.03152">
        <ele>649.3</ele>
        <time>2007-07-19T16:55:30Z</time>
      </trkpt>
      <trkpt lat="44.4934" lon="6.03145">
        <ele>649.2</ele>
        <time>2007-07-19T16:55:30Z</time>
      </trkpt>
      <trkpt lat="44.49324" lon="6.03137">
        <ele>648.7</ele>
        <time>2007-07-19T16:55:30Z</time>
      </trkpt>
      <trkpt lat="44.49315" lon="6.03137">
        <ele>648.4</ele>
        <time>2007-07-19T16:55:30Z</time>
      </trkpt>
      <trkpt lat="44.493" lon="6.03129">
        <ele>648.2</ele>
        <time>2007-07-19T16:55:30Z</time>
      </trkpt>
      <trkpt lat="44.49289" lon="6.03122">
        <ele>648</ele>
        <time>2007-07-19T16:55:30Z</time>
      </trkpt>
      <trkpt lat="44.49278" lon="6.03118">
        <ele>647.8</ele>
        <time>2007-07-19T16:55:30Z</time>
      </trkpt>
      <trkpt lat="44.49264" lon="6.03111">
        <ele>647.5</ele>
        <time>2007-07-19T16:55:30Z</time>
      </trkpt>
      <trkpt lat="44.49251" lon="6.03101">
        <ele>647.4</ele>
        <time>2007-07-19T16:55:30Z</time>
      </trkpt>
      <trkpt lat="44.4924" lon="6.03097">
        <ele>647.1</ele>
        <time>2007-07-19T16:55:30Z</time>
      </trkpt>
      <trkpt lat="44.49229" lon="6.03093">
        <ele>646.9</ele>
        <time>2007-07-19T16:55:30Z</time>
      </trkpt>
      <trkpt lat="44.49216" lon="6.03086">
        <ele>646.7</ele>
        <time>2007-07-19T16:55:30Z</time>
      </trkpt>
      <trkpt lat="44.49207" lon="6.03082">
        <ele>646.5</ele>
        <time>2007-07-19T16:55:30Z</time>
      </trkpt>
      <trkpt lat="44.49194" lon="6.03075">
        <ele>646.3</ele>
        <time>2007-07-19T16:55:30Z</time>
      </trkpt>
      <trkpt lat="44.49183" lon="6.03071">
        <ele>645.8</ele>
        <time>2007-07-19T16:55:30Z</time>
      </trkpt>
      <trkpt lat="44.49174" lon="6.03071">
        <ele>645.4</ele>
        <time>2007-07-19T16:55:30Z</time>
      </trkpt>
      <trkpt lat="44.49165" lon="6.0307">
        <ele>645</ele>
        <time>2007-07-19T16:55:30Z</time>
      </trkpt>
      <trkpt lat="44.49156" lon="6.03073">
        <ele>645</ele>
        <time>2007-07-19T16:55:30Z</time>
      </trkpt>
      <trkpt lat="44.49144" lon="6.03075">
        <ele>645</ele>
        <time>2007-07-19T16:55:30Z</time>
      </trkpt>
      <trkpt lat="44.49135" lon="6.03074">
        <ele>645</ele>
        <time>2007-07-19T16:55:30Z</time>
      </trkpt>
      <trkpt lat="44.49126" lon="6.03074">
        <ele>644.8</ele>
        <time>2007-07-19T16:55:30Z</time>
      </trkpt>
      <trkpt lat="44.49117" lon="6.03067">
        <ele>644.5</ele>
        <time>2007-07-19T16:55:30Z</time>
      </trkpt>
      <trkpt lat="44.49109" lon="6.0306">
        <ele>644.1</ele>
        <time>2007-07-19T16:55:30Z</time>
      </trkpt>
      <trkpt lat="44.49096" lon="6.03047">
        <ele>644.1</ele>
        <time>2007-07-19T16:55:30Z</time>
      </trkpt>
      <trkpt lat="44.49087" lon="6.0304">
        <ele>644.1</ele>
        <time>2007-07-19T16:55:30Z</time>
      </trkpt>
      <trkpt lat="44.49076" lon="6.03036">
        <ele>643.8</ele>
        <time>2007-07-19T16:55:30Z</time>
      </trkpt>
      <trkpt lat="44.49067" lon="6.03032">
        <ele>643.5</ele>
        <time>2007-07-19T16:55:30Z</time>
      </trkpt>
      <trkpt lat="44.49056" lon="6.03028">
        <ele>643</ele>
        <time>2007-07-19T16:55:30Z</time>
      </trkpt>
      <trkpt lat="44.49045" lon="6.03025">
        <ele>643.1</ele>
        <time>2007-07-19T16:55:30Z</time>
      </trkpt>
      <trkpt lat="44.49031" lon="6.0302">
        <ele>643</ele>
        <time>2007-07-19T16:55:30Z</time>
      </trkpt>
      <trkpt lat="44.49022" lon="6.03017">
        <ele>642.9</ele>
        <time>2007-07-19T16:55:30Z</time>
      </trkpt>
      <trkpt lat="44.49011" lon="6.03016">
        <ele>642.7</ele>
        <time>2007-07-19T16:55:30Z</time>
      </trkpt>
      <trkpt lat="44.49" lon="6.03015">
        <ele>642.5</ele>
        <time>2007-07-19T16:55:30Z</time>
      </trkpt>
      <trkpt lat="44.48989" lon="6.03015">
        <ele>642.5</ele>
        <time>2007-07-19T16:55:30Z</time>
      </trkpt>
      <trkpt lat="44.4898" lon="6.03014">
        <ele>642.5</ele>
        <time>2007-07-19T16:55:30Z</time>
      </trkpt>
      <trkpt lat="44.48971" lon="6.03013">
        <ele>642.5</ele>
        <time>2007-07-19T16:55:30Z</time>
      </trkpt>
      <trkpt lat="44.48962" lon="6.03013">
        <ele>642.3</ele>
        <time>2007-07-19T16:55:30Z</time>
      </trkpt>
      <trkpt lat="44.48953" lon="6.03012">
        <ele>642.2</ele>
        <time>2007-07-19T16:55:30Z</time>
      </trkpt>
      <trkpt lat="44.48944" lon="6.03012">
        <ele>642</ele>
        <time>2007-07-19T16:55:30Z</time>
      </trkpt>
      <trkpt lat="44.48935" lon="6.03011">
        <ele>642</ele>
        <time>2007-07-19T16:55:30Z</time>
      </trkpt>
      <trkpt lat="44.48926" lon="6.0301">
        <ele>642</ele>
        <time>2007-07-19T16:55:30Z</time>
      </trkpt>
      <trkpt lat="44.48917" lon="6.03007">
        <ele>642</ele>
        <time>2007-07-19T16:55:30Z</time>
      </trkpt>
      <trkpt lat="44.48908" lon="6.03006">
        <ele>641.6</ele>
        <time>2007-07-19T16:55:30Z</time>
      </trkpt>
      <trkpt lat="44.48899" lon="6.03006">
        <ele>641.2</ele>
        <time>2007-07-19T16:55:30Z</time>
      </trkpt>
      <trkpt lat="44.4889" lon="6.03005">
        <ele>640.9</ele>
        <time>2007-07-19T16:55:30Z</time>
      </trkpt>
      <trkpt lat="44.48879" lon="6.03004">
        <ele>640.9</ele>
        <time>2007-07-19T16:55:30Z</time>
      </trkpt>
      <trkpt lat="44.4887" lon="6.03004">
        <ele>641</ele>
        <time>2007-07-19T16:55:30Z</time>
      </trkpt>
      <trkpt lat="44.48861" lon="6.03003">
        <ele>641</ele>
        <time>2007-07-19T16:55:30Z</time>
      </trkpt>
      <trkpt lat="44.48852" lon="6.03002">
        <ele>640.7</ele>
        <time>2007-07-19T16:55:30Z</time>
      </trkpt>
      <trkpt lat="44.4884" lon="6.03005">
        <ele>640.2</ele>
        <time>2007-07-19T16:55:30Z</time>
      </trkpt>
      <trkpt lat="44.48829" lon="6.03007">
        <ele>640</ele>
        <time>2007-07-19T16:55:30Z</time>
      </trkpt>
      <trkpt lat="44.4882" lon="6.03007">
        <ele>639.9</ele>
        <time>2007-07-19T16:55:30Z</time>
      </trkpt>
      <trkpt lat="44.48807" lon="6.03009">
        <ele>639.7</ele>
        <time>2007-07-19T16:55:30Z</time>
      </trkpt>
      <trkpt lat="44.48795" lon="6.03011">
        <ele>639.4</ele>
        <time>2007-07-19T16:55:30Z</time>
      </trkpt>
      <trkpt lat="44.48782" lon="6.03017">
        <ele>639.1</ele>
        <time>2007-07-19T16:55:30Z</time>
      </trkpt>
      <trkpt lat="44.48773" lon="6.03016">
        <ele>638.9</ele>
        <time>2007-07-19T16:55:30Z</time>
      </trkpt>
      <trkpt lat="44.48764" lon="6.03015">
        <ele>638.7</ele>
        <time>2007-07-19T16:55:30Z</time>
      </trkpt>
      <trkpt lat="44.48755" lon="6.03015">
        <ele>638.6</ele>
        <time>2007-07-19T16:55:30Z</time>
      </trkpt>
      <trkpt lat="44.48746" lon="6.03014">
        <ele>638.8</ele>
        <time>2007-07-19T16:55:30Z</time>
      </trkpt>
      <trkpt lat="44.48737" lon="6.03014">
        <ele>639.4</ele>
        <time>2007-07-19T16:55:30Z</time>
      </trkpt>
      <trkpt lat="44.48728" lon="6.03013">
        <ele>640</ele>
        <time>2007-07-19T16:55:30Z</time>
      </trkpt>
      <trkpt lat="44.48719" lon="6.03013">
        <ele>640.8</ele>
        <time>2007-07-19T16:55:30Z</time>
      </trkpt>
      <trkpt lat="44.4871" lon="6.03006">
        <ele>640.7</ele>
        <time>2007-07-19T16:55:30Z</time>
      </trkpt>
      <trkpt lat="44.48701" lon="6.02993">
        <ele>639.3</ele>
        <time>2007-07-19T16:55:30Z</time>
      </trkpt>
      <trkpt lat="44.48693" lon="6.02979">
        <ele>638.5</ele>
        <time>2007-07-19T16:55:30Z</time>
      </trkpt>
      <trkpt lat="44.48686" lon="6.02973">
        <ele>637.8</ele>
        <time>2007-07-19T16:55:30Z</time>
      </trkpt>
      <trkpt lat="44.48675" lon="6.02963">
        <ele>637.5</ele>
        <time>2007-07-19T16:55:30Z</time>
      </trkpt>
      <trkpt lat="44.48667" lon="6.02956">
        <ele>637.6</ele>
        <time>2007-07-19T16:55:30Z</time>
      </trkpt>
      <trkpt lat="44.48656" lon="6.02949">
        <ele>637.2</ele>
        <time>2007-07-19T16:55:30Z</time>
      </trkpt>
      <trkpt lat="44.48647" lon="6.02945">
        <ele>636.6</ele>
        <time>2007-07-19T16:55:30Z</time>
      </trkpt>
      <trkpt lat="44.4864" lon="6.02938">
        <ele>636.5</ele>
        <time>2007-07-19T16:55:30Z</time>
      </trkpt>
      <trkpt lat="44.48634" lon="6.02931">
        <ele>636.9</ele>
        <time>2007-07-19T16:55:30Z</time>
      </trkpt>
      <trkpt lat="44.48627" lon="6.02925">
        <ele>636.9</ele>
        <time>2007-07-19T16:55:30Z</time>
      </trkpt>
      <trkpt lat="44.48619" lon="6.02912">
        <ele>636.5</ele>
        <time>2007-07-19T16:55:30Z</time>
      </trkpt>
      <trkpt lat="44.4861" lon="6.02905">
        <ele>636</ele>
        <time>2007-07-19T16:55:30Z</time>
      </trkpt>
      <trkpt lat="44.48601" lon="6.02895">
        <ele>635.7</ele>
        <time>2007-07-19T16:55:30Z</time>
      </trkpt>
      <trkpt lat="44.48592" lon="6.02891">
        <ele>635.4</ele>
        <time>2007-07-19T16:55:30Z</time>
      </trkpt>
      <trkpt lat="44.48583" lon="6.0289">
        <ele>635</ele>
        <time>2007-07-19T16:55:30Z</time>
      </trkpt>
      <trkpt lat="44.48577" lon="6.02887">
        <ele>635.1</ele>
        <time>2007-07-19T16:55:30Z</time>
      </trkpt>
      <trkpt lat="44.48565" lon="6.02883">
        <ele>635.4</ele>
        <time>2007-07-19T16:55:30Z</time>
      </trkpt>
      <trkpt lat="44.48556" lon="6.02882">
        <ele>635.5</ele>
        <time>2007-07-19T16:55:30Z</time>
      </trkpt>
      <trkpt lat="44.48545" lon="6.02882">
        <ele>635.5</ele>
        <time>2007-07-19T16:55:30Z</time>
      </trkpt>
      <trkpt lat="44.48536" lon="6.02878">
        <ele>635.8</ele>
        <time>2007-07-19T16:55:30Z</time>
      </trkpt>
      <trkpt lat="44.48527" lon="6.02877">
        <ele>635.9</ele>
        <time>2007-07-19T16:55:30Z</time>
      </trkpt>
      <trkpt lat="44.48519" lon="6.0287">
        <ele>636.4</ele>
        <time>2007-07-19T16:55:30Z</time>
      </trkpt>
      <trkpt lat="44.48512" lon="6.02867">
        <ele>636.6</ele>
        <time>2007-07-19T16:55:30Z</time>
      </trkpt>
      <trkpt lat="44.48503" lon="6.0286">
        <ele>637.1</ele>
        <time>2007-07-19T16:55:30Z</time>
      </trkpt>
      <trkpt lat="44.48497" lon="6.02856">
        <ele>637.3</ele>
        <time>2007-07-19T16:55:30Z</time>
      </trkpt>
      <trkpt lat="44.4849" lon="6.02853">
        <ele>637.2</ele>
        <time>2007-07-19T16:55:30Z</time>
      </trkpt>
      <trkpt lat="44.48484" lon="6.02843">
        <ele>637.7</ele>
        <time>2007-07-19T16:55:30Z</time>
      </trkpt>
      <trkpt lat="44.48475" lon="6.02833">
        <ele>638.1</ele>
        <time>2007-07-19T16:55:30Z</time>
      </trkpt>
      <trkpt lat="44.48468" lon="6.02826">
        <ele>638.4</ele>
        <time>2007-07-19T16:55:30Z</time>
      </trkpt>
      <trkpt lat="44.48464" lon="6.02817">
        <ele>638.9</ele>
        <time>2007-07-19T16:55:30Z</time>
      </trkpt>
      <trkpt lat="44.48462" lon="6.02807">
        <ele>639.5</ele>
        <time>2007-07-19T16:55:30Z</time>
      </trkpt>
      <trkpt lat="44.4846" lon="6.02797">
        <ele>640.5</ele>
        <time>2007-07-19T16:55:30Z</time>
      </trkpt>
      <trkpt lat="44.48458" lon="6.02788">
        <ele>641.4</ele>
        <time>2007-07-19T16:55:30Z</time>
      </trkpt>
      <trkpt lat="44.48456" lon="6.02778">
        <ele>642.4</ele>
        <time>2007-07-19T16:55:30Z</time>
      </trkpt>
      <trkpt lat="44.48457" lon="6.02766">
        <ele>643.5</ele>
        <time>2007-07-19T16:55:30Z</time>
      </trkpt>
      <trkpt lat="44.48457" lon="6.02753">
        <ele>644.7</ele>
        <time>2007-07-19T16:55:30Z</time>
      </trkpt>
      <trkpt lat="44.48458" lon="6.02741">
        <ele>645.8</ele>
        <time>2007-07-19T16:55:30Z</time>
      </trkpt>
      <trkpt lat="44.48458" lon="6.02728">
        <ele>647</ele>
        <time>2007-07-19T16:55:30Z</time>
      </trkpt>
      <trkpt lat="44.48459" lon="6.02716">
        <ele>648</ele>
        <time>2007-07-19T16:55:30Z</time>
      </trkpt>
      <trkpt lat="44.48461" lon="6.02706">
        <ele>648.8</ele>
        <time>2007-07-19T16:55:30Z</time>
      </trkpt>
      <trkpt lat="44.48464" lon="6.02697">
        <ele>649.5</ele>
        <time>2007-07-19T16:55:30Z</time>
      </trkpt>
      <trkpt lat="44.48468" lon="6.02688">
        <ele>650.3</ele>
        <time>2007-07-19T16:55:30Z</time>
      </trkpt>
      <trkpt lat="44.48473" lon="6.02679">
        <ele>651.1</ele>
        <time>2007-07-19T16:55:30Z</time>
      </trkpt>
      <trkpt lat="44.48478" lon="6.02667">
        <ele>652</ele>
        <time>2007-07-19T16:55:30Z</time>
      </trkpt>
      <trkpt lat="44.48483" lon="6.02658">
        <ele>652.6</ele>
        <time>2007-07-19T16:55:30Z</time>
      </trkpt>
      <trkpt lat="44.48486" lon="6.02645">
        <ele>653.6</ele>
        <time>2007-07-19T16:55:30Z</time>
      </trkpt>
      <trkpt lat="44.48493" lon="6.02636">
        <ele>654.2</ele>
        <time>2007-07-19T16:55:30Z</time>
      </trkpt>
      <trkpt lat="44.485" lon="6.02627">
        <ele>654.9</ele>
        <time>2007-07-19T16:55:30Z</time>
      </trkpt>
      <trkpt lat="44.48507" lon="6.02618">
        <ele>655.5</ele>
        <time>2007-07-19T16:55:30Z</time>
      </trkpt>
      <trkpt lat="44.48512" lon="6.02609">
        <ele>656.2</ele>
        <time>2007-07-19T16:55:30Z</time>
      </trkpt>
      <trkpt lat="44.48519" lon="6.026">
        <ele>656.9</ele>
        <time>2007-07-19T16:55:30Z</time>
      </trkpt>
      <trkpt lat="44.48526" lon="6.02591">
        <ele>657.5</ele>
        <time>2007-07-19T16:55:30Z</time>
      </trkpt>
      <trkpt lat="44.48533" lon="6.02582">
        <ele>658.1</ele>
        <time>2007-07-19T16:55:30Z</time>
      </trkpt>
      <trkpt lat="44.48542" lon="6.02573">
        <ele>658.9</ele>
        <time>2007-07-19T16:55:30Z</time>
      </trkpt>
      <trkpt lat="44.48549" lon="6.02568">
        <ele>659.2</ele>
        <time>2007-07-19T16:55:30Z</time>
      </trkpt>
      <trkpt lat="44.48558" lon="6.02562">
        <ele>659.6</ele>
        <time>2007-07-19T16:55:30Z</time>
      </trkpt>
      <trkpt lat="44.48565" lon="6.02553">
        <ele>660.6</ele>
        <time>2007-07-19T16:55:30Z</time>
      </trkpt>
      <trkpt lat="44.48572" lon="6.02547">
        <ele>661.5</ele>
        <time>2007-07-19T16:55:30Z</time>
      </trkpt>
      <trkpt lat="44.48579" lon="6.02535">
        <ele>662.6</ele>
        <time>2007-07-19T16:55:30Z</time>
      </trkpt>
      <trkpt lat="44.48584" lon="6.02526">
        <ele>663.3</ele>
        <time>2007-07-19T16:55:30Z</time>
      </trkpt>
      <trkpt lat="44.48591" lon="6.02517">
        <ele>664.5</ele>
        <time>2007-07-19T16:55:30Z</time>
      </trkpt>
      <trkpt lat="44.48601" lon="6.02505">
        <ele>665.4</ele>
        <time>2007-07-19T16:55:30Z</time>
      </trkpt>
      <trkpt lat="44.48605" lon="6.02496">
        <ele>665.9</ele>
        <time>2007-07-19T16:55:30Z</time>
      </trkpt>
      <trkpt lat="44.48613" lon="6.02487">
        <ele>666.5</ele>
        <time>2007-07-19T16:55:30Z</time>
      </trkpt>
      <trkpt lat="44.4862" lon="6.02475">
        <ele>667.8</ele>
        <time>2007-07-19T16:55:30Z</time>
      </trkpt>
      <trkpt lat="44.48627" lon="6.02466">
        <ele>668.3</ele>
        <time>2007-07-19T16:55:30Z</time>
      </trkpt>
      <trkpt lat="44.48634" lon="6.02457">
        <ele>668.6</ele>
        <time>2007-07-19T16:55:30Z</time>
      </trkpt>
      <trkpt lat="44.48639" lon="6.02448">
        <ele>668.9</ele>
        <time>2007-07-19T16:55:30Z</time>
      </trkpt>
      <trkpt lat="44.48644" lon="6.02435">
        <ele>669.8</ele>
        <time>2007-07-19T16:55:30Z</time>
      </trkpt>
      <trkpt lat="44.48648" lon="6.02423">
        <ele>670.6</ele>
        <time>2007-07-19T16:55:30Z</time>
      </trkpt>
      <trkpt lat="44.48651" lon="6.02411">
        <ele>671.6</ele>
        <time>2007-07-19T16:55:30Z</time>
      </trkpt>
      <trkpt lat="44.48652" lon="6.02398">
        <ele>673</ele>
        <time>2007-07-19T16:55:30Z</time>
      </trkpt>
      <trkpt lat="44.48654" lon="6.02389">
        <ele>674</ele>
        <time>2007-07-19T16:55:30Z</time>
      </trkpt>
      <trkpt lat="44.48661" lon="6.02383">
        <ele>675.1</ele>
        <time>2007-07-19T16:55:30Z</time>
      </trkpt>
      <trkpt lat="44.4867" lon="6.02381">
        <ele>675.4</ele>
        <time>2007-07-19T16:55:30Z</time>
      </trkpt>
      <trkpt lat="44.48679" lon="6.02381">
        <ele>675.2</ele>
        <time>2007-07-19T16:55:30Z</time>
      </trkpt>
      <trkpt lat="44.48688" lon="6.02379">
        <ele>675.2</ele>
        <time>2007-07-19T16:55:30Z</time>
      </trkpt>
      <trkpt lat="44.48695" lon="6.02379">
        <ele>675.1</ele>
        <time>2007-07-19T16:55:30Z</time>
      </trkpt>
      <trkpt lat="44.48704" lon="6.0238">
        <ele>675.2</ele>
        <time>2007-07-19T16:55:30Z</time>
      </trkpt>
      <trkpt lat="44.48713" lon="6.0238">
        <ele>675.4</ele>
        <time>2007-07-19T16:55:30Z</time>
      </trkpt>
      <trkpt lat="44.4872" lon="6.02381">
        <ele>675.5</ele>
        <time>2007-07-19T16:55:30Z</time>
      </trkpt>
      <trkpt lat="44.48729" lon="6.02381">
        <ele>675.8</ele>
        <time>2007-07-19T16:55:30Z</time>
      </trkpt>
      <trkpt lat="44.48735" lon="6.02379">
        <ele>676.2</ele>
        <time>2007-07-19T16:55:30Z</time>
      </trkpt>
      <trkpt lat="44.48744" lon="6.02379">
        <ele>676.5</ele>
        <time>2007-07-19T16:55:30Z</time>
      </trkpt>
      <trkpt lat="44.48751" lon="6.02376">
        <ele>677</ele>
        <time>2007-07-19T16:55:30Z</time>
      </trkpt>
      <trkpt lat="44.4876" lon="6.02374">
        <ele>677.6</ele>
        <time>2007-07-19T16:55:30Z</time>
      </trkpt>
      <trkpt lat="44.48769" lon="6.02374">
        <ele>678.1</ele>
        <time>2007-07-19T16:55:30Z</time>
      </trkpt>
      <trkpt lat="44.48778" lon="6.02375">
        <ele>678.5</ele>
        <time>2007-07-19T16:55:30Z</time>
      </trkpt>
      <trkpt lat="44.48785" lon="6.02372">
        <ele>679</ele>
        <time>2007-07-19T16:55:30Z</time>
      </trkpt>
      <trkpt lat="44.48794" lon="6.02373">
        <ele>679.4</ele>
        <time>2007-07-19T16:55:30Z</time>
      </trkpt>
      <trkpt lat="44.48805" lon="6.02374">
        <ele>680</ele>
        <time>2007-07-19T16:55:30Z</time>
      </trkpt>
      <trkpt lat="44.48814" lon="6.02374">
        <ele>680.6</ele>
        <time>2007-07-19T16:55:30Z</time>
      </trkpt>
      <trkpt lat="44.48823" lon="6.02375">
        <ele>681.3</ele>
        <time>2007-07-19T16:55:30Z</time>
      </trkpt>
      <trkpt lat="44.48832" lon="6.02375">
        <ele>681.9</ele>
        <time>2007-07-19T16:55:30Z</time>
      </trkpt>
      <trkpt lat="44.48841" lon="6.02376">
        <ele>682.9</ele>
        <time>2007-07-19T16:55:30Z</time>
      </trkpt>
      <trkpt lat="44.48848" lon="6.02373">
        <ele>683.4</ele>
        <time>2007-07-19T16:55:30Z</time>
      </trkpt>
      <trkpt lat="44.48857" lon="6.02374">
        <ele>684.5</ele>
        <time>2007-07-19T16:55:30Z</time>
      </trkpt>
      <trkpt lat="44.48866" lon="6.02375">
        <ele>685.3</ele>
        <time>2007-07-19T16:55:30Z</time>
      </trkpt>
      <trkpt lat="44.48875" lon="6.02375">
        <ele>685.8</ele>
        <time>2007-07-19T16:55:30Z</time>
      </trkpt>
      <trkpt lat="44.48884" lon="6.02376">
        <ele>686.3</ele>
        <time>2007-07-19T16:55:30Z</time>
      </trkpt>
      <trkpt lat="44.48893" lon="6.02376">
        <ele>686.8</ele>
        <time>2007-07-19T16:55:30Z</time>
      </trkpt>
      <trkpt lat="44.48902" lon="6.02377">
        <ele>687.2</ele>
        <time>2007-07-19T16:55:30Z</time>
      </trkpt>
      <trkpt lat="44.48911" lon="6.02377">
        <ele>687.5</ele>
        <time>2007-07-19T16:55:30Z</time>
      </trkpt>
      <trkpt lat="44.48915" lon="6.02384">
        <ele>688.4</ele>
        <time>2007-07-19T16:55:30Z</time>
      </trkpt>
      <trkpt lat="44.48915" lon="6.02397">
        <ele>689.2</ele>
        <time>2007-07-19T16:55:30Z</time>
      </trkpt>
      <trkpt lat="44.48914" lon="6.02409">
        <ele>689.6</ele>
        <time>2007-07-19T16:55:30Z</time>
      </trkpt>
      <trkpt lat="44.48914" lon="6.02422">
        <ele>689.9</ele>
        <time>2007-07-19T16:55:30Z</time>
      </trkpt>
      <trkpt lat="44.48912" lon="6.02428">
        <ele>689.8</ele>
        <time>2007-07-19T16:55:30Z</time>
      </trkpt>
      <trkpt lat="44.48911" lon="6.02437">
        <ele>689.8</ele>
        <time>2007-07-19T16:55:30Z</time>
      </trkpt>
      <trkpt lat="44.48911" lon="6.02447">
        <ele>689.6</ele>
        <time>2007-07-19T16:55:30Z</time>
      </trkpt>
      <trkpt lat="44.48911" lon="6.02456">
        <ele>689</ele>
        <time>2007-07-19T16:55:30Z</time>
      </trkpt>
      <trkpt lat="44.4891" lon="6.02465">
        <ele>688.5</ele>
        <time>2007-07-19T16:55:30Z</time>
      </trkpt>
      <trkpt lat="44.4891" lon="6.02475">
        <ele>687.9</ele>
        <time>2007-07-19T16:55:30Z</time>
      </trkpt>
      <trkpt lat="44.4891" lon="6.02484">
        <ele>687.6</ele>
        <time>2007-07-19T16:55:30Z</time>
      </trkpt>
      <trkpt lat="44.48909" lon="6.02494">
        <ele>687.2</ele>
        <time>2007-07-19T16:55:30Z</time>
      </trkpt>
      <trkpt lat="44.48909" lon="6.025">
        <ele>687</ele>
        <time>2007-07-19T16:55:30Z</time>
      </trkpt>
      <trkpt lat="44.48909" lon="6.02506">
        <ele>686.6</ele>
        <time>2007-07-19T16:55:30Z</time>
      </trkpt>
      <trkpt lat="44.48909" lon="6.02513">
        <ele>686.2</ele>
        <time>2007-07-19T16:55:30Z</time>
      </trkpt>
      <trkpt lat="44.48911" lon="6.02516">
        <ele>686</ele>
        <time>2007-07-19T16:55:30Z</time>
      </trkpt>
      <trkpt lat="44.48913" lon="6.02522">
        <ele>685.5</ele>
        <time>2007-07-19T16:55:30Z</time>
      </trkpt>
      <trkpt lat="44.48915" lon="6.02526">
        <ele>685.2</ele>
        <time>2007-07-19T16:55:30Z</time>
      </trkpt>
      <trkpt lat="44.4892" lon="6.02526">
        <ele>684.9</ele>
        <time>2007-07-19T16:55:30Z</time>
      </trkpt>
      <trkpt lat="44.48924" lon="6.02529">
        <ele>684.3</ele>
        <time>2007-07-19T16:55:30Z</time>
      </trkpt>
      <trkpt lat="44.48928" lon="6.0253">
        <ele>683.9</ele>
        <time>2007-07-19T16:55:30Z</time>
      </trkpt>
      <trkpt lat="44.48933" lon="6.0253">
        <ele>683.6</ele>
        <time>2007-07-19T16:55:30Z</time>
      </trkpt>
      <trkpt lat="44.48937" lon="6.0253">
        <ele>683.3</ele>
        <time>2007-07-19T16:55:30Z</time>
      </trkpt>
      <trkpt lat="44.48942" lon="6.0253">
        <ele>682.9</ele>
        <time>2007-07-19T16:55:30Z</time>
      </trkpt>
      <trkpt lat="44.48946" lon="6.02531">
        <ele>682.5</ele>
        <time>2007-07-19T16:55:30Z</time>
      </trkpt>
      <trkpt lat="44.48951" lon="6.02531">
        <ele>681.9</ele>
        <time>2007-07-19T16:55:30Z</time>
      </trkpt>
      <trkpt lat="44.48955" lon="6.02531">
        <ele>681.5</ele>
        <time>2007-07-19T16:55:30Z</time>
      </trkpt>
      <trkpt lat="44.4896" lon="6.02532">
        <ele>680.8</ele>
        <time>2007-07-19T16:55:30Z</time>
      </trkpt>
      <trkpt lat="44.48964" lon="6.02532">
        <ele>680.3</ele>
        <time>2007-07-19T16:55:30Z</time>
      </trkpt>
      <trkpt lat="44.48969" lon="6.02532">
        <ele>679.8</ele>
        <time>2007-07-19T16:55:30Z</time>
      </trkpt>
      <trkpt lat="44.48971" lon="6.02535">
        <ele>679.1</ele>
        <time>2007-07-19T16:55:30Z</time>
      </trkpt>
      <trkpt lat="44.48973" lon="6.02539">
        <ele>678.2</ele>
        <time>2007-07-19T16:55:30Z</time>
      </trkpt>
      <trkpt lat="44.48978" lon="6.02539">
        <ele>677.2</ele>
        <time>2007-07-19T16:55:30Z</time>
      </trkpt>
      <trkpt lat="44.4898" lon="6.02542">
        <ele>676.4</ele>
        <time>2007-07-19T16:55:30Z</time>
      </trkpt>
      <trkpt lat="44.4898" lon="6.02549">
        <ele>675.5</ele>
        <time>2007-07-19T16:55:30Z</time>
      </trkpt>
      <trkpt lat="44.48979" lon="6.02555">
        <ele>674.9</ele>
        <time>2007-07-19T16:55:30Z</time>
      </trkpt>
      <trkpt lat="44.48979" lon="6.02561">
        <ele>674.1</ele>
        <time>2007-07-19T16:55:30Z</time>
      </trkpt>
      <trkpt lat="44.48979" lon="6.02567">
        <ele>673.3</ele>
        <time>2007-07-19T16:55:30Z</time>
      </trkpt>
      <trkpt lat="44.48979" lon="6.02574">
        <ele>672.4</ele>
        <time>2007-07-19T16:55:30Z</time>
      </trkpt>
      <trkpt lat="44.48979" lon="6.0258">
        <ele>671.7</ele>
        <time>2007-07-19T16:55:30Z</time>
      </trkpt>
      <trkpt lat="44.48978" lon="6.02586">
        <ele>671</ele>
        <time>2007-07-19T16:55:30Z</time>
      </trkpt>
      <trkpt lat="44.48978" lon="6.02593">
        <ele>670.1</ele>
        <time>2007-07-19T16:55:30Z</time>
      </trkpt>
      <trkpt lat="44.48978" lon="6.02599">
        <ele>669.4</ele>
        <time>2007-07-19T16:55:30Z</time>
      </trkpt>
      <trkpt lat="44.48978" lon="6.02605">
        <ele>668.6</ele>
        <time>2007-07-19T16:55:30Z</time>
      </trkpt>
      <trkpt lat="44.48977" lon="6.02611">
        <ele>667.8</ele>
        <time>2007-07-19T16:55:30Z</time>
      </trkpt>
      <trkpt lat="44.48977" lon="6.02618">
        <ele>667.1</ele>
        <time>2007-07-19T16:55:30Z</time>
      </trkpt>
      <trkpt lat="44.48973" lon="6.0262">
        <ele>667</ele>
        <time>2007-07-19T16:55:30Z</time>
      </trkpt>
      <trkpt lat="44.48968" lon="6.02623">
        <ele>667.1</ele>
        <time>2007-07-19T16:55:30Z</time>
      </trkpt>
      <trkpt lat="44.48968" lon="6.02626">
        <ele>666.8</ele>
        <time>2007-07-19T16:55:30Z</time>
      </trkpt>
      <trkpt lat="44.48968" lon="6.0263">
        <ele>666.3</ele>
        <time>2007-07-19T16:55:30Z</time>
      </trkpt>
    </trkseg>
  </trk>
</gpx>